Date StartTime U_cm/s V_cm/s W_cm/s Ustd_cm/s Vstd_cm/s Wstd_cm/s Uvar_(cm/s)^2 Vvar_(cm/s)^2 Wvar_(cm/s)^2 KE_(m/s)^2 TurbulentKE_(m/s)^2 HorizWindSpeed_cm/s FrictionSpeec_cm/s DragCoef SpeedOfSound_m/s SonicTemperature_C Pressure_mb 
09/25/2014  00:00:00     -255.000      -99.374       -5.916      129.262       86.822       47.509    16708.646     7538.115     2257.132        5.072        1.325      273.679       50.988        0.035      342.861       18.564      858.333
09/25/2014  00:01:00      -86.246      -70.932       -2.477       75.111       41.768       36.267     5641.717     1744.555     1315.285        1.059        0.435      111.668       40.190        0.130      342.753       18.381      858.337
09/25/2014  00:02:00      -47.555     -139.809       -5.696       57.197       72.829       33.186     3271.491     5304.100     1101.294        1.576        0.484      147.675       19.917        0.018      342.801       18.462      858.364
09/25/2014  00:03:00      -14.727     -121.361       -7.234       42.597       83.131       31.200     1814.533     6910.817      973.450        1.235        0.485      122.252       37.290        0.093      342.592       18.108      858.371
09/25/2014  00:04:00      -57.302        0.933       -6.404       90.578       32.748       25.522     8204.393     1072.440      651.374        0.663        0.496       57.310       28.085        0.240      342.526       17.996      858.350
09/25/2014  00:05:00     -166.427     -111.284       -9.109       93.661       51.011       31.371     8772.363     2602.102      984.160        2.626        0.618      200.205       27.659        0.019      342.506       17.963      858.383
09/25/2014  00:06:00      -32.507     -140.346       20.179       51.027       81.498       32.853     2603.741     6641.875     1079.336        1.574        0.516      144.061       23.198        0.026      342.586       18.098      858.373
09/25/2014  00:07:00      -59.903     -131.154       -6.896       44.920      102.719       32.114     2017.780    10551.257     1031.335        1.722        0.680      144.186       28.912        0.040      342.534       18.010      858.362
09/25/2014  00:08:00      -29.960     -134.662      -24.429       71.786       61.000       44.996     5153.294     3720.944     2024.634        1.526        0.545      137.954       31.027        0.051      342.692       18.279      858.359
09/25/2014  00:09:00      -36.496      -47.801       11.128       73.074       44.950       27.153     5339.760     2020.512      737.297        0.592        0.405       60.140       31.358        0.272      342.681       18.259      858.377
09/25/2014  00:10:00      -47.867      -46.068        7.388       34.483       33.593       29.352     1189.082     1128.461      861.566        0.382        0.159       66.434       13.766        0.043      342.603       18.128      858.339
09/25/2014  00:11:00      -36.859      -82.575       -2.016       59.045       72.313       38.294     3486.336     5229.201     1466.455        0.918        0.509       90.428       36.080        0.159      342.552       18.041      858.341
09/25/2014  00:12:00      -19.966      -80.356       -3.552       43.419       71.361       32.233     1885.199     5092.424     1038.995        0.744        0.401       82.800       34.856        0.177      342.500       17.953      858.377
09/25/2014  00:13:00      -21.793     -155.396        0.135       66.540       85.945       45.712     4427.624     7386.586     2089.599        1.926        0.695      156.917       22.623        0.021      342.525       17.995      858.432
09/25/2014  00:14:00     -149.252     -245.241       -9.638       98.705       92.404       52.225     9742.671     8538.531     2727.446        5.176        1.050      287.088       51.620        0.032      342.687       18.266      858.418
09/25/2014  00:15:00     -243.498     -127.797       15.815      149.447       83.165       59.015    22334.292     6916.368     3482.797        5.430        1.637      274.997       60.266        0.048      342.823       18.499      858.351
09/25/2014  00:16:00     -224.587      -89.441       17.262      158.334       77.996       61.082    25069.794     6083.416     3731.041        4.680        1.744      241.742       78.904        0.107      342.831       18.512      858.323
09/25/2014  00:17:00     -237.194      -77.250       -2.631      106.625       90.827       52.101    11368.978     8249.559     2714.464        4.228        1.117      249.456       54.328        0.047      343.294       19.302      858.310
09/25/2014  00:18:00     -248.113      -82.008       -3.329       99.755       83.725       57.370     9950.987     7009.934     3291.336        4.427        1.013      261.315       59.282        0.051      343.003       18.805      858.295
09/25/2014  00:19:00     -192.828      -74.480       -2.626      100.448       76.612       40.686    10089.852     5869.458     1655.321        3.017        0.881      206.712       49.366        0.057      342.969       18.748      858.296
09/25/2014  00:20:00     -171.521     -110.682        3.430       62.009       59.024       31.201     3845.145     3483.800      973.500        2.499        0.415      204.133       27.872        0.019      342.698       18.287      858.299
09/25/2014  00:21:00     -103.467     -106.069        3.958       83.381       68.158       48.033     6952.364     4645.570     2307.134        1.794        0.695      148.175       45.162        0.093      342.563       18.060      858.353
09/25/2014  00:22:00     -131.401     -103.836        7.267       72.773       78.279       38.686     5295.870     6127.592     1496.602        2.051        0.646      167.475       41.185        0.060      342.715       18.317      858.370
09/25/2014  00:23:00     -138.155      -44.424      -10.597       44.919       61.247       20.654     2017.672     3751.210      426.604        1.368        0.310      145.122       16.787        0.013      342.922       18.670      858.339
09/25/2014  00:24:00     -196.247      -47.120      -14.475       69.793       49.928       36.072     4870.995     2492.760     1301.171        2.480        0.433      201.824       34.107        0.029      343.087       18.949      858.293
09/25/2014  00:25:00     -154.417      -33.072        0.486       65.030       49.814       33.657     4228.955     2481.398     1132.812        1.639        0.392      157.919       34.231        0.047      343.023       18.842      858.328
09/25/2014  00:26:00      -67.652      -83.713       10.323       50.822       50.847       30.354     2582.905     2585.382      921.350        0.889        0.304      107.632       26.957        0.063      343.105       18.982      858.406
09/25/2014  00:27:00     -127.048      -91.182        5.111       72.838       55.230       36.996     5305.381     3050.400     1368.682        1.710        0.486      156.382       31.234        0.040      343.201       19.145      858.407
09/25/2014  00:28:00     -236.029      -78.243       -8.507       76.810       79.000       42.229     5899.784     6241.044     1783.268        3.791        0.696      248.660       37.608        0.023      343.142       19.042      858.340
09/25/2014  00:29:00     -106.916       10.319       -8.973       56.102       50.733       40.334     3147.430     2573.870     1626.871        0.948        0.367      107.413       36.344        0.114      343.003       18.809      858.308
09/25/2014  00:30:00      -59.394      -23.214       -0.940       69.988       49.780       25.911     4898.282     2478.000      671.360        0.606        0.402       63.769       23.035        0.130      343.011       18.822      858.308
09/25/2014  00:31:00       37.631     -111.761      -24.709       44.201       52.619       21.966     1953.689     2768.736      482.516        0.986        0.260      117.926       20.169        0.029      342.849       18.545      858.376
09/25/2014  00:32:00      -58.768      -34.836       -2.302       71.064       53.158       38.120     5050.067     2825.755     1453.109        0.700        0.466       68.317       22.060        0.104      342.689       18.274      858.404
09/25/2014  00:33:00      -70.827      -16.297        5.579       26.280       28.322       20.280      690.637      802.147      411.292        0.361        0.095       72.678       18.944        0.068      342.773       18.417      858.368
09/25/2014  00:34:00     -101.598       10.601       -4.042       48.467       31.984       19.147     2349.025     1023.002      366.598        0.709        0.187      102.149       18.272        0.032      342.778       18.425      858.319
09/25/2014  00:35:00     -124.787      147.945      -29.159       28.766       57.425       23.864      827.504     3297.588      569.508        2.150        0.235      193.545       22.809        0.014      342.598       18.119      858.309
09/25/2014  00:36:00        1.797      152.831      -28.505       33.125       35.638       27.002     1097.290     1270.065      729.082        1.363        0.155      152.842       17.096        0.013      342.464       17.892      858.311
09/25/2014  00:37:00        1.318       14.361        0.997       24.836       52.742       14.914      616.832     2781.725      222.420        0.191        0.181       14.421       11.752        0.664      342.306       17.623      858.343
09/25/2014  00:38:00       23.378      -56.381       -8.351       33.648       25.377       25.696     1132.190      643.979      660.274        0.312        0.122       61.035       14.271        0.055      342.604       18.131      858.333
09/25/2014  00:39:00        5.065       32.683       -7.209       31.381       36.307       20.779      984.776     1318.235      431.766        0.194        0.137       33.073       23.164        0.491      342.599       18.122      858.320
09/25/2014  00:40:00      105.646       68.959        1.189       44.828       23.432       20.546     2009.592      549.066      422.129        0.945        0.149      126.160       14.456        0.013      342.431       17.834      858.292
09/25/2014  00:41:00       23.519       74.591       75.135       48.643       31.533       37.029     2366.146      994.307     1371.141        0.825        0.237       78.211       37.027        0.224      342.321       17.649      858.342
09/25/2014  00:42:00       25.113      -22.467       47.692       43.608       77.028       40.298     1901.643     5933.271     1623.953        0.643        0.473       33.696       38.830        1.328      342.438       17.847      858.381
09/25/2014  00:43:00       44.485      -52.822        5.884       45.422       62.094       47.873     2063.140     3855.685     2291.789        0.651        0.411       69.059       41.318        0.358      342.465       17.894      858.331
09/25/2014  00:44:00       -0.897       26.188       59.362       13.957       37.913       24.098      194.801     1437.383      580.702        0.321        0.111       26.203       27.130        1.072      342.739       18.358      858.303
09/25/2014  00:45:00      -38.359      -25.814       -3.318       43.876       42.290       26.845     1925.088     1788.405      720.643        0.329        0.222       46.236       32.178        0.484      342.736       18.354      858.344
09/25/2014  00:46:00     -131.963      -51.440      -12.411       32.751       21.533       16.509     1072.626      463.668      272.551        1.101        0.090      141.634       12.144        0.007      342.572       18.074      858.367
09/25/2014  00:47:00     -170.028       15.342      -15.496       54.643       47.910       17.817     2985.811     2295.403      317.454        1.749        0.280      170.719       12.050        0.005      342.781       18.431      858.301
09/25/2014  00:48:00     -249.128       22.238      -18.351       77.616       49.461       38.351     6024.182     2446.417     1470.818        3.642        0.497      250.118       35.377        0.020      342.817       18.488      858.222
09/25/2014  00:49:00     -229.555      -41.488       -9.662       81.551       77.446       48.700     6650.522     5997.906     2371.713        3.476        0.751      233.275       52.661        0.051      342.763       18.396      858.192
09/25/2014  00:50:00     -223.195      -58.428       -1.921       71.224       50.209       37.285     5072.875     2520.907     1390.175        3.111        0.449      230.715       37.984        0.027      342.786       18.434      858.247
09/25/2014  00:51:00     -199.440      -37.287       -8.373       73.251       73.827       39.747     5365.652     5450.384     1579.855        2.681        0.620      202.895       41.991        0.043      342.814       18.484      858.265
09/25/2014  00:52:00     -129.508      -11.453       -3.056       55.462       52.423       25.194     3076.019     2748.176      634.717        1.168        0.323      130.013       23.579        0.033      342.968       18.750      858.251
09/25/2014  00:53:00       -9.601      -53.993        7.087       36.271       24.719       26.266     1315.552      611.029      689.910        0.284        0.131       54.840       13.745        0.063      343.095       18.965      858.279
09/25/2014  00:54:00       80.794      -95.715        7.489       70.618       65.752       48.612     4986.844     4323.374     2363.082        1.371        0.584      125.256       43.868        0.123      342.653       18.213      858.335
09/25/2014  00:55:00      120.464     -111.246       -6.460       40.492       35.840       25.858     1639.581     1284.509      668.634        1.526        0.180      163.973       22.144        0.018      342.653       18.213      858.345
09/25/2014  00:56:00       24.127      -13.176       23.284       32.238       29.754       25.805     1039.263      885.306      665.902        0.194        0.130       27.490       23.686        0.742      342.524       17.992      858.332
09/25/2014  00:57:00       -8.490       39.601       21.002       13.117       15.973       13.072      172.049      255.137      170.890        0.134        0.030       40.501        7.182        0.031      342.577       18.086      858.312
09/25/2014  00:58:00      -20.893       33.086        8.471       26.646       12.611       14.459      710.014      159.037      209.050        0.134        0.054       39.131       13.785        0.124      342.903       18.638      858.283
09/25/2014  00:59:00      -55.011       70.927      -14.835       17.870       14.087        9.373      319.345      198.446       87.861        0.444        0.030       89.760        5.993        0.004      343.061       18.908      858.264
09/25/2014  01:00:00      -74.658       14.440      -10.966       28.255       26.158       14.155      798.356      684.246      200.372        0.379        0.084       76.042       12.478        0.027      342.907       18.646      858.255
09/25/2014  01:01:00      -71.082       10.661       -6.122       33.751       24.380       18.110     1139.134      594.368      327.984        0.363        0.103       71.877       14.650        0.042      342.430       17.835      858.291
09/25/2014  01:02:00      -74.421      -28.544       -3.847       32.213       28.295       15.707     1037.661      800.583      246.723        0.423        0.104       79.707       15.225        0.036      342.464       17.893      858.343
09/25/2014  01:03:00      -73.501      -44.049        1.268       35.260       22.130       16.107     1243.273      489.721      259.430        0.467        0.100       85.690       13.570        0.025      342.568       18.068      858.345
09/25/2014  01:04:00      -38.993      -13.107        1.044       27.497       22.782       14.221      756.087      519.018      202.244        0.159        0.074       41.137       12.434        0.091      342.428       17.832      858.326
09/25/2014  01:05:00      -58.222      -36.917        5.781       30.915       19.877       14.128      955.737      395.085      199.589        0.317        0.078       68.939       14.446        0.044      342.472       17.907      858.346
09/25/2014  01:06:00      -55.007      -19.606        0.486       33.339       14.016       11.845     1111.456      196.444      140.303        0.243        0.072       58.397       16.480        0.080      342.562       18.057      858.371
09/25/2014  01:07:00      -60.235      -26.256        0.349       33.591       17.889       17.750     1128.377      320.026      315.048        0.304        0.088       65.709       20.136        0.094      342.575       18.080      858.357
09/25/2014  01:08:00      -70.746      -33.344       -2.661       22.592       19.578       15.292      510.406      383.313      233.858        0.363        0.056       78.211       14.585        0.035      342.598       18.118      858.322
09/25/2014  01:09:00      -62.779       -2.048       -2.897       19.437       18.988       13.742      377.797      360.559      188.838        0.244        0.046       62.812       12.441        0.039      342.448       17.865      858.339
09/25/2014  01:10:00      -89.906       16.605       -6.879       24.308       19.744        9.945      590.881      389.838       98.893        0.474        0.054       91.427        2.809        0.001      342.372       17.736      858.351
09/25/2014  01:11:00      -39.157       63.458       -7.123       26.224       40.912       19.757      687.674     1673.779      390.345        0.418        0.138       74.567       25.333        0.115      342.484       17.925      858.316
09/25/2014  01:12:00      -76.553       16.858       -9.187       44.570       40.690       16.536     1986.450     1655.687      273.447        0.507        0.196       78.387       19.533        0.062      342.796       18.455      858.305
09/25/2014  01:13:00       -1.739      -56.994       -3.740       30.624       20.666       14.899      937.836      427.064      221.982        0.243        0.079       57.020        7.320        0.016      342.498       17.949      858.363
09/25/2014  01:14:00       -8.276      -16.088       -3.279       23.660       30.639       18.403      559.797      938.743      338.687        0.109        0.092       18.092       23.228        1.648      342.403       17.789      858.402
09/25/2014  01:15:00      -11.287       54.396       75.592       21.297       40.373       46.350      453.581     1630.009     2148.287        0.652        0.212       55.554       37.448        0.454      342.186       17.420      858.389
09/25/2014  01:16:00       26.448      -42.186       27.425       32.470       56.332       45.238     1054.306     3173.311     2046.478        0.475        0.314       49.791       44.980        0.816      342.353       17.703      858.413
09/25/2014  01:17:00        2.762       -0.673       18.047       14.257       37.668       19.384      203.272     1418.884      375.739        0.117        0.100        2.843       17.432       37.589      342.326       17.659      858.441
09/25/2014  01:18:00        1.074        1.194       10.547       19.656        9.171        7.424      386.367       84.102       55.113        0.032        0.026        1.606        2.788        3.014      342.347       17.693      858.432
09/25/2014  01:19:00      109.410       73.439       12.069       36.771       34.580       29.378     1352.121     1195.756      863.073        1.046        0.171      131.772       21.901        0.028      342.320       17.648      858.381
09/25/2014  01:20:00       58.819       63.775       56.847       67.807       51.398       37.945     4597.841     2641.715     1439.824        0.972        0.434       86.758       26.250        0.092      341.900       16.932      858.336
09/25/2014  01:21:00       24.768       24.886        4.667       16.999       32.906       19.877      288.973     1082.784      395.084        0.151        0.088       35.111       13.410        0.146      341.819       16.795      858.373
09/25/2014  01:22:00       -7.937       43.793       -8.695       20.522       21.896       10.442      421.159      479.454      109.027        0.153        0.050       44.506        9.955        0.050      341.689       16.576      858.399
09/25/2014  01:23:00       32.065       50.436      -11.731       30.209       27.351       10.853      912.599      748.092      117.791        0.274        0.089       59.766        6.211        0.011      341.908       16.948      858.408
09/25/2014  01:24:00      105.977       40.441        3.198       31.466       28.794       16.485      990.100      829.080      271.745        0.748        0.105      113.431       15.658        0.019      342.249       17.525      858.392
09/25/2014  01:25:00       26.149       30.408       54.836       50.521       42.573       49.230     2552.370     1812.502     2423.630        0.570        0.339       40.105       47.195        1.385      342.056       17.198      858.396
09/25/2014  01:26:00       -6.519       44.927       82.698       27.452       51.345       24.343      753.610     2636.296      592.601        0.644        0.199       45.398       27.079        0.356      342.175       17.403      858.452
09/25/2014  01:27:00       22.034       16.863       49.746       31.356       44.555       34.230      983.212     1985.132     1171.705        0.369        0.207       27.747       31.740        1.309      342.128       17.322      858.454
09/25/2014  01:28:00       14.238       13.806       57.316       30.726       45.140       30.831      944.102     2037.623      950.571        0.380        0.197       19.832       27.410        1.910      342.090       17.256      858.433
09/25/2014  01:29:00       53.043       31.394       28.110       41.917       37.511       26.060     1757.057     1407.056      679.133        0.422        0.192       61.637       15.865        0.066      342.033       17.160      858.433
09/25/2014  01:30:00       18.472       30.410       -2.480       28.930       33.015       18.839      836.941     1090.011      354.911        0.178        0.114       35.580       13.977        0.154      342.113       17.298      858.441
09/25/2014  01:31:00      -93.279       -2.653      -19.904       33.080       27.511       13.481     1094.271      756.852      181.741        0.557        0.102       93.317        8.633        0.009      341.801       16.766      858.468
09/25/2014  01:32:00      -68.011       10.282       -6.705       44.939       28.324       12.229     2019.469      802.241      149.540        0.387        0.149       68.784        8.840        0.017      341.836       16.826      858.488
09/25/2014  01:33:00       85.283       67.337        2.760       28.412       15.357       16.625      807.264      235.850      276.399        0.657        0.066      108.662       11.697        0.012      341.968       17.049      858.466
09/25/2014  01:34:00        2.613       25.115        9.093       54.550       26.519       16.709     2975.756      703.272      279.207        0.234        0.198       25.251       25.222        0.998      342.063       17.211      858.471
09/25/2014  01:35:00       -7.843      -64.423       -6.827       26.975       37.420       17.803      727.666     1400.238      316.950        0.335        0.122       64.899       17.260        0.071      342.389       17.764      858.511
09/25/2014  01:36:00       22.481     -125.750      -21.940       39.144       36.593       22.654     1532.216     1339.047      513.223        1.009        0.169      127.743        7.791        0.004      342.511       17.973      858.542
09/25/2014  01:37:00      -16.747      -53.151       11.085       63.409       35.593       31.122     4020.648     1266.852      968.565        0.474        0.313       55.727       28.409        0.260      342.209       17.458      858.573
09/25/2014  01:38:00       17.410        1.868       28.645       29.750       55.567       28.953      885.072     3087.659      838.297        0.297        0.241       17.509       32.298        3.403      342.371       17.735      858.545
09/25/2014  01:39:00       32.595       51.793        8.256       39.849       20.394       35.113     1587.966      415.926     1232.946        0.352        0.162       61.196       12.553        0.042      342.073       17.227      858.481
09/25/2014  01:40:00       45.147       25.725       -6.339       21.644       32.402       20.602      468.461     1049.868      424.427        0.234        0.097       51.962       15.954        0.094      342.055       17.197      858.478
09/25/2014  01:41:00      -26.951       -3.592        7.690       58.185       18.577       20.593     3385.468      345.120      424.090        0.248        0.208       27.189       24.875        0.837      342.127       17.321      858.488
09/25/2014  01:42:00      -86.792       10.687       -5.319       32.955       21.270       14.822     1086.044      452.432      219.683        0.472        0.088       87.448       14.792        0.029      342.196       17.437      858.481
09/25/2014  01:43:00      -41.856       23.163       -6.938       42.346       16.719       14.619     1793.151      279.525      213.722        0.231        0.114       47.838       18.745        0.154      342.771       18.414      858.463
09/25/2014  01:44:00      -12.254      -44.333        0.931       15.532       26.721       11.870      241.233      714.021      140.886        0.161        0.055       45.995       11.058        0.058      342.691       18.276      858.453
09/25/2014  01:45:00      -31.079      -55.919       -9.939       27.038       36.177       15.896      731.037     1308.761      252.689        0.324        0.115       63.975       12.195        0.036      343.002       18.806      858.440
09/25/2014  01:46:00      -83.358      -31.402       11.939       69.258       27.473       27.237     4796.605      754.742      741.871        0.718        0.315       89.077       37.706        0.179      342.446       17.862      858.430
09/25/2014  01:47:00        5.949      -20.081       11.968       22.084       22.278       11.020      487.697      496.322      121.451        0.084        0.055       20.944        9.633        0.212      342.381       17.752      858.417
09/25/2014  01:48:00      -91.335      -48.584      -10.485       68.897       33.878       23.551     4746.739     1147.704      554.666        0.863        0.322      103.453       27.914        0.073      342.872       18.585      858.422
09/25/2014  01:49:00      -92.868      -54.904        6.884       40.177       53.408       28.211     1614.167     2852.434      795.888        0.847        0.263      107.884       23.706        0.048      342.434       17.841      858.456
09/25/2014  01:50:00      -99.121     -159.784       -1.311       53.273       79.907       27.316     2837.976     6385.061      746.141        2.266        0.498      188.032       30.359        0.026      343.002       18.804      858.455
09/25/2014  01:51:00     -138.416      -79.127        0.394       78.180       56.411       33.093     6112.133     3182.243     1095.153        1.790        0.519      159.436       37.026        0.054      342.903       18.637      858.448
09/25/2014  01:52:00     -169.929     -116.762       -3.283      112.380       82.297       43.489    12629.323     6772.849     1891.298        3.190        1.065      206.178       50.942        0.061      343.080       18.935      858.432
09/25/2014  01:53:00     -231.210     -125.927        0.217       61.663       51.617       37.404     3802.292     2664.334     1399.034        3.859        0.393      263.279       30.690        0.014      342.973       18.753      858.397
09/25/2014  01:54:00     -227.246      -94.951       -4.530       74.359       63.573       34.487     5529.324     4041.519     1189.369        3.572        0.538      246.285       32.738        0.018      342.927       18.677      858.392
09/25/2014  01:55:00     -158.190      -72.879        6.272       85.926       58.572       37.048     7383.290     3430.661     1372.566        2.128        0.609      174.171       42.700        0.060      342.718       18.321      858.396
09/25/2014  01:56:00     -125.883      -59.542        6.876       78.067       59.281       34.841     6094.503     3514.230     1213.899        1.513        0.541      139.254       35.623        0.065      342.630       18.173      858.404
09/25/2014  01:57:00      -99.813      -82.312        1.716       57.398       58.660       30.547     3294.584     3441.035      933.142        1.220        0.383      129.375       26.732        0.043      342.816       18.490      858.426
09/25/2014  01:58:00      -98.338      -56.120       -2.083       43.224       39.035       26.007     1868.318     1523.751      676.347        0.845        0.203      113.224       21.813        0.037      342.756       18.388      858.435
09/25/2014  01:59:00     -117.619      -39.308        3.222       73.275       38.095       28.896     5369.157     1451.242      834.965        1.152        0.383      124.014       30.250        0.059      342.644       18.197      858.431
09/25/2014  02:00:00     -195.979      -97.788       -0.738       79.953       49.773       30.598     6392.466     2477.383      936.262        2.889        0.490      219.021       35.763        0.027      342.726       18.333      858.419
09/25/2014  02:01:00     -207.679      -82.657       -7.461       68.258       70.613       39.399     4659.174     4986.126     1552.261        3.061        0.560      223.524       38.971        0.030      342.695       18.281      858.426
09/25/2014  02:02:00     -186.300      -79.098        9.808      101.093       81.334       48.110    10219.729     6615.141     2314.604        3.010        0.957      202.396       50.699        0.063      342.528       17.998      858.434
09/25/2014  02:03:00     -210.193     -135.839       -2.926      126.831       82.873       56.355    16086.049     6867.936     3175.846        4.438        1.306      250.266       67.278        0.072      342.693       18.278      858.434
09/25/2014  02:04:00     -231.367     -153.419       -8.782       81.653       70.451       54.447     6667.179     4963.305     2964.506        4.587        0.730      277.611       48.238        0.030      342.693       18.275      858.467
09/25/2014  02:05:00     -165.460     -109.400       -2.433       85.864       92.039       47.150     7372.680     8471.183     2223.167        2.871        0.903      198.357       41.978        0.045      342.734       18.347      858.482
09/25/2014  02:06:00     -164.243      -92.296        7.719       76.870       68.460       35.670     5909.008     4686.740     1272.345        2.371        0.593      188.400       35.895        0.036      342.738       18.356      858.470
09/25/2014  02:07:00     -132.260     -102.333       -5.317       65.360       55.556       38.149     4271.905     3086.485     1455.349        1.840        0.441      167.227       35.044        0.044      342.678       18.253      858.476
09/25/2014  02:08:00     -238.565     -135.847       -8.487       94.377       66.427       46.862     8907.068     4412.487     2196.036        4.548        0.776      274.532       42.646        0.024      342.766       18.401      858.456
09/25/2014  02:09:00     -230.095     -118.250       -0.469       97.016       90.272       54.682     9412.134     8148.984     2990.161        4.374        1.028      258.702       56.811        0.048      342.693       18.277      858.439
09/25/2014  02:10:00     -221.240     -141.708       -4.077       99.555       81.407       50.977     9911.255     6627.045     2598.623        4.409        0.957      262.732       51.595        0.039      342.843       18.533      858.429
09/25/2014  02:11:00     -167.835      -92.800        3.189      100.598       80.456       47.365    10119.944     6473.156     2243.423        2.781        0.942      191.782       50.241        0.069      342.828       18.508      858.446
09/25/2014  02:12:00     -173.034      -94.022        3.458       76.895       61.621       37.017     5912.869     3797.105     1370.242        2.493        0.554      196.928       41.288        0.044      342.918       18.659      858.451
09/25/2014  02:13:00     -198.691     -143.943        5.053       95.777       82.600       50.023     9173.156     6822.694     2502.282        3.936        0.925      245.353       47.862        0.038      342.948       18.713      858.441
09/25/2014  02:14:00     -219.581     -118.611        8.683      125.801       87.564       47.383    15825.935     7667.461     2245.141        4.404        1.287      249.569       61.925        0.062      342.853       18.550      858.447
09/25/2014  02:15:00     -191.179     -110.191        3.513      103.915       77.349       52.479    10798.275     5982.819     2754.091        3.412        0.977      220.661       50.407        0.052      342.785       18.435      858.473
09/25/2014  02:16:00      -99.159     -114.638        9.329       75.549       62.828       39.024     5707.673     3947.360     1522.906        1.712        0.559      151.573       36.050        0.057      342.667       18.235      858.491
09/25/2014  02:17:00     -111.417     -204.734       -3.365       87.093       86.561       47.994     7585.147     7492.826     2303.383        3.586        0.869      233.088       36.258        0.024      342.595       18.111      858.499
09/25/2014  02:18:00     -126.308     -150.127        3.496       72.812       73.203       45.404     5301.608     5358.680     2061.510        2.561        0.636      196.193       40.260        0.042      342.557       18.047      858.462
09/25/2014  02:19:00     -143.753     -145.074        8.707      103.854       86.271       56.017    10785.633     7442.750     3137.933        3.157        1.068      204.234       57.670        0.080      342.612       18.139      858.474
09/25/2014  02:20:00     -248.079     -156.383       -7.267       90.476       80.591       46.916     8185.905     6494.961     2201.075        5.146        0.844      293.256       49.202        0.028      342.647       18.201      858.477
09/25/2014  02:21:00     -218.258     -141.204       -8.956       92.231       73.577       46.411     8506.614     5413.601     2153.977        4.186        0.804      259.952       46.409        0.032      342.740       18.357      858.463
09/25/2014  02:22:00     -225.270     -142.263       -2.420       96.217      101.779       47.574     9257.725    10358.927     2263.249        4.643        1.094      266.431       46.312        0.030      342.792       18.447      858.431
09/25/2014  02:23:00     -251.592     -234.407       -5.611      131.313       99.811       68.773    17243.152     9962.136     4729.759        7.510        1.597      343.868       73.592        0.046      342.724       18.331      858.463
09/25/2014  02:24:00     -182.723     -152.624        3.302      117.291       87.346       64.900    13757.181     7629.282     4212.032        4.114        1.280      238.080       56.448        0.056      342.579       18.084      858.500
09/25/2014  02:25:00     -195.738     -142.153       -8.021       79.150       68.253       48.037     6264.745     4658.495     2307.577        3.591        0.662      241.911       40.130        0.028      342.532       18.004      858.439
09/25/2014  02:26:00     -161.385     -109.735        7.334       95.526       67.416       50.319     9125.276     4544.861     2532.008        2.717        0.810      195.158       53.060        0.074      342.604       18.127      858.416
09/25/2014  02:27:00     -159.316     -147.129       -8.267       92.588       58.710       48.739     8572.468     3446.899     2375.452        3.074        0.720      216.860       39.957        0.034      342.529       18.000      858.498
09/25/2014  02:28:00     -124.800     -111.395      -11.474       61.709       68.320       28.894     3808.053     4667.659      834.863        1.871        0.466      167.284       12.648        0.006      342.484       17.925      858.487
09/25/2014  02:29:00      -92.189     -111.342        7.675       55.186       58.215       34.992     3045.549     3389.014     1224.448        1.431        0.383      144.554       26.133        0.033      342.458       17.882      858.437
09/25/2014  02:30:00     -150.643     -173.750       -4.849       80.192       62.395       45.183     6430.720     3893.195     2041.548        3.263        0.618      229.961       41.746        0.033      342.532       18.002      858.456
09/25/2014  02:31:00      -65.402     -137.323       11.820       78.901       66.930       49.847     6225.341     4479.629     2484.755        1.823        0.659      152.102       40.328        0.070      342.361       17.717      858.500
09/25/2014  02:32:00      -94.193     -144.207      -11.106       67.367       77.327       38.064     4538.304     5979.398     1448.841        2.088        0.598      172.244       15.577        0.008      342.364       17.718      858.501
09/25/2014  02:33:00     -138.868      -87.198       -7.182       77.588       71.490       30.974     6019.885     5110.847      959.391        1.951        0.605      163.975       34.144        0.043      342.205       17.450      858.474
09/25/2014  02:34:00     -138.844     -172.322       -2.668       71.476       71.592       40.489     5108.828     5125.442     1639.389        3.042        0.594      221.297       43.282        0.038      342.214       17.465      858.507
09/25/2014  02:35:00     -156.642     -235.818       -8.751       88.224       77.716       42.754     7783.392     6039.812     1827.943        4.793        0.783      283.102       30.629        0.012      342.258       17.538      858.556
09/25/2014  02:36:00     -255.361     -140.090       -9.866       75.952       81.028       44.739     5768.752     6565.572     2001.554        4.963        0.717      291.264       38.571        0.018      342.237       17.502      858.467
09/25/2014  02:37:00     -316.293     -122.927      -15.766      102.248       94.238       46.752    10454.562     8880.852     2185.742        6.846        1.076      339.341       50.315        0.022      342.185       17.413      858.383
09/25/2014  02:38:00     -202.048     -120.494       -0.972      105.502       72.685       43.933    11130.661     5283.131     1930.119        3.684        0.917      235.249       33.025        0.020      342.170       17.389      858.424
09/25/2014  02:39:00     -177.927     -147.257       -1.525       88.855       89.432       43.262     7895.290     7998.028     1871.570        3.555        0.888      230.961       50.827        0.048      342.303       17.615      858.480
09/25/2014  02:40:00     -135.581     -184.277       -0.835       93.281      102.581       46.859     8701.303    10522.883     2195.769        3.688        1.071      228.780       40.244        0.031      342.345       17.687      858.542
09/25/2014  02:41:00      -98.975     -105.665        6.042       69.282       64.354       32.823     4800.064     4141.385     1077.366        1.551        0.501      144.780       30.251        0.044      342.266       17.554      858.518
09/25/2014  02:42:00      -99.881     -168.574       15.413       86.680       84.450       49.149     7513.373     7131.748     2415.673        2.784        0.853      195.943       39.566        0.041      342.485       17.924      858.542
09/25/2014  02:43:00      -76.543     -136.961        1.397       75.643       97.774       41.392     5721.789     9559.749     1713.321        2.080        0.850      156.898       39.164        0.062      342.431       17.835      858.544
09/25/2014  02:44:00     -156.739      -97.751        0.748       70.169       65.772       40.826     4923.679     4325.935     1666.769        2.252        0.546      184.723       38.767        0.044      342.392       17.767      858.529
09/25/2014  02:45:00     -120.231     -111.916       -1.049       63.232       41.357       32.053     3998.225     1710.413     1027.407        1.686        0.337      164.258       27.053        0.027      342.206       17.452      858.510
09/25/2014  02:46:00     -160.362     -118.439       -3.136       66.636       54.354       34.535     4440.310     2954.343     1192.697        2.417        0.429      199.358       24.623        0.015      342.240       17.509      858.519
09/25/2014  02:47:00     -169.348      -71.741       -6.731       68.640       55.794       36.752     4711.474     3112.920     1350.704        2.152        0.459      183.917       33.735        0.034      342.284       17.584      858.474
09/25/2014  02:48:00     -114.015     -123.416       -0.828       61.248       79.876       30.049     3751.357     6380.174      902.942        1.963        0.552      168.021       29.667        0.031      342.253       17.530      858.466
09/25/2014  02:49:00      -68.248     -193.960       -4.285       59.554       91.009       32.647     3546.697     8282.565     1065.825        2.759        0.645      205.617       29.774        0.021      342.287       17.589      858.474
09/25/2014  02:50:00      -55.337      -65.166       10.233       74.964       62.170       38.391     5619.647     3865.061     1473.864        0.918        0.548       85.491       30.830        0.130      342.187       17.418      858.472
09/25/2014  02:51:00      -27.831      -97.337       -3.879       53.533       50.560       33.767     2865.782     2556.277     1140.179        0.841        0.328      101.238       21.461        0.045      342.185       17.419      858.464
09/25/2014  02:52:00     -135.768      -92.703      -31.924       59.210       73.586       40.848     3505.770     5414.878     1668.549        1.932        0.529      164.398       32.818        0.040      342.260       17.544      858.409
09/25/2014  02:53:00     -115.890     -180.378        0.635       51.998      101.304       36.006     2703.815    10262.543     1296.452        3.011        0.713      214.399       28.934        0.018      342.252       17.530      858.348
09/25/2014  02:54:00     -111.245     -238.333      -15.491       73.061       80.744       41.181     5337.873     6519.580     1695.892        4.148        0.678      263.018       36.500        0.019      342.453       17.869      858.324
09/25/2014  02:55:00     -148.536     -153.433      -12.047       76.974       72.119       43.518     5924.940     5201.112     1893.797        2.938        0.651      213.553       41.998        0.039      342.399       17.779      858.296
09/25/2014  02:56:00     -128.241     -119.215        5.227       81.476       77.791       44.590     6638.350     6051.489     1988.272        2.268        0.734      175.094       44.608        0.065      342.312       17.632      858.281
09/25/2014  02:57:00     -220.129      -96.631      -16.683       82.318       90.873       37.536     6776.328     8257.873     1408.965        3.726        0.822      240.404       40.305        0.028      342.404       17.785      858.219
09/25/2014  02:58:00     -126.713     -122.700        2.470       82.619       63.314       44.280     6825.866     4008.635     1960.732        2.195        0.640      176.384       48.710        0.076      342.415       17.806      858.165
09/25/2014  02:59:00     -115.337     -179.605        0.778       64.574       66.916       37.142     4169.843     4477.759     1379.523        2.779        0.501      213.450       29.234        0.019      342.485       17.924      858.185
09/25/2014  03:00:00     -115.416     -166.935      -18.572       69.330       75.466       42.270     4806.678     5695.120     1786.733        2.691        0.614      202.949       31.929        0.025      342.473       17.905      858.158
09/25/2014  03:01:00      -96.014     -162.193       -6.188       57.758       84.454       32.890     3335.959     7132.506     1081.757        2.355        0.578      188.482       35.809        0.036      342.414       17.804      858.138
09/25/2014  03:02:00     -128.132     -161.430       -9.459       64.147       64.283       34.595     4114.841     4132.331     1196.798        2.600        0.472      206.101       19.620        0.009      342.466       17.892      858.141
09/25/2014  03:03:00     -129.009     -121.814       -8.128       67.860       59.352       29.206     4604.929     3522.688      853.017        2.026        0.449      177.432       22.892        0.017      342.328       17.658      858.114
09/25/2014  03:04:00     -195.741     -104.977       -3.472       55.822       54.793       29.546     3116.138     3002.257      872.943        2.817        0.350      222.114       24.892        0.013      342.241       17.509      858.043
09/25/2014  03:05:00     -117.613      -62.961       16.098       84.271       69.199       34.890     7101.623     4788.456     1217.287        1.558        0.655      133.405       40.941        0.094      342.199       17.439      858.029
09/25/2014  03:06:00     -100.895      -95.754        5.444       62.944       56.535       40.206     3961.916     3196.200     1616.562        1.407        0.439      139.099       44.006        0.100      342.305       17.620      858.061
09/25/2014  03:07:00      -81.317     -121.986        3.717       52.508       73.151       30.479     2757.099     5351.058      929.000        1.527        0.452      146.605       33.568        0.052      342.383       17.753      858.084
09/25/2014  03:08:00      -69.443      -85.224        0.950       46.682       38.669       31.745     2179.201     1495.280     1007.755        0.838        0.234      109.934       21.435        0.038      342.386       17.759      858.076
09/25/2014  03:09:00      -81.639     -132.278       -6.008       55.592       64.658       37.583     3090.447     4180.684     1412.490        1.644        0.434      155.442       27.977        0.032      342.575       18.079      858.076
09/25/2014  03:10:00     -102.366     -174.164       -6.461       57.715       72.084       30.801     3330.988     5196.132      948.704        2.516        0.474      202.020       28.186        0.019      342.661       18.223      858.067
09/25/2014  03:11:00     -195.464     -101.729      -17.404       51.260       72.608       29.864     2627.594     5271.955      891.867        2.882        0.440      220.352       26.449        0.014      342.569       18.067      858.041
09/25/2014  03:12:00     -209.842      -95.621        8.326       91.917       70.559       42.534     8448.674     4978.621     1809.168        3.424        0.762      230.601       43.147        0.035      342.622       18.157      858.018
09/25/2014  03:13:00     -206.488      -98.570        2.983      100.240       74.154       47.913    10048.084     5498.824     2295.690        3.510        0.892      228.809       46.820        0.042      343.381       19.449      858.022
09/25/2014  03:14:00     -173.249     -154.546        6.254       74.011       79.520       45.389     5477.662     6323.499     2060.203        3.390        0.693      232.163       38.920        0.028      343.419       19.513      858.068
09/25/2014  03:15:00     -230.513     -159.700      -11.664       78.021       93.505       52.503     6087.286     8743.120     2756.543        4.818        0.879      280.428       44.642        0.025      343.190       19.124      858.089
09/25/2014  03:16:00     -171.873     -143.894      -15.059       69.607       39.304       35.992     4845.179     1544.820     1295.429        2.908        0.384      224.156       29.703        0.018      342.857       18.556      858.075
09/25/2014  03:17:00     -194.342     -102.111        2.616       72.400       57.232       35.389     5241.766     3275.489     1252.373        2.898        0.488      219.534       30.615        0.019      342.778       18.422      858.052
09/25/2014  03:18:00      -87.929      -82.822       14.956       80.127       49.894       35.580     6420.389     2489.386     1265.947        1.249        0.509      120.793       35.742        0.088      342.749       18.374      858.052
09/25/2014  03:19:00     -110.655     -136.905        3.031       64.425       76.635       38.240     4150.537     5872.992     1462.292        2.124        0.574      176.032       30.703        0.030      342.700       18.290      858.049
09/25/2014  03:20:00     -124.914      -98.907       -1.255       66.729       36.969       26.705     4452.733     1366.743      713.146        1.596        0.327      159.330       27.981        0.031      342.584       18.095      858.022
09/25/2014  03:21:00     -101.828     -123.893      -13.567       54.465       63.308       34.804     2966.457     4007.855     1211.317        1.704        0.409      160.369       23.340        0.021      342.496       17.946      857.983
09/25/2014  03:22:00     -105.663     -106.027        0.205       53.347       58.528       32.000     2845.871     3425.499     1024.013        1.485        0.365      149.688       35.692        0.057      342.365       17.722      857.955
09/25/2014  03:23:00      -87.164     -104.693       -1.738       47.489       44.658       35.752     2255.207     1994.309     1278.210        1.204        0.276      136.228       19.614        0.021      342.394       17.772      857.952
09/25/2014  03:24:00     -131.775      -73.811      -12.734       54.325       57.198       33.392     2951.199     3271.612     1115.049        1.516        0.367      151.039       30.694        0.041      342.343       17.686      857.936
09/25/2014  03:25:00      -80.202      -65.659        3.137       53.371       39.379       27.152     2848.412     1550.676      737.224        0.794        0.257      103.651       20.546        0.039      342.259       17.543      857.924
09/25/2014  03:26:00     -108.544      -97.748        2.104       71.464       67.455       37.725     5107.121     4550.149     1423.200        1.621        0.554      146.070       29.974        0.042      342.344       17.687      857.934
09/25/2014  03:27:00     -128.347     -160.592       -3.705       60.969       86.275       33.638     3717.239     7443.379     1131.541        2.728        0.615      205.579       34.860        0.029      342.366       17.722      857.966
09/25/2014  03:28:00     -170.350     -118.921        2.375       80.945       84.174       41.655     6552.145     7085.311     1735.107        2.927        0.769      207.753       49.150        0.056      342.287       17.589      857.953
09/25/2014  03:29:00     -161.159     -107.837       -7.471       66.979       51.998       34.986     4486.237     2703.825     1224.012        2.303        0.421      193.910       27.654        0.020      342.180       17.408      857.927
09/25/2014  03:30:00     -121.396      -71.066        2.402       66.310       64.326       39.626     4397.063     4137.792     1570.206        1.495        0.505      140.667       43.671        0.096      342.162       17.378      857.930
09/25/2014  03:31:00     -130.881     -118.471        7.365       88.451       67.230       46.120     7823.602     4519.824     2127.019        2.284        0.724      176.536       49.434        0.078      342.204       17.448      857.955
09/25/2014  03:32:00     -161.366      -93.514       -0.368       80.818       60.215       39.759     6531.573     3625.788     1580.800        2.326        0.587      186.504       29.335        0.025      342.252       17.530      857.977
09/25/2014  03:33:00     -178.601      -72.899        9.941       87.166       57.994       42.983     7597.918     3363.268     1847.495        2.506        0.640      192.906       40.432        0.044      342.150       17.356      857.980
09/25/2014  03:34:00     -145.738      -94.601        4.634      103.150       49.413       42.306    10640.010     2441.646     1789.789        2.254        0.744      173.750       44.662        0.066      342.127       17.317      857.957
09/25/2014  03:35:00      -71.609     -138.794        6.421       55.959       74.763       34.189     3131.410     5589.480     1168.918        1.716        0.494      156.178       36.062        0.053      342.226       17.486      857.937
09/25/2014  03:36:00     -115.304     -151.938       -0.990       57.448       51.329       39.268     3300.259     2634.713     1541.951        2.193        0.374      190.736       25.805        0.018      342.195       17.432      857.930
09/25/2014  03:37:00     -107.242      -93.398       -1.859       62.526       37.900       32.931     3909.496     1436.398     1084.437        1.333        0.322      142.211       30.266        0.045      342.116       17.300      857.941
09/25/2014  03:38:00      -93.040     -123.498       -8.220       64.552       57.693       31.772     4167.013     3328.538     1009.470        1.624        0.425      154.623       29.094        0.035      342.190       17.427      857.972
09/25/2014  03:39:00      -99.745      -95.239       -3.271       67.151       54.894       36.206     4509.319     3013.337     1310.853        1.393        0.442      137.911       34.353        0.062      342.044       17.176      857.970
09/25/2014  03:40:00      -88.319      -49.391      -10.905       45.915       37.024       22.402     2108.205     1370.811      501.829        0.717        0.199      101.192       23.747        0.055      341.993       17.091      857.912
09/25/2014  03:41:00     -101.260      -81.689        4.590       63.444       54.728       31.150     4025.131     2995.136      970.292        1.247        0.400      130.103       27.895        0.046      341.911       16.952      857.882
09/25/2014  03:42:00     -122.449     -120.514       -0.040       66.129       57.166       39.816     4373.006     3267.970     1585.342        1.937        0.461      171.806       40.341        0.055      341.946       17.009      857.908
09/25/2014  03:43:00      -95.369     -105.446       -2.720       52.288       53.916       30.985     2734.051     2906.938      960.049        1.341        0.330      142.177       31.192        0.048      341.978       17.064      857.898
09/25/2014  03:44:00      -65.147      -52.990        4.338       50.034       47.281       26.837     2503.431     2235.482      720.238        0.626        0.273       83.976       26.988        0.103      341.920       16.968      857.864
09/25/2014  03:45:00     -138.003     -142.204       -9.103       53.491       51.492       30.074     2861.275     2651.474      904.457        2.288        0.321      198.158       29.068        0.022      341.923       16.970      857.880
09/25/2014  03:46:00     -189.434     -125.123      -11.708       56.541       54.037       31.868     3196.922     2920.045     1015.580        2.940        0.357      227.027       23.520        0.011      341.962       17.034      857.879
09/25/2014  03:47:00     -140.660      -43.303        2.475       47.054       56.798       23.339     2214.051     3225.990      544.700        1.382        0.299      147.175       24.318        0.027      341.914       16.955      857.833
09/25/2014  03:48:00     -109.298      -60.742       -0.440       54.950       34.224       22.665     3019.552     1171.285      513.697        1.017        0.235      125.043       23.549        0.035      341.818       16.796      857.801
09/25/2014  03:49:00     -173.881     -106.273       -5.339       53.539       49.942       25.780     2866.380     2494.230      664.633        2.379        0.301      203.785       27.066        0.018      341.998       17.098      857.777
09/25/2014  03:50:00     -115.690     -122.378       -1.003       60.291       71.803       33.108     3635.011     5155.710     1096.170        1.912        0.494      168.406       30.525        0.033      341.979       17.066      857.788
09/25/2014  03:51:00     -119.752      -94.692        7.431       73.910       56.957       38.640     5462.660     3244.058     1493.050        1.678        0.510      152.666       40.635        0.071      341.986       17.078      857.801
09/25/2014  03:52:00     -175.809      -82.679       -1.996       74.886       53.114       33.677     5607.878     2821.081     1134.162        2.365        0.478      194.280       38.109        0.038      341.861       16.865      857.781
09/25/2014  03:53:00     -133.924      -48.592        3.895       67.449       60.931       37.553     4549.303     3712.527     1410.241        1.499        0.484      142.467       37.805        0.070      341.760       16.696      857.755
09/25/2014  03:54:00     -141.605      -38.705        9.687       69.716       53.305       35.120     4860.329     2841.436     1233.397        1.529        0.447      146.799       36.136        0.061      341.742       16.664      857.721
09/25/2014  03:55:00     -161.720      -38.849        3.355       57.169       40.196       30.119     3268.316     1615.711      907.146        1.673        0.290      166.321       26.549        0.025      341.653       16.514      857.706
09/25/2014  03:56:00     -118.549      -72.752       -0.848       83.248       59.468       34.460     6930.179     3536.397     1187.476        1.550        0.583      139.092       34.517        0.062      341.541       16.324      857.720
09/25/2014  03:57:00     -146.262     -112.596       -4.725       71.322       48.151       33.159     5086.802     2318.514     1099.504        2.130        0.425      184.582       33.251        0.032      341.657       16.521      857.722
09/25/2014  03:58:00     -148.943      -97.782       -3.733       59.951       53.711       33.899     3594.110     2884.884     1149.158        1.969        0.381      178.172       30.384        0.029      341.606       16.434      857.718
09/25/2014  03:59:00      -73.946      -52.799        5.673       57.908       28.893       23.990     3353.341      834.789      575.532        0.653        0.238       90.861       31.238        0.118      341.488       16.234      857.720
09/25/2014  04:00:00      -23.140      -98.896       -2.786       35.877       46.301       17.084     1287.129     2143.786      291.867        0.702        0.186      101.567        9.728        0.009      341.717       16.623      857.689
09/25/2014  04:01:00      -85.969      -59.142       -4.494       38.199       29.230       20.304     1459.188      854.386      412.235        0.682        0.136      104.348       13.051        0.016      341.672       16.548      857.657
09/25/2014  04:02:00      -40.817      -42.345        8.540       53.692       24.845       18.267     2882.821      617.263      333.699        0.368        0.192       58.814       17.424        0.088      341.501       16.257      857.653
09/25/2014  04:03:00      -47.233      -84.265        0.744       34.890       54.856       16.980     1217.341     3009.214      288.321        0.692        0.226       96.600       19.205        0.040      341.507       16.268      857.672
09/25/2014  04:04:00     -116.143     -144.816      -12.136       55.055       52.958       25.127     3031.069     2804.529      631.385        2.054        0.323      185.637       19.498        0.011      341.622       16.460      857.661
09/25/2014  04:05:00     -108.839     -148.114       -0.914       70.650       74.112       36.634     4991.405     5492.538     1342.034        2.280        0.591      183.803       41.166        0.050      341.633       16.478      857.655
09/25/2014  04:06:00     -151.356      -61.871        0.193       66.319       44.357       36.175     4398.203     1967.525     1308.623        1.720        0.384      163.514       35.299        0.047      341.727       16.639      857.667
09/25/2014  04:07:00     -102.263      -45.795       -4.697       52.025       32.803       31.922     2706.576     1076.038     1018.992        0.869        0.240      112.048       31.143        0.077      341.706       16.604      857.666
09/25/2014  04:08:00     -111.112      -50.343       -1.634       48.689       31.109       20.591     2370.576      967.785      424.008        0.932        0.188      121.984       22.159        0.033      341.600       16.425      857.687
09/25/2014  04:09:00      -87.930      -81.562       -5.698       62.217       40.509       27.414     3870.914     1640.999      751.538        1.034        0.313      119.933       25.067        0.044      341.694       16.585      857.691
09/25/2014  04:10:00     -112.645      -81.004       12.685       79.384       60.986       40.703     6301.745     3719.329     1656.705        1.554        0.584      138.746       44.859        0.105      341.536       16.316      857.720
09/25/2014  04:11:00     -124.372      -54.461        5.735       73.843       51.882       33.810     5452.856     2691.727     1143.119        1.388        0.464      135.773       33.864        0.062      341.483       16.226      857.723
09/25/2014  04:12:00      -46.429      -45.760       17.620       58.992       39.650       31.818     3480.015     1572.144     1012.406        0.531        0.303       65.189       29.653        0.207      341.481       16.223      857.702
09/25/2014  04:13:00      -18.542     -105.452        3.051       34.584       45.626       20.873     1196.054     2081.742      435.694        0.759        0.186      107.070       20.480        0.037      341.540       16.323      857.695
09/25/2014  04:14:00      -38.159      -69.742       22.058       76.906       78.596       38.235     5914.553     6177.326     1461.890        1.018        0.678       79.499       46.531        0.343      341.427       16.131      857.689
09/25/2014  04:15:00      -16.375      -81.324        6.003       41.307       65.232       28.285     1706.277     4255.160      800.045        0.684        0.338       82.956       26.388        0.101      341.567       16.367      857.649
09/25/2014  04:16:00        7.514      -43.686        3.207       26.896       45.457       19.387      723.385     2066.335      375.871        0.257        0.158       44.327       22.428        0.256      341.540       16.323      857.624
09/25/2014  04:17:00      -28.908      -18.623        2.883       33.242       17.916       12.346     1105.044      320.977      152.426        0.138        0.079       34.388       10.770        0.098      341.485       16.230      857.634
09/25/2014  04:18:00      -32.794      -10.868        5.283       34.724       14.200       10.063     1205.751      201.637      101.262        0.136        0.075       34.548       11.131        0.104      341.413       16.107      857.648
09/25/2014  04:19:00       -8.022      -33.967       -7.057       50.492       39.248       18.877     2549.435     1540.400      356.348        0.286        0.222       34.901       21.491        0.379      341.366       16.028      857.661
09/25/2014  04:20:00       31.042      -93.204      -29.172       36.521       30.080       19.337     1333.774      904.820      373.938        0.656        0.131       98.237       19.406        0.039      341.393       16.074      857.687
09/25/2014  04:21:00      -19.991       -8.017       -6.053       25.971       32.617       21.116      674.495     1063.900      445.888        0.134        0.109       21.538        9.803        0.207      341.511       16.273      857.716
09/25/2014  04:22:00        0.275      -20.203       11.059       25.922       26.606       17.846      671.974      707.900      318.470        0.111        0.085       20.204       17.453        0.746      341.442       16.158      857.690
09/25/2014  04:23:00       29.739       21.884       11.095       15.613       29.926       21.417      243.756      895.569      458.692        0.154        0.080       36.924       19.908        0.291      341.108       15.592      857.642
09/25/2014  04:24:00        5.462       29.951       -3.530       23.270       20.983       10.874      541.476      440.300      118.244        0.102        0.055       30.445        9.457        0.096      341.443       16.160      857.639
09/25/2014  04:25:00       58.560      -36.843        9.809       55.840       42.150       28.465     3118.092     1776.600      810.234        0.529        0.285       69.186       23.362        0.114      341.448       16.167      857.631
09/25/2014  04:26:00       15.181      -67.829        3.836       30.492       40.620       27.990      929.789     1649.974      783.447        0.410        0.168       69.507       19.738        0.081      341.366       16.029      857.633
09/25/2014  04:27:00       20.089      -73.167      -13.359       41.908       49.621       31.402     1756.281     2462.229      986.070        0.557        0.260       75.874       21.150        0.078      341.541       16.326      857.650
09/25/2014  04:28:00       67.009     -101.504       -6.528       53.447       65.800       40.042     2856.538     4329.590     1603.330        1.181        0.439      121.627       35.114        0.083      341.512       16.276      857.662
09/25/2014  04:29:00       73.838     -103.665       -5.179       77.562       74.810       45.054     6015.896     5596.601     2029.837        1.493        0.682      127.273       49.020        0.148      341.557       16.352      857.668
09/25/2014  04:30:00       -1.826      -44.293       -2.227       26.934       23.483       17.154      725.416      551.473      294.245        0.177        0.079       44.330       13.870        0.098      342.003       17.107      857.675
09/25/2014  04:31:00      -88.203      -69.185        2.311       50.699       54.878       28.794     2570.355     3011.631      829.078        0.949        0.321      112.100       25.088        0.050      341.237       15.811      857.665
09/25/2014  04:32:00     -104.918     -206.731      -18.250       40.401       54.026       19.846     1632.221     2918.858      393.847        2.951        0.247      231.831       16.934        0.005      342.048       17.181      857.660
09/25/2014  04:33:00       -0.407     -112.958       -3.929       85.350       64.193       27.995     7284.629     4120.684      783.721        1.248        0.609      112.959       27.062        0.057      342.052       17.191      857.645
09/25/2014  04:34:00       24.274      -51.406       -9.989       55.075       32.514       31.065     3033.296     1057.177      965.049        0.419        0.253       56.849       17.905        0.099      341.700       16.593      857.642
09/25/2014  04:35:00     -202.892      -51.202       -7.810      105.195       85.536       43.402    11066.027     7316.431     1883.699        3.205        1.013      209.253       46.753        0.050      341.521       16.289      857.684
09/25/2014  04:36:00     -100.249      -76.418       -0.400       61.429       53.638       30.950     3773.483     2877.036      957.927        1.175        0.380      126.054       26.266        0.043      341.524       16.296      857.721
09/25/2014  04:37:00     -147.107      -50.505       -1.867       57.197       46.642       28.110     3271.450     2175.509      790.166        1.521        0.312      155.535       29.232        0.035      341.674       16.551      857.715
09/25/2014  04:38:00     -123.648      -11.827       -5.094       48.733       45.405       31.994     2374.901     2061.571     1023.647        1.046        0.273      124.212       28.620        0.053      341.471       16.207      857.715
09/25/2014  04:39:00     -167.791      -47.515       -4.664       95.700       72.630       42.990     9158.421     5275.129     1848.117        2.335        0.814      174.389       47.178        0.073      341.257       15.841      857.732
09/25/2014  04:40:00     -110.195      -20.073       -3.979       58.084       48.065       23.554     3373.724     2310.215      554.804        0.940        0.312      112.008       24.766        0.049      341.379       16.050      857.756
09/25/2014  04:41:00     -157.101      -34.248       -1.666       43.345       41.887       29.711     1878.766     1754.494      882.752        1.519        0.226      160.791       29.985        0.035      341.547       16.335      857.787
09/25/2014  04:42:00     -126.256      -89.048        6.980       89.581       84.715       48.205     8024.702     7176.585     2323.740        2.072        0.876      154.499       54.642        0.125      341.871       16.882      857.801
09/25/2014  04:43:00      -95.429      -72.149       16.057       76.376       80.377       52.206     5833.268     6460.431     2725.465        1.479        0.751      119.634       42.079        0.124      341.980       17.070      857.853
09/25/2014  04:44:00      -56.212     -180.602        6.077      111.541      112.553       49.568    12441.330    12668.152     2456.938        3.169        1.378      189.147       54.278        0.082      342.135       17.330      857.877
09/25/2014  04:45:00      -73.418     -109.823        2.803       56.013       48.354       32.648     3137.475     2338.139     1065.888        1.200        0.327      132.103       22.411        0.029      342.078       17.235      857.895
09/25/2014  04:46:00      -31.181     -131.778       -3.900       58.825       51.913       29.361     3460.352     2694.954      862.095        1.268        0.351      135.416       16.189        0.014      342.144       17.347      857.928
09/25/2014  04:47:00       49.466      -52.344       -8.300       55.674       70.575       41.129     3099.648     4980.884     1691.618        0.751        0.489       72.019       39.851        0.306      341.527       16.301      857.908
09/25/2014  04:48:00        3.260      -13.506        0.174       45.303       42.535       31.552     2052.351     1809.188      995.536        0.252        0.243       13.894       33.626        5.857      341.535       16.316      857.931
09/25/2014  04:49:00       48.134      -52.196       15.273       36.363       40.706       35.328     1322.245     1656.938     1248.102        0.475        0.211       71.002       25.105        0.125      341.702       16.599      857.923
09/25/2014  04:50:00       58.283      -43.715       16.905       60.593       49.807       31.990     3671.513     2480.711     1023.331        0.638        0.359       72.855       33.877        0.216      341.576       16.384      857.908
09/25/2014  04:51:00       36.936      -12.155       26.465       38.157       40.928       27.906     1455.957     1675.109      778.727        0.306        0.195       38.884       22.634        0.339      341.177       15.709      857.915
09/25/2014  04:52:00      -28.197     -135.413       -7.920       96.647       45.765       27.188     9340.597     2094.467      739.173        1.568        0.609      138.318       31.097        0.051      342.809       18.476      857.929
09/25/2014  04:53:00     -179.142      -48.915      -11.422      112.018       46.634       34.813    12547.958     2174.715     1211.970        2.527        0.797      185.700       46.153        0.062      341.604       16.430      857.951
09/25/2014  04:54:00      -75.701        6.395       -1.298       48.280       30.349       23.156     2330.963      921.052      536.183        0.478        0.189       75.970       23.768        0.098      341.376       16.045      857.934
09/25/2014  04:55:00     -102.247      -19.553       -7.757       33.215       30.198       17.852     1103.233      911.898      318.709        0.661        0.117      104.100       14.248        0.019      341.430       16.136      857.955
09/25/2014  04:56:00     -156.911        3.384      -14.290       64.782       60.775       38.307     4196.750     3693.646     1467.447        1.710        0.468      156.948       36.630        0.054      341.246       15.825      858.001
09/25/2014  04:57:00     -173.040       -7.188      -12.296       63.323       69.026       29.066     4009.847     4764.535      844.836        1.988        0.481      173.189       28.656        0.027      341.103       15.582      858.027
09/25/2014  04:58:00     -292.758       45.656      -37.539      114.989      121.432       58.455    13222.413    14745.762     3416.995        6.029        1.569      296.296       61.879        0.044      342.660       18.222      857.965
09/25/2014  04:59:00     -141.287       44.405      -12.900       97.140       93.764       55.299     9436.227     8791.702     3057.927        2.169        1.064      148.100       60.820        0.169      342.602       18.125      857.948
09/25/2014  05:00:00      -77.085      -88.230        9.235       68.984       45.226       41.132     4758.751     2045.374     1691.834        1.115        0.425      117.161       43.136        0.136      342.329       17.662      857.955
09/25/2014  05:01:00     -167.109     -123.654       10.053       92.967       78.319       53.698     8642.911     6133.916     2883.525        3.049        0.883      207.884       46.606        0.050      342.395       17.773      857.975
09/25/2014  05:02:00     -151.673      -90.658       -9.687       60.194       50.105       32.285     3623.338     2510.499     1042.335        1.925        0.359      176.702       31.643        0.032      342.273       17.567      857.981
09/25/2014  05:03:00     -106.667      -55.020        2.028       57.545       42.125       21.333     3311.477     1774.521      455.101        0.997        0.277      120.022       29.497        0.060      342.101       17.275      857.991
09/25/2014  05:04:00      -62.935      -50.237        5.143       56.150       34.805       22.898     3152.775     1211.423      524.320        0.570        0.244       80.527       26.270        0.106      342.125       17.317      857.998
09/25/2014  05:05:00      -88.354     -130.547        3.851       79.114       48.285       34.680     6258.969     2331.467     1202.736        1.733        0.490      157.635       40.565        0.066      342.500       17.952      857.981
09/25/2014  05:06:00      -29.128      -51.720       19.310       60.094       81.526       36.063     3611.303     6646.513     1300.546        0.773        0.578       59.358       36.215        0.372      342.339       17.678      857.971
09/25/2014  05:07:00      -20.635       -4.024        9.371       70.366       34.458       24.661     4951.358     1187.387      608.174        0.364        0.337       21.024       29.914        2.025      341.919       16.966      857.970
09/25/2014  05:08:00       35.126       -9.993       22.424       31.506       26.221       18.897      992.634      687.527      357.111        0.194        0.102       36.519        8.295        0.052      341.530       16.305      857.949
09/25/2014  05:09:00       -6.018       19.676        8.663       33.916       16.999       18.765     1150.289      288.952      352.134        0.114        0.090       20.576       17.179        0.697      341.257       15.845      857.946
09/25/2014  05:10:00      -87.416      -17.538       -8.819       37.923       29.256       16.870     1438.190      855.941      284.596        0.530        0.129       89.158       10.724        0.014      341.675       16.552      857.995
09/25/2014  05:11:00       -7.855      -29.966        2.747       29.839       26.389       18.016      890.366      696.405      324.587        0.144        0.096       30.979       14.913        0.232      341.526       16.300      857.970
09/25/2014  05:12:00       46.336      -41.643        6.821       46.867       23.530       15.487     2196.525      553.640      239.861        0.346        0.150       62.299       11.024        0.031      341.515       16.283      857.932
09/25/2014  05:13:00       62.740      -41.782       13.546       65.893       79.002       34.349     4341.921     6241.315     1179.872        0.881        0.588       75.380       50.594        0.450      341.465       16.196      857.901
09/25/2014  05:14:00      -40.725       12.937       -9.721       24.479       35.768       16.582      599.209     1279.360      274.976        0.204        0.108       42.730       12.528        0.086      341.389       16.068      857.909
09/25/2014  05:15:00      -79.500       -8.589       -0.745       41.670       24.344       21.409     1736.404      592.613      458.358        0.459        0.139       79.962       13.661        0.029      341.597       16.420      857.934
09/25/2014  05:16:00      -67.270       44.218       -5.935       46.811       46.739       25.615     2191.243     2184.493      656.128        0.577        0.252       80.501       27.607        0.118      341.506       16.266      857.924
09/25/2014  05:17:00     -103.185        9.607      -11.557       31.775       63.906       23.021     1009.637     4084.032      529.960        0.825        0.281      103.632       22.551        0.047      342.290       17.596      857.915
09/25/2014  05:18:00     -115.240      -30.659        0.521       45.069       47.330       22.796     2031.245     2240.123      519.637        0.951        0.240      119.249       21.007        0.031      341.676       16.554      857.903
09/25/2014  05:19:00      -98.727      -19.279       -2.305       85.474       47.029       30.066     7305.876     2211.736      903.980        1.027        0.521      100.592       34.455        0.117      341.825       16.806      857.876
09/25/2014  05:20:00     -111.234      -29.019        1.398       64.675       69.739       35.935     4182.838     4863.570     1291.345        1.178        0.517      114.957       30.429        0.070      342.044       17.177      857.857
09/25/2014  05:21:00     -165.744      -94.842       -6.684       95.818       64.043       40.133     9181.074     4101.530     1610.627        2.570        0.745      190.961       48.113        0.063      342.129       17.320      857.816
09/25/2014  05:22:00      -81.963      -91.411        3.070       78.933       75.970       38.957     6230.441     5771.434     1517.660        1.430        0.676      122.776       45.755        0.139      342.017       17.133      857.779
09/25/2014  05:23:00     -115.787      -44.517       -2.561       39.042       23.791       23.139     1524.278      566.009      535.398        0.901        0.131      124.050       16.971        0.019      341.943       17.007      857.775
09/25/2014  05:24:00      -55.633      -23.698        3.747       35.650       30.528       16.212     1270.915      931.944      262.835        0.307        0.123       60.470       14.108        0.054      341.749       16.677      857.775
09/25/2014  05:25:00       -9.821      -60.058        0.994       42.461       20.115       17.167     1802.934      404.619      294.700        0.310        0.125       60.855        6.965        0.013      341.534       16.313      857.767
09/25/2014  05:26:00       35.116       -5.747       13.986       23.150       17.476       21.115      535.936      305.423      445.850        0.137        0.064       35.583       11.086        0.097      341.048       15.491      857.739
09/25/2014  05:27:00       55.292       26.141        8.260       26.557       25.268       20.786      705.281      638.468      432.042        0.279        0.089       61.161       12.749        0.043      340.847       15.150      857.729
09/25/2014  05:28:00       69.261        2.778      -12.670       41.449       37.177       21.291     1717.992     1382.154      453.323        0.426        0.178       69.317       19.048        0.076      341.134       15.637      857.680
09/25/2014  05:29:00      -65.328        2.827      -23.149       34.694       10.071       12.998     1203.703      101.427      168.941        0.314        0.074       65.389        3.478        0.003      341.645       16.502      857.690
09/25/2014  05:30:00     -118.218      -10.264      -11.986       49.205       39.078       15.266     2421.179     1527.115      233.065        0.920        0.209      118.662       16.397        0.019      341.581       16.393      857.719
09/25/2014  05:31:00        8.600      -57.156       14.905       63.336       38.815       26.323     4011.497     1506.607      692.904        0.489        0.311       57.799       27.511        0.227      342.122       17.311      857.718
09/25/2014  05:32:00      -30.542       35.116       -5.005       35.038       20.159       11.396     1227.660      406.369      129.876        0.198        0.088       46.540       11.540        0.061      341.835       16.823      857.732
09/25/2014  05:33:00       -0.256      -65.890        8.326       47.557       27.524       25.153     2261.701      757.544      632.653        0.403        0.183       65.890       15.081        0.052      341.863       16.872      857.720
09/25/2014  05:34:00        2.397      -31.986       13.274       43.729       48.093       30.956     1912.204     2312.900      958.302        0.319        0.259       32.076       27.535        0.737      341.756       16.690      857.737
09/25/2014  05:35:00        9.235       15.503       25.216       13.052       13.990       12.206      170.364      195.722      148.978        0.074        0.026       18.045        3.890        0.046      341.269       15.864      857.713
09/25/2014  05:36:00        2.560        4.024       -3.678        6.625        9.292        6.961       43.889       86.336       48.462        0.011        0.009        4.769        5.499        1.330      341.778       16.727      857.683
09/25/2014  05:37:00       53.903      -18.194       13.151       28.683       22.421       20.683      822.709      502.681      427.770        0.258        0.088       56.890       14.854        0.068      341.396       16.081      857.694
09/25/2014  05:38:00       53.465      -27.951       13.800       28.643       18.316       16.738      820.436      335.459      280.174        0.263        0.072       60.331       11.318        0.035      341.136       15.641      857.752
09/25/2014  05:39:00       68.799      -28.517       15.109       38.517       31.900       28.394     1483.542     1017.611      806.208        0.454        0.165       74.475       17.251        0.054      341.197       15.743      857.784
09/25/2014  05:40:00        9.435       14.529       38.418       29.692       37.936       21.515      881.605     1439.133      462.904        0.228        0.139       17.323       16.233        0.878      341.043       15.482      857.798
09/25/2014  05:41:00       29.561       66.989       72.622       50.312       37.766       28.379     2531.330     1426.278      805.391        0.770        0.238       73.221       20.425        0.078      340.845       15.146      857.761
09/25/2014  05:42:00       42.769       -4.910       18.219       33.686       36.845       30.959     1134.759     1357.581      958.468        0.282        0.173       43.050       25.454        0.350      341.082       15.548      857.744
09/25/2014  05:43:00       46.662      -41.995       -8.250       28.441       23.378       16.715      808.910      546.539      279.398        0.282        0.082       62.777       10.991        0.031      341.546       16.334      857.747
09/25/2014  05:44:00      -45.915       -1.655       -6.765       19.762       10.700        9.611      390.539      114.497       92.380        0.138        0.030       45.945       10.779        0.055      341.828       16.812      857.773
09/25/2014  05:45:00       -4.093      -14.375        2.071       13.719       12.739       15.033      188.224      162.271      225.996        0.040        0.029       14.946        9.202        0.379      341.948       17.014      857.819
09/25/2014  05:46:00       29.020        3.371       16.742       36.376       15.864       18.594     1323.244      251.654      345.750        0.153        0.096       29.216        9.676        0.110      341.218       15.778      857.872
09/25/2014  05:47:00      102.459       -3.948       19.056       25.075       18.937       21.206      628.737      358.605      449.691        0.616        0.072      102.535       15.746        0.024      341.339       15.982      857.871
09/25/2014  05:48:00       78.500       89.355       74.394       46.170       49.956       52.532     2131.663     2495.593     2759.638        1.353        0.369      118.940       37.890        0.101      341.388       16.067      857.817
09/25/2014  05:49:00       57.720      164.396      134.440       55.575       43.460       37.104     3088.546     1888.741     1376.721        2.739        0.318      174.235       26.090        0.022      341.990       17.082      857.748
09/25/2014  05:50:00      119.717      139.640      106.181      118.225       68.923       61.156    13977.197     4750.370     3740.069        3.378        1.123      183.934       69.123        0.141      342.399       17.778      857.726
09/25/2014  05:51:00       37.905       30.564       42.194       63.583       67.549       43.921     4042.799     4562.897     1929.021        0.734        0.527       48.692       45.364        0.868      342.058       17.203      857.756
09/25/2014  05:52:00       11.416       18.871       60.390       43.561       67.018       44.650     1897.560     4491.350     1993.649        0.626        0.419       22.055       40.939        3.445      341.924       16.976      857.783
09/25/2014  05:53:00       63.935      -86.617       -7.253       41.893       69.013       39.401     1755.063     4762.845     1552.413        0.986        0.404      107.658       35.450        0.108      341.939       16.999      857.828
09/25/2014  05:54:00      107.404     -127.433       -5.402       64.851       66.790       40.238     4205.681     4460.934     1619.062        1.904        0.514      166.658       42.556        0.065      342.034       17.159      857.890
09/25/2014  05:55:00       79.201     -128.639        9.660       66.235       96.529       57.667     4387.051     9317.798     3325.436        1.997        0.852      151.066       56.170        0.138      342.114       17.295      857.949
09/25/2014  05:56:00      113.249      -81.184       28.644       67.629      100.382       54.524     4573.749    10076.640     2972.853        1.893        0.881      139.342       59.641        0.183      342.039       17.169      857.934
09/25/2014  05:57:00       32.029       15.844       62.852       51.324       59.446       41.937     2634.180     3533.842     1758.740        0.658        0.396       35.734       43.640        1.491      341.862       16.870      857.845
09/25/2014  05:58:00       42.793       64.553       63.218       52.897       66.000       46.663     2798.123     4355.962     2177.459        0.966        0.467       77.448       43.240        0.312      341.999       17.101      857.790
09/25/2014  05:59:00       49.561       98.211       90.408       59.515       42.846       45.675     3542.061     1835.760     2086.198        1.387        0.373      110.008       37.715        0.118      342.070       17.223      857.836
09/25/2014  06:00:00       55.817       86.107       95.684       65.006       57.919       49.791     4225.811     3354.647     2479.164        1.487        0.503      102.616       39.065        0.145      341.949       17.016      857.851
09/25/2014  06:01:00      139.501       88.612       67.393       81.731       57.645       57.470     6679.954     3322.955     3302.823        2.258        0.665      165.265       42.081        0.065      342.020       17.135      857.791
09/25/2014  06:02:00      101.450       48.364       44.443       68.198       49.868       46.612     4650.977     2486.832     2172.707        1.196        0.466      112.388       20.009        0.032      341.814       16.787      857.798
09/25/2014  06:03:00       30.992      -19.227       15.418       33.159       30.600       23.513     1099.493      936.363      552.881        0.208        0.129       36.472       14.674        0.162      341.507       16.267      857.821
09/25/2014  06:04:00       16.012       32.073       10.826       20.268       41.820       24.765      410.800     1748.880      613.314        0.209        0.139       35.848       14.051        0.154      341.569       16.373      857.829
09/25/2014  06:05:00       74.195        4.600       17.380       25.303       59.462       28.180      640.222     3535.748      794.116        0.540        0.249       74.337       16.366        0.048      342.075       17.232      857.842
09/25/2014  06:06:00        0.214      -67.869        0.271       36.249       33.935       18.781     1313.990     1151.587      352.729        0.371        0.141       67.870       12.782        0.035      341.985       17.078      857.884
09/25/2014  06:07:00      -18.681      -73.978       -4.638       32.907       42.360       17.116     1082.865     1794.352      292.952        0.451        0.159       76.301        7.857        0.011      341.877       16.895      857.910
09/25/2014  06:08:00        9.107       -3.068       20.719       35.406       46.179       42.258     1253.574     2132.538     1785.746        0.285        0.259        9.610       32.429       11.386      341.270       15.866      857.822
09/25/2014  06:09:00       77.244      -15.891       40.696       86.498       99.724       51.603     7481.920     9944.812     2662.866        1.398        1.004       78.862       64.121        0.661      341.092       15.564      857.820
09/25/2014  06:10:00       93.599      -42.871       -3.544       31.781       39.259       17.199     1010.003     1541.234      295.819        0.673        0.142      102.950        5.721        0.003      341.164       15.687      857.839
09/25/2014  06:11:00        7.843       90.443      -10.126       16.812       42.919       22.898      282.630     1842.030      524.302        0.550        0.132       90.783       26.975        0.088      341.158       15.679      857.814
09/25/2014  06:12:00       42.607       63.530      -12.466       34.429       50.794       30.012     1185.330     2580.045      900.726        0.534        0.233       76.494       28.992        0.144      341.074       15.535      857.809
09/25/2014  06:13:00      133.744       85.594       22.155       63.645       39.396       33.708     4050.716     1552.014     1136.230        1.622        0.337      158.788       23.679        0.022      340.980       15.374      857.829
09/25/2014  06:14:00      144.925       72.437        9.033       67.510       57.623       41.374     4557.614     3320.355     1711.774        1.796        0.479      162.020       26.439        0.027      340.797       15.064      857.867
09/25/2014  06:15:00       30.401       75.828       74.527       36.028       35.818       27.446     1297.996     1282.914      753.266        0.778        0.167       81.695       19.330        0.056      340.629       14.782      857.886
09/25/2014  06:16:00       26.753       57.855       70.988       51.663       41.837       23.651     2669.047     1750.364      559.363        0.704        0.249       63.741       16.280        0.065      340.630       14.782      857.840
09/25/2014  06:17:00       38.910       44.571       44.404       33.707       26.514       27.562     1136.156      702.969      759.670        0.404        0.130       59.166       23.807        0.162      340.511       14.580      857.798
09/25/2014  06:18:00       44.843       18.747       21.575       41.348       24.824       20.129     1709.651      616.238      405.157        0.278        0.137       48.604       13.112        0.073      340.554       14.654      857.760
09/25/2014  06:19:00      -25.698        9.304      -10.967       31.543       17.875       11.389      994.938      319.527      129.706        0.116        0.072       27.330        2.925        0.011      340.660       14.834      857.779
09/25/2014  06:20:00     -125.649      -43.615      -21.246       47.941       23.479       12.506     2298.350      551.242      156.395        1.057        0.150      133.003       14.004        0.011      340.823       15.109      857.779
09/25/2014  06:21:00      -89.522      -79.038      -13.488       40.537       24.418       22.530     1643.252      596.252      507.593        0.859        0.137      119.420       17.091        0.020      340.821       15.107      857.801
09/25/2014  06:22:00      -45.501      -35.262        4.901       32.186       29.290       21.575     1035.950      857.902      465.466        0.285        0.118       57.565       19.946        0.120      340.835       15.130      857.805
09/25/2014  06:23:00       22.753      -12.708       22.417       14.102       10.209       11.743      198.854      104.219      137.889        0.081        0.022       26.062        6.700        0.066      340.854       15.162      857.790
09/25/2014  06:24:00       25.147      -21.959        0.189       25.203       10.176       13.226      635.179      103.546      174.935        0.101        0.046       33.386        4.372        0.017      341.003       15.414      857.754
09/25/2014  06:25:00       18.760       14.832       19.357       21.610       14.042       14.109      466.974      197.170      199.065        0.090        0.043       23.915       10.774        0.203      340.589       14.713      857.716
09/25/2014  06:26:00       -2.410       18.686       22.072       33.078       25.832       19.370     1094.137      667.279      375.200        0.149        0.107       18.841       11.733        0.388      340.502       14.568      857.731
09/25/2014  06:27:00      -67.661      -14.177        1.486       43.003       22.128       17.176     1849.279      489.645      295.016        0.371        0.132       69.130       12.616        0.033      340.739       14.967      857.726
09/25/2014  06:28:00      -53.822      -44.464        7.333       45.436       29.789       25.986     2064.431      887.362      675.295        0.428        0.181       69.812       21.322        0.093      340.830       15.123      857.777
09/25/2014  06:29:00       19.202      -33.947        8.092       17.134       20.441       16.614      293.565      417.836      276.028        0.129        0.049       39.002       11.315        0.084      340.905       15.247      857.812
09/25/2014  06:30:00       44.299       19.370       43.175       46.966       31.341       35.372     2205.761      982.232     1251.165        0.432        0.222       48.349       28.583        0.349      340.492       14.550      857.792
09/25/2014  06:31:00        3.807       20.328       53.812       23.768       36.507       27.305      564.909     1332.763      745.563        0.298        0.132       20.681       20.114        0.946      340.556       14.658      857.733
09/25/2014  06:32:00       -5.803       21.870       30.123       21.614       21.058       19.050      467.185      443.430      362.910        0.135        0.064       22.627       15.268        0.455      340.803       15.075      857.689
09/25/2014  06:33:00      -51.195      -12.387       -9.180       34.686       26.333       11.870     1203.107      693.428      140.887        0.245        0.102       52.672       13.364        0.064      341.078       15.541      857.735
09/25/2014  06:34:00      -45.365      -53.361       -4.279       34.182       19.301       15.431     1168.413      372.511      238.115        0.335        0.089       70.038       18.018        0.066      341.256       15.844      857.770
09/25/2014  06:35:00        4.935      -55.965       -6.973       35.324       27.297       24.873     1247.786      745.144      618.655        0.291        0.131       56.182       17.078        0.092      341.104       15.587      857.805
09/25/2014  06:36:00        5.455       -8.939       34.274       25.531       47.829       25.393      651.815     2287.607      644.793        0.243        0.179       10.472       14.447        1.903      340.730       14.952      857.803
09/25/2014  06:37:00       58.793      -87.752       -3.752       38.119       43.637       25.781     1453.047     1904.222      664.636        0.760        0.201      105.627       25.462        0.058      340.998       15.407      857.821
09/25/2014  06:38:00       25.824      -14.072       13.407       25.406       43.655       21.542      645.466     1905.728      464.055        0.203        0.151       29.409       21.744        0.547      340.869       15.188      857.802
09/25/2014  06:39:00       21.723       -6.981        7.411       13.657       11.879       15.429      186.515      141.105      238.040        0.057        0.028       22.817       11.590        0.258      340.670       14.851      857.768
09/25/2014  06:40:00      -20.582      -10.727       -4.375       27.626       22.841       14.028      763.221      521.729      196.776        0.102        0.074       23.210       11.810        0.259      341.042       15.480      857.817
09/25/2014  06:41:00      -61.690       11.920       -9.465       23.939       25.297       18.569      573.069      639.952      344.796        0.280        0.078       62.831       12.946        0.042      341.460       16.188      857.797
09/25/2014  06:42:00      -47.275       54.337      -19.921       16.149       11.989        7.642      260.782      143.743       58.393        0.302        0.023       72.024        5.617        0.006      341.594       16.413      857.756
09/25/2014  06:43:00       -6.939       28.211       -6.560       18.998       16.903        8.769      360.917      285.716       76.889        0.081        0.036       29.052        8.453        0.085      342.144       17.349      857.746
09/25/2014  06:44:00       25.304       23.467       14.712       21.762       23.858       16.697      473.596      569.192      278.776        0.136        0.066       34.511       11.010        0.102      342.284       17.585      857.758
09/25/2014  06:45:00       55.119     -120.259      -20.610       29.090       49.684       24.115      846.248     2468.548      581.515        1.091        0.195      132.289       22.684        0.029      341.179       15.714      857.781
09/25/2014  06:46:00       -0.247      -74.358       -4.668       67.086       50.379       20.874     4500.534     2538.054      435.734        0.651        0.374       74.358       20.087        0.073      341.083       15.550      857.798
09/25/2014  06:47:00       10.169      -32.359       -4.700       31.670       25.058       21.786     1003.007      627.923      474.646        0.164        0.105       33.919       14.850        0.192      340.937       15.302      857.810
09/25/2014  06:48:00       55.022        1.615       18.257       41.851       18.939       23.339     1751.519      358.695      544.731        0.301        0.133       55.045       15.063        0.075      340.560       14.665      857.770
09/25/2014  06:49:00       -1.517      -12.400        0.871       25.575       41.447       15.009      654.081     1717.844      225.276        0.138        0.130       12.492       15.678        1.575      340.853       15.161      857.759
09/25/2014  06:50:00      -25.386      -23.962       -2.869       21.896       35.017       12.747      479.436     1226.212      162.474        0.155        0.093       34.909        8.961        0.066      341.211       15.767      857.798
09/25/2014  06:51:00       16.766        6.735       16.928       22.389       19.327       15.609      501.254      373.546      243.645        0.087        0.056       18.068       14.243        0.621      340.861       15.173      857.801
09/25/2014  06:52:00       13.160       -6.190        7.179       34.017       13.794       18.713     1157.141      190.276      350.161        0.098        0.085       14.543       19.544        1.806      340.937       15.303      857.800
09/25/2014  06:53:00        5.219       -2.712        3.958        9.120        9.320        8.905       83.168       86.869       79.302        0.015        0.012        5.882        5.739        0.952      340.997       15.403      857.804
09/25/2014  06:54:00       47.919       -6.163        3.397       24.915       11.558       14.703      620.739      133.591      216.187        0.166        0.049       48.313        6.732        0.019      341.152       15.667      857.793
09/25/2014  06:55:00       35.719       -5.277       15.814       26.419       15.932       17.145      697.969      253.825      293.966        0.140        0.062       36.107       14.744        0.167      340.869       15.187      857.827
09/25/2014  06:56:00      -10.335      -42.618       14.328       37.378       37.095       18.945     1397.122     1376.065      358.918        0.263        0.157       43.854       15.576        0.126      341.998       17.102      857.818
09/25/2014  06:57:00      -66.627       22.829      -10.982       31.755       43.602       19.530     1008.401     1901.166      381.421        0.419        0.165       70.430       11.973        0.029      342.092       17.261      857.770
09/25/2014  06:58:00     -138.780      -18.591      -22.050       35.690       19.425       16.950     1273.800      377.337      287.317        1.101        0.097      140.020       11.882        0.007      341.194       15.738      857.754
09/25/2014  06:59:00      -92.601       14.336      -23.128       84.228       39.066       21.655     7094.412     1526.165      468.922        0.920        0.454       93.704       30.802        0.108      341.277       15.876      857.737
09/25/2014  07:00:00      -42.735      -32.438        0.507       53.214       23.414       19.072     2831.691      548.230      363.760        0.331        0.187       53.652       22.222        0.172      341.045       15.486      857.760
09/25/2014  07:01:00      -44.780      -25.995       -5.902       39.730       29.973       17.169     1578.500      898.378      294.764        0.274        0.139       51.779       10.038        0.038      340.974       15.365      857.779
09/25/2014  07:02:00      -80.918      -39.583      -12.137       28.714       24.512       17.541      824.470      600.844      307.673        0.500        0.087       90.081       10.798        0.014      341.122       15.615      857.778
09/25/2014  07:03:00      -97.468      -40.236       -9.305       16.809       30.566       12.374      282.527      934.302      153.108        0.629        0.068      105.446       10.043        0.009      340.866       15.181      857.800
09/25/2014  07:04:00      -43.095       10.782       -5.870       29.308       19.034       12.483      858.968      362.278      155.828        0.169        0.069       44.423        6.471        0.021      341.431       16.138      857.785
09/25/2014  07:05:00      -31.582        6.575      -11.769       24.835       28.656       10.466      616.792      821.172      109.533        0.136        0.077       32.259        6.202        0.037      341.606       16.434      857.755
09/25/2014  07:06:00      -42.263      -40.932       -6.947       38.381       14.499       11.299     1473.128      210.208      127.666        0.266        0.091       58.836       14.336        0.059      341.226       15.790      857.761
09/25/2014  07:07:00       28.705      -19.685        7.564       29.085       24.122       23.442      845.947      581.847      549.538        0.162        0.099       34.807       14.418        0.172      340.836       15.132      857.776
09/25/2014  07:08:00       35.999      -21.597        9.542       32.338       17.506       14.031     1045.726      306.443      196.855        0.170        0.077       41.980       13.728        0.107      340.741       14.972      857.822
09/25/2014  07:09:00       -1.637      -32.777       -7.470       13.745       21.335       13.525      188.922      455.203      182.919        0.098        0.041       32.818        9.779        0.089      340.994       15.399      857.811
09/25/2014  07:10:00      -24.570       14.281        3.797       20.085       27.454       10.853      403.398      753.721      117.779        0.105        0.064       28.419        9.364        0.109      340.955       15.333      857.774
09/25/2014  07:11:00      -23.921       12.297      -10.657       12.470       21.252        9.699      155.506      451.665       94.064        0.077        0.035       26.896        7.045        0.069      341.196       15.742      857.761
09/25/2014  07:12:00      -30.067      -15.354       -4.447       25.839       16.355       10.006      667.647      267.494      100.120        0.110        0.052       33.760        9.112        0.073      341.196       15.743      857.740
09/25/2014  07:13:00      -86.641      -51.741      -13.948       13.143       13.537        9.035      172.746      183.245       81.626        0.541        0.022      100.915        6.352        0.004      340.943       15.313      857.735
09/25/2014  07:14:00      -77.968      -43.229       -5.831       17.009       13.383       10.399      289.320      179.115      108.143        0.428        0.029       89.151        5.862        0.004      340.993       15.398      857.735
09/25/2014  07:15:00      -35.511      -45.234       -2.985       26.177       17.075       13.625      685.261      291.546      185.651        0.224        0.058       57.508        9.852        0.029      341.051       15.494      857.746
09/25/2014  07:16:00      -71.624      -28.730       -3.364       26.167       26.909       13.998      684.716      724.074      195.943        0.379        0.080       77.171       11.542        0.022      340.977       15.370      857.737
09/25/2014  07:17:00      -11.699      -14.154       16.182       39.636       24.222       18.528     1571.000      586.712      343.278        0.155        0.125       18.363       22.089        1.447      340.924       15.280      857.747
09/25/2014  07:18:00       41.527       12.720        9.678       24.607       16.015       19.578      605.485      256.480      383.305        0.161        0.062       43.431       18.388        0.179      340.744       14.976      857.750
09/25/2014  07:19:00       33.553       29.857       10.640       19.617       17.251       19.011      384.820      297.611      361.407        0.159        0.052       44.914       13.854        0.095      340.763       15.009      857.747
09/25/2014  07:20:00        7.709       -6.171       10.445       16.203       23.671        9.128      262.538      560.314       83.324        0.056        0.045        9.875       11.302        1.310      340.937       15.303      857.757
09/25/2014  07:21:00       24.139      -33.663        0.443       27.115       17.804       17.762      735.210      316.968      315.490        0.154        0.068       41.424       15.503        0.140      340.841       15.138      857.761
09/25/2014  07:22:00        4.189      -19.425        5.373       10.822       11.629        7.526      117.112      135.223       56.636        0.037        0.015       19.871        3.908        0.039      341.022       15.446      857.761
09/25/2014  07:23:00       25.776        5.991       10.138       19.423       14.000       12.906      377.256      196.003      166.573        0.077        0.037       26.463        9.953        0.141      341.107       15.590      857.758
09/25/2014  07:24:00       36.230        0.811        5.846       16.112       17.999       11.453      259.594      323.956      131.180        0.103        0.036       36.239        7.404        0.042      341.226       15.792      857.757
09/25/2014  07:25:00       36.838      -28.447       12.060       27.670       16.238       21.409      765.640      263.679      458.353        0.190        0.074       46.543       15.432        0.110      340.864       15.178      857.800
09/25/2014  07:26:00       42.404      -14.283       17.690       31.001       14.495       16.674      961.041      210.091      278.032        0.188        0.072       44.745       12.805        0.082      340.992       15.396      857.813
09/25/2014  07:27:00        0.723       -8.300        9.247       30.077        9.899       11.370      904.628       97.997      129.277        0.064        0.057        8.331       10.511        1.592      341.478       16.218      857.807
09/25/2014  07:28:00      -64.997       -3.344      -12.265       18.048       26.832       14.007      325.737      719.956      196.185        0.281        0.062       65.083        6.975        0.011      341.408       16.099      857.798
09/25/2014  07:29:00      -81.145       -9.448      -13.095       32.630       23.149       13.442     1064.707      535.874      180.698        0.431        0.089       81.693        4.966        0.004      341.498       16.252      857.800
09/25/2014  07:30:00     -149.264      -10.385      -21.376       21.970       17.457       15.276      482.676      304.747      233.368        1.193        0.051      149.625        6.841        0.002      341.346       15.995      857.802
09/25/2014  07:31:00     -116.737       -2.645      -18.682       23.780       16.135       17.176      565.509      260.326      295.026        0.755        0.056      116.767       14.891        0.016      341.545       16.332      857.790
09/25/2014  07:32:00     -108.748      -28.451      -17.506       17.463       16.382       11.787      304.956      268.356      138.945        0.683        0.036      112.408        8.494        0.006      341.443       16.158      857.793
09/25/2014  07:33:00      -91.708      -10.299      -14.372       20.171       16.778       10.124      406.886      281.502      102.500        0.476        0.040       92.285        6.758        0.005      341.584       16.398      857.795
09/25/2014  07:34:00      -94.859      -15.695      -11.780       18.040       18.937       14.138      325.437      358.602      199.880        0.513        0.044       96.149        7.492        0.006      341.978       17.066      857.782
09/25/2014  07:35:00      -98.519      -29.660      -16.772       18.282       19.237        9.835      334.240      370.069       96.729        0.583        0.040      102.886        8.608        0.007      341.636       16.485      857.757
09/25/2014  07:36:00      -26.070      -14.506       -6.495       20.074       26.312       16.895      402.962      692.310      285.456        0.116        0.069       29.834       12.250        0.169      341.792       16.751      857.755
09/25/2014  07:37:00     -117.083      -40.014      -15.966       21.248       23.843       12.606      451.458      568.482      158.899        0.837        0.059      123.731       10.149        0.007      341.633       16.479      857.785
09/25/2014  07:38:00     -127.429      -48.383       -7.867       27.857       19.894       19.516      775.987      395.791      380.889        1.010        0.078      136.305       20.481        0.023      341.404       16.094      857.778
09/25/2014  07:39:00     -114.708      -63.592       -9.973       36.957       31.409       16.749     1365.813      986.534      280.526        0.997        0.132      131.156       15.610        0.014      341.431       16.139      857.779
09/25/2014  07:40:00     -108.763      -73.549       -5.918       30.269       32.922       23.019      916.218     1083.846      529.892        0.990        0.126      131.297       19.711        0.023      341.488       16.236      857.756
09/25/2014  07:41:00     -108.753      -29.575       -3.848       28.624       25.944       16.003      819.360      673.114      256.095        0.723        0.087      112.703       15.811        0.020      341.757       16.691      857.729
09/25/2014  07:42:00      -43.407      -31.596        2.488       27.049       15.088        9.766      731.672      227.655       95.378        0.197        0.053       53.689       10.000        0.035      341.744       16.670      857.727
09/25/2014  07:43:00       -3.629      -14.797       12.518       10.974       16.336       10.948      120.425      266.879      119.862        0.045        0.025       15.235       10.819        0.504      341.939       16.999      857.713
09/25/2014  07:44:00      -31.504      -42.523        2.452       18.562       18.194       10.684      344.548      331.032      114.138        0.180        0.039       52.922        9.298        0.031      341.892       16.921      857.721
09/25/2014  07:45:00      -68.565      -40.755        0.465       23.861       24.500       14.556      569.340      600.272      211.883        0.387        0.069       79.763       11.277        0.020      341.888       16.914      857.727
09/25/2014  07:46:00     -113.411      -46.891       -1.907       24.202       17.547       15.086      585.757      307.886      227.596        0.809        0.056      122.723       13.857        0.013      341.887       16.912      857.712
09/25/2014  07:47:00      -38.572      -28.131        7.629       22.792       14.564       15.524      519.478      212.108      241.006        0.165        0.049       47.741       12.681        0.071      341.895       16.925      857.717
09/25/2014  07:48:00      -32.628      -52.373        6.964       17.849       17.069       11.264      318.583      291.354      126.886        0.230        0.037       61.705        7.474        0.015      341.929       16.983      857.731
09/25/2014  07:49:00        2.443      -15.935       11.754       15.660       21.524        9.753      245.225      463.276       95.118        0.060        0.040       16.121        7.395        0.210      342.030       17.155      857.742
09/25/2014  07:50:00       40.445       26.391        4.988       20.759       21.191       16.998      430.934      449.070      288.931        0.176        0.058       48.294       15.198        0.099      341.732       16.650      857.734
09/25/2014  07:51:00      122.221       54.665       20.653       40.815       46.742       33.654     1665.887     2184.842     1132.603        1.167        0.249      133.889       17.677        0.017      341.612       16.447      857.745
09/25/2014  07:52:00       90.861      100.067       73.980       40.731       38.843       31.989     1658.995     1508.775     1023.292        1.397        0.210      135.163       24.666        0.033      341.433       16.143      857.770
09/25/2014  07:53:00       28.292       88.032       93.082       45.561       45.667       31.008     2075.793     2085.438      961.520        1.117        0.256       92.466       24.929        0.073      341.485       16.230      857.767
09/25/2014  07:54:00      115.255       93.126       71.700       59.735       35.613       54.457     3568.330     1268.268     2965.586        1.745        0.390      148.176       37.786        0.065      341.384       16.059      857.740
09/25/2014  07:55:00       73.292       64.124       41.729       60.142       41.515       43.346     3617.028     1723.531     1878.909        0.922        0.361       97.384       32.595        0.112      341.511       16.273      857.689
09/25/2014  07:56:00       65.643       45.644       12.673       44.649       34.128       20.636     1993.531     1164.692      425.827        0.507        0.179       79.953       13.820        0.030      341.489       16.237      857.714
09/25/2014  07:57:00       18.290       17.413       24.386       20.576       17.444       13.678      423.387      304.299      187.085        0.107        0.046       25.254        9.489        0.141      341.669       16.541      857.712
09/25/2014  07:58:00        0.128       10.921       12.399        6.143        8.656       10.576       37.741       74.919      111.844        0.025        0.011       10.922        7.455        0.466      341.864       16.872      857.690
09/25/2014  07:59:00       12.686       11.280       17.274        9.520        9.698        8.074       90.623       94.047       65.196        0.042        0.012       16.976        4.840        0.081      341.797       16.761      857.724
09/25/2014  08:00:00       24.467       -3.208        4.159       16.586       12.731       10.181      275.105      162.084      103.661        0.058        0.027       24.676        5.991        0.059      341.586       16.402      857.783
09/25/2014  08:01:00       50.442      -19.154       -9.587       20.758       23.211       15.447      430.874      538.733      238.614        0.211        0.060       53.956       13.784        0.065      341.413       16.108      857.831
09/25/2014  08:02:00       24.940      -11.925        3.001       23.662       23.806       22.520      559.875      566.749      507.139        0.120        0.082       27.644       14.217        0.264      341.601       16.427      857.842
09/25/2014  08:03:00       34.862       33.605       22.132       26.864       18.334       19.424      721.657      336.144      377.294        0.213        0.072       48.422        7.935        0.027      341.695       16.586      857.866
09/25/2014  08:04:00       33.431       32.713      -17.134       16.032       11.937       18.545      257.037      142.489      343.933        0.161        0.037       46.774        9.295        0.039      341.693       16.582      857.868
09/25/2014  08:05:00       53.626       29.065        8.523       16.428       20.344       13.511      269.894      413.866      182.535        0.233        0.043       60.996        5.591        0.008      341.753       16.685      857.841
09/25/2014  08:06:00       55.795       46.825       11.184       27.146       21.819       16.825      736.893      476.049      283.074        0.346        0.075       72.840       13.441        0.034      341.971       17.054      857.778
09/25/2014  08:07:00       21.621       34.217       -2.238       32.827       19.627       22.809     1077.601      385.237      520.229        0.181        0.099       40.475       16.703        0.170      342.163       17.378      857.818
09/25/2014  08:08:00      -30.470       11.620      -12.501       34.750       35.100       10.430     1207.548     1232.042      108.790        0.188        0.127       32.611       15.751        0.233      342.154       17.366      857.892
09/25/2014  08:09:00      -44.258        4.425       -5.375       26.735       22.013       11.796      714.776      484.569      139.155        0.167        0.067       44.479        9.535        0.046      342.208       17.458      857.892
09/25/2014  08:10:00      -17.836       39.068        0.169       13.597       22.033       15.780      184.883      485.441      249.000        0.138        0.046       42.946       15.058        0.123      342.398       17.781      857.848
09/25/2014  08:11:00      -14.488       72.316      -13.790       14.699       16.804       11.937      216.058      282.390      142.499        0.314        0.032       73.753        6.734        0.008      342.410       17.799      857.843
09/25/2014  08:12:00      -29.813       59.712       -4.761       24.528       28.785       14.550      601.615      828.599      211.689        0.306        0.082       66.741        9.115        0.019      342.500       17.955      857.868
09/25/2014  08:13:00       18.465       23.173       21.186       22.524       18.917       21.022      507.327      357.866      441.940        0.132        0.065       29.630       13.607        0.211      342.581       18.091      857.913
09/25/2014  08:14:00       35.070       30.290       43.235       50.205       32.389       35.206     2520.524     1049.068     1239.473        0.441        0.240       46.339       29.911        0.417      341.989       17.084      857.941
09/25/2014  08:15:00       -4.394      -16.833       18.385       24.814       25.863       18.178      615.739      668.893      330.451        0.113        0.081       17.398       14.784        0.722      341.984       17.075      857.883
09/25/2014  08:16:00       76.620       47.881        2.982       31.135       20.256       22.170      969.390      410.287      491.527        0.502        0.094       90.351        5.345        0.003      342.162       17.378      857.835
09/25/2014  08:17:00       15.937       49.199       -8.893       17.570       24.668       18.792      308.699      608.500      353.128        0.201        0.064       51.716       15.323        0.088      342.545       18.029      857.845
09/25/2014  08:18:00       15.130       19.855        8.203       22.798       22.207       17.762      519.738      493.148      315.493        0.101        0.066       24.963       14.971        0.360      342.651       18.209      857.861
09/25/2014  08:19:00       14.456        0.709       24.394       22.192       24.714       22.511      492.475      610.774      506.753        0.121        0.081       14.473       18.499        1.634      342.589       18.105      857.928
09/25/2014  08:20:00       42.453       21.060       18.770       23.926       17.327       20.758      572.443      300.236      430.886        0.195        0.065       47.389       17.692        0.139      342.152       17.363      857.932
09/25/2014  08:21:00       45.351      102.506      -12.812       24.948       49.354       28.519      622.406     2435.811      813.312        0.830        0.194      112.090       31.446        0.079      342.373       17.737      857.849
09/25/2014  08:22:00      -53.039       36.954      -14.230       44.781       78.407       18.080     2005.353     6147.643      326.894        0.643        0.424       64.643       31.420        0.236      342.530       18.005      857.861
09/25/2014  08:23:00      -11.961      -17.989       10.925       33.988       23.460       16.469     1155.173      550.382      271.234        0.128        0.099       21.603       14.844        0.472      342.526       17.999      857.937
09/25/2014  08:24:00       26.824       36.047       14.877       28.176       22.262       16.800      793.891      495.598      282.225        0.191        0.079       44.932       13.688        0.093      342.851       18.550      857.912
09/25/2014  08:25:00       84.118       47.924       11.254       41.568       31.841       24.183     1727.862     1013.846      584.827        0.641        0.166       96.812       12.302        0.016      342.819       18.495      857.895
09/25/2014  08:26:00       14.092       22.700       50.823       26.336       42.681       27.392      693.606     1821.697      750.333        0.328        0.163       26.718       19.602        0.538      342.859       18.564      857.951
09/25/2014  08:27:00       50.881       53.839       41.075       62.322       37.752       29.356     3883.977     1425.184      861.761        0.667        0.309       74.077       23.282        0.099      342.864       18.571      857.965
09/25/2014  08:28:00       42.073       31.417       16.887       43.319       27.791       25.561     1876.505      772.344      653.390        0.317        0.165       52.508       22.750        0.188      342.977       18.764      857.969
09/25/2014  08:29:00       53.851       41.274       17.538       46.860       33.632       28.231     2195.866     1131.080      796.971        0.452        0.206       67.849       24.698        0.133      342.901       18.636      857.998
09/25/2014  08:30:00       85.679       43.862       27.097       46.438       28.387       22.902     2156.458      805.806      524.491        0.674        0.174       96.254       24.537        0.065      342.595       18.116      858.071
09/25/2014  08:31:00       13.674      -27.142       -1.451       33.028       43.985       31.447     1090.828     1934.708      988.904        0.247        0.201       30.392       26.709        0.772      342.599       18.122      858.176
09/25/2014  08:32:00      -31.632       27.072      -20.502       19.115       18.192       12.124      365.375      330.936      147.003        0.150        0.042       41.635        6.510        0.024      342.688       18.272      858.125
09/25/2014  08:33:00       -7.652       34.193       -4.086       13.410       35.062       12.870      179.836     1229.314      165.642        0.141        0.079       35.039       13.789        0.155      343.095       18.966      858.107
09/25/2014  08:34:00       31.455       90.828        5.856       42.365       33.684       26.700     1794.777     1134.596      712.874        0.646        0.182       96.120       20.359        0.045      343.142       19.045      858.110
09/25/2014  08:35:00       75.524      164.989      -34.030       52.035       57.325       37.026     2707.606     3286.116     1370.920        2.072        0.368      181.454       30.312        0.028      343.205       19.151      857.935
09/25/2014  08:36:00      -41.066       34.210       -3.647       41.088       62.166       26.384     1688.215     3864.618      696.141        0.456        0.312       53.448       19.281        0.130      343.201       19.147      857.959
09/25/2014  08:37:00       -4.353       11.256        1.638       23.507       24.299       16.340      552.597      590.427      266.993        0.078        0.071       12.068       18.246        2.286      343.490       19.638      858.041
09/25/2014  08:38:00      -14.417       -5.821        7.681       19.569       12.688       15.143      382.954      160.984      229.299        0.054        0.039       15.548       13.895        0.799      343.512       19.675      858.074
09/25/2014  08:39:00      -59.687        1.316       -8.362       21.766       14.148       11.720      473.769      200.166      137.361        0.222        0.041       59.701        8.294        0.019      343.243       19.218      858.037
09/25/2014  08:40:00       -3.274       59.840        5.506       26.855       29.979       22.582      721.174      898.716      509.935        0.288        0.106       59.929       16.665        0.077      343.486       19.632      858.003
09/25/2014  08:41:00       44.949       43.151       19.319       34.868       28.678       25.913     1215.772      822.417      671.479        0.348        0.135       62.309        9.674        0.024      343.515       19.681      858.029
09/25/2014  08:42:00       23.709       14.448       41.170       30.579       64.695       38.622      935.098     4185.455     1491.639        0.454        0.331       27.764       41.643        2.250      343.170       19.092      858.079
09/25/2014  08:43:00       31.053      -37.109        2.789       34.398       37.146       28.669     1183.210     1379.808      821.885        0.287        0.169       48.387       20.690        0.183      343.084       18.947      858.143
09/25/2014  08:44:00       38.878       72.708        3.170       26.471       30.418       25.207      700.690      925.275      635.410        0.453        0.113       82.450       17.318        0.044      343.343       19.388      858.167
09/25/2014  08:45:00        0.627      174.171      -31.853       27.190       53.707       17.249      739.304     2884.438      297.540        1.764        0.196      174.172       19.706        0.013      343.463       19.590      858.077
09/25/2014  08:46:00       80.332      195.799      -36.541       55.298       80.280       40.255     3057.844     6444.810     1620.434        2.862        0.556      211.638       38.734        0.033      343.676       19.952      857.982
09/25/2014  08:47:00      142.195       87.955       17.502       62.146       41.063       40.548     3862.070     1686.156     1644.104        1.773        0.360      167.199       20.962        0.016      343.694       19.984      857.994
09/25/2014  08:48:00       81.930       48.702       37.473       80.460       59.154       40.412     6473.769     3499.140     1633.093        1.105        0.580       95.312       46.766        0.241      343.793       20.154      858.010
09/25/2014  08:49:00       63.381        9.730       16.168       46.158       58.760       32.460     2130.578     3452.750     1053.632        0.550        0.332       64.123       22.948        0.128      343.667       19.941      858.000
09/25/2014  08:50:00       78.913     -153.589       -8.315       81.432       88.762       54.986     6631.100     7878.751     3023.432        2.371        0.877      172.676       55.906        0.105      343.731       20.046      858.056
09/25/2014  08:51:00      -64.267     -134.804      -13.347       34.140       46.464       27.723     1165.571     2158.933      768.539        1.329        0.205      149.340       15.633        0.011      343.592       19.812      858.094
09/25/2014  08:52:00      -31.681      -57.989       30.630       37.154       46.585       39.237     1380.387     2170.195     1539.514        0.520        0.255       66.078       22.073        0.112      343.844       20.243      858.106
09/25/2014  08:53:00       19.053       44.820       53.274       36.606       38.769       33.002     1340.007     1503.006     1089.160        0.457        0.197       48.702       22.234        0.208      343.715       20.022      858.088
09/25/2014  08:54:00       69.309       71.479        5.652       48.323       42.359       39.378     2335.090     1794.309     1550.666        0.781        0.284       99.564       29.244        0.086      343.646       19.904      857.983
09/25/2014  08:55:00       30.194       18.833       -4.253       44.486       28.900       21.047     1979.038      835.208      442.986        0.227        0.163       35.586       18.348        0.266      343.754       20.088      857.969
09/25/2014  08:56:00      -53.406       44.652      -11.331       25.010       27.360       27.202      625.517      748.563      739.972        0.354        0.106       69.613       15.313        0.048      343.816       20.194      857.963
09/25/2014  08:57:00      -16.958       16.923       -2.563       34.385       25.020       17.654     1182.295      626.012      311.649        0.135        0.106       23.957       13.489        0.317      344.012       20.529      857.978
09/25/2014  08:58:00      -44.578      -16.077       -3.388       22.640       45.789       18.350      512.555     2096.635      336.710        0.260        0.147       47.389       17.984        0.144      343.825       20.209      857.998
09/25/2014  08:59:00      -64.598      -78.386       -6.636       52.152       37.170       17.471     2719.790     1381.574      305.247        0.738        0.220      101.574       21.448        0.045      343.735       20.057      858.042
09/25/2014  09:00:00      -98.374       -9.110       -2.783       51.137       31.434       18.632     2614.998      988.080      347.143        0.686        0.198       98.795       24.367        0.061      343.920       20.371      857.995
09/25/2014  09:01:00      -91.952       30.757       -6.982       81.385       43.860       34.438     6623.594     1923.708     1186.003        0.959        0.487       96.959       45.410        0.219      344.214       20.872      857.981
09/25/2014  09:02:00      -13.357      -64.714        2.697       29.348       42.618       19.373      861.286     1816.259      375.296        0.371        0.153       66.078       20.345        0.095      344.163       20.787      858.029
09/25/2014  09:03:00      -76.589      -87.851        1.694       85.364       97.490       35.638     7286.996     9504.395     1270.087        1.582        0.903      116.549       45.357        0.151      344.125       20.721      858.062
09/25/2014  09:04:00     -131.901     -254.226        1.657       98.790      119.651       58.847     9759.559    14316.375     3462.973        5.478        1.377      286.406       65.655        0.053      344.016       20.533      858.055
09/25/2014  09:05:00     -114.943      -59.276        9.544      171.100       81.221       50.251    29275.049     6596.777     2525.126        2.760        1.920      129.328       61.059        0.223      344.202       20.853      857.984
09/25/2014  09:06:00     -127.631       -5.789       13.703      105.083       68.386       41.044    11042.351     4676.643     1684.645        1.695        0.870      127.762       34.159        0.071      344.153       20.768      857.942
09/25/2014  09:07:00     -229.391      -98.627       13.715      174.737      127.330       70.072    30532.990    16213.002     4910.051        5.709        2.583      249.695       75.235        0.091      344.280       20.983      857.883
09/25/2014  09:08:00     -225.782     -118.835       -3.949      101.185       91.603       53.737    10238.337     8391.122     2887.643        4.331        1.076      255.145       55.254        0.047      344.320       21.053      857.936
09/25/2014  09:09:00        6.918       72.583       43.085      110.056       84.651       75.024    12112.222     7165.822     5628.553        1.604        1.245       72.912       29.897        0.168      344.395       21.183      857.988
09/25/2014  09:10:00       -3.424       64.869        9.268       63.192       44.686       48.676     3993.240     1996.855     2369.332        0.633        0.418       64.959       43.939        0.458      344.448       21.274      857.918
09/25/2014  09:11:00       -0.719       14.036       33.778       42.956       65.909       48.881     1845.246     4344.025     2389.346        0.496        0.429       14.054       38.488        7.499      344.659       21.635      857.869
09/25/2014  09:12:00      -97.753      -62.811       -3.008      107.843       76.417       41.617    11630.165     5839.584     1731.952        1.635        0.960      116.193       36.155        0.097      344.341       21.091      857.876
09/25/2014  09:13:00     -185.335     -174.752      -11.479      125.461       93.957       49.393    15740.450     8827.833     2439.630        4.601        1.350      254.730       53.253        0.044      344.319       21.051      857.913
09/25/2014  09:14:00     -186.065     -111.352       -2.352       92.001       66.450       36.171     8464.156     4415.645     1308.319        3.060        0.709      216.840       28.496        0.017      344.342       21.091      857.965
09/25/2014  09:15:00      -61.916      -99.572       12.324       88.503       95.595       52.689     7832.816     9138.403     2776.135        1.682        0.987      117.253       43.781        0.139      344.316       21.047      858.007
09/25/2014  09:16:00     -318.092      -56.280       -6.194      154.407       98.853       65.465    23841.515     9771.829     4285.659        7.114        1.895      323.033       71.324        0.049      344.245       20.922      857.902
09/25/2014  09:17:00     -264.117     -169.460      -20.891      205.008      119.343       72.146    42028.382    14242.810     5205.088        8.018        3.074      313.806       75.383        0.058      344.200       20.847      858.015
09/25/2014  09:18:00     -167.540     -148.804      -17.907      110.360      108.179       59.726    12179.415    11702.651     3567.208        3.899        1.372      224.081       54.056        0.058      344.307       21.030      857.979
09/25/2014  09:19:00     -211.703     -269.341        9.661      140.891      124.773       76.172    19850.276    15568.379     5802.111        7.933        2.061      342.583       72.542        0.045      344.240       20.915      858.058
09/25/2014  09:20:00     -376.262     -140.907      -24.866      151.811      126.032       72.094    23046.516    15884.191     5197.516       10.308        2.206      401.781       80.618        0.040      344.368       21.132      858.017
09/25/2014  09:21:00     -362.205      -83.948      -10.630      163.673      115.786       74.589    26788.796    13406.382     5563.516        9.205        2.288      371.806       74.840        0.041      344.408       21.203      857.942
09/25/2014  09:22:00      -56.618      -20.388       48.685       95.851       95.259       65.968     9187.509     9074.220     4351.773        1.430        1.131       60.177       68.336        1.290      344.796       21.868      857.933
09/25/2014  09:23:00      -64.258     -108.659       -7.685      105.139      107.538       57.334    11054.198    11564.344     3287.233        2.095        1.295      126.237       51.384        0.166      344.655       21.625      857.886
09/25/2014  09:24:00     -193.018     -117.094        1.386      161.370      159.936       75.771    26040.307    25579.533     5741.297        5.416        2.868      225.759       51.503        0.052      344.630       21.583      857.891
09/25/2014  09:25:00     -138.226     -228.568        6.979      202.206      222.636       81.040    40887.120    49566.638     6567.440        8.419        4.851      267.113       80.778        0.091      344.738       21.768      857.880
09/25/2014  09:26:00     -168.288     -293.975       -1.127      313.717      212.282       94.139    98418.139    45063.578     8862.241       13.352        7.617      338.736      106.750        0.099      344.740       21.771      857.809
09/25/2014  09:27:00      -17.153     -222.279       41.702      185.296      186.377      104.707    34334.684    34736.444    10963.452        6.572        4.002      222.940      102.184        0.210      344.851       21.960      857.909
09/25/2014  09:28:00       57.358     -306.752        0.152      190.163      218.462      105.270    36162.062    47725.712    11081.779        9.616        4.748      312.068       96.715        0.096      344.864       21.983      857.883
09/25/2014  09:29:00       57.671     -267.560       27.072      133.549      248.739      119.757    17835.219    61871.045    14341.770        8.483        4.702      273.705      127.931        0.218      344.875       22.001      857.878
09/25/2014  09:30:00       26.903     -368.052      -12.846      181.622      302.315      115.922    32986.675    91394.333    13437.968       13.706        6.891      369.034      104.293        0.080      344.782       21.843      857.964
09/25/2014  09:31:00      -20.204     -328.815       -6.170      173.562      162.393       94.684    30123.595    26371.347     8964.991        8.700        3.273      329.435       75.945        0.053      344.804       21.880      857.884
09/25/2014  09:32:00      -23.235      -35.824       32.416       85.756       86.696       46.130     7354.012     7516.132     2127.989        0.993        0.850       42.699       43.445        1.035      345.065       22.330      857.875
09/25/2014  09:33:00      -76.834      -71.540       14.418      101.937       90.896       47.883    10391.132     8262.148     2292.785        1.608        1.047      104.982       52.167        0.247      344.978       22.179      857.853
09/25/2014  09:34:00     -230.379     -262.347      -25.795      197.281      184.956       82.560    38919.609    34208.587     6816.152       10.124        3.997      349.143      103.429        0.088      344.776       21.831      857.888
09/25/2014  09:35:00      -71.621     -176.322        0.155      173.770      172.497       94.915    30196.088    29755.199     9008.948        5.258        3.448      190.313       74.210        0.152      344.918       22.074      857.892
09/25/2014  09:36:00     -113.617     -231.959      -12.523      127.021      155.418       63.473    16134.315    24154.857     4028.885        5.559        2.216      258.290       48.646        0.035      344.839       21.938      857.941
09/25/2014  09:37:00     -140.964     -292.849      -11.765      100.694      192.197       57.581    10139.312    36939.868     3315.608        7.807        2.520      325.010       38.888        0.014      344.804       21.880      857.948
09/25/2014  09:38:00      -28.355     -248.538      -25.072       98.947      109.267       65.610     9790.578    11939.256     4304.689        4.461        1.302      250.151       30.827        0.015      345.006       22.226      857.942
09/25/2014  09:39:00     -174.926     -250.041       12.141      220.265      190.406       91.415    48516.762    36254.600     8356.738        9.318        4.656      305.155       81.948        0.072      344.933       22.101      857.899
09/25/2014  09:40:00     -309.015     -319.689       25.352      215.809      255.689      106.103    46573.419    65376.891    11257.816       16.075        6.160      444.625      110.454        0.062      344.924       22.085      857.850
09/25/2014  09:41:00     -218.781     -204.331       18.310      164.716      170.252       90.132    27131.351    28985.716     8123.692        7.709        3.212      299.360       73.388        0.060      344.959       22.145      857.904
09/25/2014  09:42:00     -274.045     -308.644      -23.353      153.138      211.905       85.025    23451.266    44903.790     7229.194       12.323        3.779      412.749       69.729        0.029      344.893       22.031      857.941
09/25/2014  09:43:00      -52.285     -201.231        8.284      113.777      117.700       76.768    12945.304    13853.226     5893.327        3.799        1.635      207.913       60.818        0.086      345.085       22.360      857.961
09/25/2014  09:44:00     -142.518     -143.808       17.352      230.370      134.344       84.757    53070.336    18048.344     7183.726        5.978        3.915      202.465       61.346        0.092      345.080       22.353      857.880
09/25/2014  09:45:00     -128.657     -143.279       23.804      159.896      125.762       72.832    25566.862    15815.973     5304.502        4.216        2.334      192.566       82.964        0.186      345.064       22.325      857.890
09/25/2014  09:46:00     -234.145     -190.871       15.652      236.921      167.797       95.098    56131.360    28155.989     9043.649        9.240        4.667      302.086      109.497        0.131      345.068       22.331      857.953
09/25/2014  09:47:00     -376.732     -329.085      -17.485      233.377      243.157      102.598    54464.903    59125.237    10526.428       18.730        6.206      500.224      114.196        0.052      344.961       22.148      857.922
09/25/2014  09:48:00     -337.871     -437.955      -16.538      198.360      190.072      100.542    39346.516    36127.265    10108.611       19.589        4.279      553.138       94.321        0.029      344.905       22.053      857.910
09/25/2014  09:49:00     -204.319     -242.385       -7.186      178.658      169.520       86.352    31918.735    28736.985     7456.587        8.432        3.406      317.012       96.995        0.094      345.034       22.276      857.975
09/25/2014  09:50:00     -217.390     -208.065       -2.458      167.511      115.662       76.674    28059.837    13377.653     5878.913        6.893        2.366      300.914       81.143        0.073      345.097       22.382      858.026
09/25/2014  09:51:00     -230.556     -386.645      -20.819       99.242      255.290       79.103     9849.059    65173.044     6257.239       14.217        4.064      450.168       71.789        0.025      345.027       22.263      858.023
09/25/2014  09:52:00     -221.468     -132.781       -3.797      173.390      161.245       75.106    30063.923    26000.016     5640.902        6.419        3.085      258.222       64.507        0.062      345.076       22.344      857.985
09/25/2014  09:53:00     -237.941     -152.629        7.993      232.236      156.378       81.015    53933.405    24454.232     6563.396        8.245        4.248      282.686       99.241        0.123      345.105       22.396      857.927
09/25/2014  09:54:00     -162.062     -195.528       -0.199      160.612      200.751       79.792    25796.270    40300.861     6366.754        6.847        3.623      253.959       80.992        0.102      345.199       22.556      857.936
09/25/2014  09:55:00     -183.298     -220.134        2.612      204.784      134.208       67.485    41936.384    18011.807     4554.267        7.327        3.225      286.456       71.947        0.063      345.208       22.572      857.932
09/25/2014  09:56:00     -272.814     -364.894      -11.836      196.812      227.160      100.637    38734.810    51601.510    10127.817       15.407        5.023      455.604      104.933        0.053      344.985       22.190      857.911
09/25/2014  09:57:00     -100.646     -277.224       -5.805      148.711      128.522       77.306    22114.995    16518.029     5976.163        6.581        2.230      294.928       74.818        0.064      345.074       22.342      857.892
09/25/2014  09:58:00      -55.292     -135.360       -2.726       82.630       88.886       57.374     6827.638     7900.735     3291.814        1.970        0.901      146.217       52.234        0.128      345.368       22.847      857.873
09/25/2014  09:59:00      -22.341     -297.388        4.670      133.263      178.831       72.131    17759.097    31980.411     5202.934        7.194        2.747      298.226       52.867        0.031      345.220       22.593      857.894
09/25/2014  10:00:00      -45.242     -294.482       -8.273      237.528      187.244       91.111    56419.608    35060.210     8301.274        9.429        4.989      297.937       91.474        0.094      345.202       22.562      857.874
09/25/2014  10:01:00      -90.489     -228.573        0.942      164.531      141.348      100.166    27070.569    19979.288    10033.182        5.875        2.854      245.833       93.066        0.143      345.226       22.602      857.818
09/25/2014  10:02:00     -275.804     -369.369       13.769      187.353      241.499      103.829    35100.992    58321.686    10780.387       15.843        5.210      460.978       97.121        0.044      345.028       22.262      857.798
09/25/2014  10:03:00     -211.497     -234.253       -2.112      140.802      155.626       80.097    19825.129    24219.522     6415.511        7.503        2.523      315.604       63.850        0.041      345.112       22.406      857.790
09/25/2014  10:04:00     -177.963     -312.564        6.316      262.875      192.348       92.555    69103.355    36997.660     8566.363       12.202        5.733      359.676       71.679        0.040      345.239       22.625      857.751
09/25/2014  10:05:00     -130.264     -258.863        2.473      112.640      238.511       79.056    12687.761    56887.709     6249.910        7.989        3.791      289.791       97.402        0.113      345.301       22.731      857.794
09/25/2014  10:06:00      -77.210      -74.908       12.833      117.018       77.629       51.985    13693.187     6026.259     2702.436        1.708        1.121      107.576       53.378        0.246      345.396       22.895      857.746
09/25/2014  10:07:00      -43.860     -165.313        3.508       84.934      144.198       60.133     7213.771    20793.177     3615.941        3.044        1.581      171.032       51.613        0.091      345.320       22.764      857.708
09/25/2014  10:08:00       10.600      -77.447       26.788       79.906       91.192       69.853     6385.012     8315.949     4879.393        1.320        0.979       78.169       61.759        0.624      345.661       23.349      857.675
09/25/2014  10:09:00      -45.647      -81.310       -3.235      133.215      105.817       51.475    17746.154    11197.311     2649.705        2.014        1.580       93.246       52.289        0.314      345.464       23.011      857.730
09/25/2014  10:10:00     -158.774     -155.912       11.836      168.703      193.929       92.903    28460.541    37608.552     8631.042        6.217        3.735      222.526       80.676        0.131      345.344       22.804      857.697
09/25/2014  10:11:00     -101.900     -264.537      -11.367      147.419      168.171       75.504    21732.356    28281.625     5700.899        6.809        2.786      283.484       58.638        0.043      345.300       22.729      857.703
09/25/2014  10:12:00        4.148     -300.137       -1.975      164.919      209.745      103.278    27198.415    43992.783    10666.381        8.597        4.093      300.166      110.121        0.135      345.439       22.966      857.716
09/25/2014  10:13:00      192.914     -356.198       15.950      241.050      375.141      159.491    58105.246   140730.580    25437.535       19.427       11.214      405.084      211.781        0.273      345.355       22.823      857.677
09/25/2014  10:14:00      135.502     -443.014      -36.748      222.985      214.389      122.591    49722.355    45962.506    15028.567       16.332        5.536      463.273      109.961        0.056      345.193       22.547      857.674
09/25/2014  10:15:00      -22.848     -446.583       -7.739      187.968      278.258      103.858    35332.142    77427.325    10786.544       16.176        6.177      447.167       83.319        0.035      345.144       22.461      857.724
09/25/2014  10:16:00     -123.464     -304.433       10.970      223.460      220.467      107.607    49934.388    48605.685    11579.186       10.906        5.506      328.516      114.947        0.122      345.216       22.584      857.717
09/25/2014  10:17:00       11.967     -321.615      -15.642      112.344      120.213       72.483    12621.106    14451.115     5253.821        6.807        1.616      321.838       34.544        0.012      345.204       22.565      857.683
09/25/2014  10:18:00     -132.131     -197.647        9.194      140.636      130.369       81.627    19778.430    16995.978     6663.032        5.002        2.172      237.745       66.625        0.079      345.214       22.579      857.642
09/25/2014  10:19:00     -208.224     -143.537       24.781      172.528      127.389       69.029    29765.892    16227.889     4764.952        5.766        2.538      252.904       55.934        0.049      345.246       22.636      857.642
09/25/2014  10:20:00     -209.110     -226.182       -1.262      183.409      133.532       82.151    33638.679    17830.899     6748.737        7.654        2.911      308.034       74.396        0.058      345.330       22.779      857.653
09/25/2014  10:21:00     -313.694     -301.103       -9.350      258.105      195.309      108.213    66618.179    38145.564    11710.013       15.279        5.824      434.819      116.195        0.071      345.247       22.637      857.580
09/25/2014  10:22:00     -279.246     -317.708      -24.897      251.805      253.653      103.488    63405.972    64339.884    10709.842       15.897        6.923      422.986       76.546        0.033      345.140       22.454      857.564
09/25/2014  10:23:00     -154.269     -176.148        9.152      122.731      110.349       80.730    15062.980    12176.918     6517.358        4.433        1.688      234.152       55.678        0.057      345.313       22.750      857.615
09/25/2014  10:24:00     -120.908     -204.248       -2.836      130.629      100.620       65.761    17063.855    10124.406     4324.547        4.392        1.576      237.352       44.842        0.036      345.365       22.839      857.599
09/25/2014  10:25:00      -84.335     -136.408       -1.035      160.471      187.556      103.842    25750.799    35177.150    10783.176        4.870        3.586      160.373       96.722        0.364      345.459       23.000      857.535
09/25/2014  10:26:00      -54.599      -64.635       23.310      101.505       94.179       70.917    10303.189     8869.626     5029.248        1.595        1.210       84.610       55.825        0.435      345.651       23.332      857.551
09/25/2014  10:27:00     -127.044      -59.714        1.372      105.220      113.393       75.670    11071.299    12857.942     5725.909        2.468        1.483      140.378       57.851        0.170      345.510       23.090      857.532
09/25/2014  10:28:00     -144.129     -138.666        5.542      166.173      182.539       64.800    27613.402    33320.668     4199.010        5.257        3.257      200.003       74.760        0.140      345.595       23.236      857.470
09/25/2014  10:29:00     -173.675     -183.405      -17.432      203.250      116.672       80.608    41310.411    13612.384     6497.569        6.275        3.071      252.588       60.209        0.057      345.478       23.034      857.443
09/25/2014  10:30:00      -56.066     -148.975        9.551      120.985      122.547       75.555    14637.298    15017.691     5708.568        3.039        1.768      159.176       58.227        0.134      345.786       23.565      857.575
09/25/2014  10:31:00      -98.351     -514.378      -35.387      392.010      348.527      146.426   153672.192   121470.770    21440.660       28.600       14.829      523.696      121.318        0.054      345.370       22.848      857.509
09/25/2014  10:32:00       27.301     -359.904       21.508      165.476      292.496      111.812    27382.170    85554.104    12501.922       12.807        6.272      360.938      133.532        0.137      345.526       23.117      857.543
09/25/2014  10:33:00       89.387     -557.698      -14.941      259.162      321.345      122.774    67165.031   103262.355    15073.395       25.234        9.275      564.816      115.091        0.042      345.371       22.851      857.497
09/25/2014  10:34:00     -184.270     -209.874      -23.112      181.128      219.381       92.591    32807.361    48128.049     8573.050        8.401        4.475      279.289       47.056        0.028      345.389       22.879      857.491
09/25/2014  10:35:00     -199.580     -437.044      -32.038      224.716      314.100      121.738    50497.246    98659.103    14820.109       19.789        8.199      480.458      149.998        0.097      345.348       22.811      857.561
09/25/2014  10:36:00     -163.784     -372.333      -23.461      200.918      164.027       90.246    40368.073    26904.826     8144.332       12.070        3.771      406.764       78.938        0.038      345.342       22.800      857.535
09/25/2014  10:37:00     -104.725     -146.741       -5.316      154.617       92.146       68.845    23906.552     8490.897     4739.610        3.483        1.857      180.278       33.358        0.034      345.537       23.136      857.506
09/25/2014  10:38:00      -87.281     -118.457        4.001      134.776       83.330       56.343    18164.450     6943.928     3174.503        2.497        1.414      147.140       56.003        0.145      345.562       23.179      857.578
09/25/2014  10:39:00     -140.075     -167.918       16.054      158.728      136.554       87.220    25194.534    18646.974     7607.384        4.975        2.572      218.672       85.119        0.152      345.555       23.166      857.578
09/25/2014  10:40:00      -27.632     -244.992       12.209      178.017      184.990      103.443    31690.089    34221.425    10700.375        6.876        3.831      246.545       89.004        0.130      345.569       23.190      857.559
09/25/2014  10:41:00     -112.298     -181.417       -0.573      100.090      128.962       57.267    10018.096    16631.090     3279.543        3.772        1.496      213.361       25.290        0.014      345.631       23.297      857.632
09/25/2014  10:42:00      -90.303      -97.545       -1.658      150.535      114.181       59.719    22660.734    13037.389     3566.337        2.846        1.963      132.927       43.537        0.107      345.674       23.370      857.601
09/25/2014  10:43:00     -179.437     -258.848        6.558      145.914      166.505       77.207    21290.859    27723.923     5960.959        7.710        2.749      314.960       78.638        0.062      345.540       23.139      857.586
09/25/2014  10:44:00     -217.492     -266.826       -4.578      152.101      142.670       80.609    23134.857    20354.682     6497.748        8.425        2.499      344.237       42.027        0.015      345.563       23.179      857.614
09/25/2014  10:45:00     -306.260     -422.205       -1.031      194.427      265.630      104.624    37802.044    70559.199    10946.277       19.566        5.965      521.586       99.159        0.036      345.534       23.129      857.618
09/25/2014  10:46:00     -299.596     -365.817       -5.112      215.756      209.217       98.447    46550.554    43771.735     9691.744       16.179        5.001      472.842       75.873        0.026      345.486       23.046      857.631
09/25/2014  10:47:00       -9.895     -240.987      -29.606      109.500      105.514       82.122    11990.291    11133.237     6744.074        4.445        1.493      241.190       63.951        0.070      345.497       23.065      857.656
09/25/2014  10:48:00      107.530     -318.517      -21.170      222.745      255.806      117.382    49615.119    65436.609    13778.649       12.113        6.442      336.178      104.577        0.097      345.512       23.092      857.552
09/25/2014  10:49:00     -257.257     -258.795        3.691      190.096      161.234       98.689    36136.422    25996.427     9739.423       10.251        3.594      364.906      104.922        0.083      345.501       23.073      857.604
09/25/2014  10:50:00     -272.487     -423.083       -1.676      305.491      261.399      143.667    93324.575    68329.334    20640.126       21.774        9.115      503.238      147.812        0.086      345.548       23.152      857.593
09/25/2014  10:51:00     -129.914     -310.545      -31.904      146.004      139.832       90.278    21317.284    19553.062     8150.105        8.167        2.451      336.624       59.392        0.031      345.421       22.935      857.610
09/25/2014  10:52:00      -64.047     -398.332        7.646      259.103      243.326      118.306    67134.563    59207.644    13996.308       15.156        7.017      403.448      119.347        0.088      345.471       23.020      857.695
09/25/2014  10:53:00     -390.470     -398.988       -6.642      231.483      244.432      105.275    53584.579    59746.928    11082.821       21.804        6.221      558.264      114.094        0.042      345.439       22.965      857.607
09/25/2014  10:54:00     -350.683     -474.324      -18.432      205.168      186.168      102.458    42093.827    34658.654    10497.643       21.776        4.363      589.883       79.531        0.018      345.438       22.965      857.615
09/25/2014  10:55:00     -221.837     -210.643        2.515      203.615      140.264       89.225    41459.167    19674.031     7961.072        8.133        3.455      305.912       83.834        0.075      345.549       23.155      857.620
09/25/2014  10:56:00     -162.476     -282.007        6.444      172.542      150.128       72.517    29770.852    22538.530     5258.671        8.176        2.878      325.464       69.493        0.046      345.595       23.234      857.608
09/25/2014  10:57:00     -188.938     -185.282      -16.569      128.433      129.648       63.529    16494.917    16808.592     4035.953        5.381        1.867      264.626       61.118        0.053      345.686       23.391      857.601
09/25/2014  10:58:00     -208.988     -116.527        2.365      140.867       92.623       57.438    19843.538     8578.931     3299.089        4.449        1.586      239.279       62.659        0.069      345.849       23.672      857.553
09/25/2014  10:59:00     -156.163     -236.684        5.096      151.746      121.196       78.865    23026.734    14688.360     6219.744        6.218        2.197      283.560       67.212        0.056      345.834       23.644      857.582
09/25/2014  11:00:00     -238.766     -296.282      -31.064      206.121      158.382       67.801    42485.787    25084.894     4597.012       10.895        3.608      380.516       71.366        0.035      345.643       23.316      857.624
09/25/2014  11:01:00      -30.945     -191.619      -12.729      162.879       83.004       75.532    26529.504     6889.657     5705.020        3.847        1.956      194.101       38.620        0.040      345.870       23.707      857.562
09/25/2014  11:02:00       25.752     -225.647        1.495      158.191      138.973       75.921    25024.419    19313.525     5763.961        5.083        2.505      227.112       68.787        0.092      346.001       23.932      857.541
09/25/2014  11:03:00      -76.120     -277.214       17.713      186.054      182.493       82.081    34615.973    33303.776     6737.277        7.879        3.733      287.475       77.252        0.072      345.785       23.560      857.571
09/25/2014  11:04:00     -275.148     -137.893      -13.508      147.863      111.830       63.165    21863.546    12506.011     3989.755        6.662        1.918      307.767       62.598        0.041      345.848       23.668      857.499
09/25/2014  11:05:00      -74.567     -219.713       -6.862      102.979      101.080       57.704    10604.716    10217.179     3329.731        3.901        1.208      232.021       45.264        0.038      345.875       23.714      857.499
09/25/2014  11:06:00     -196.503     -228.815        2.277      159.910      117.598       81.977    25571.205    13829.213     6720.299        6.854        2.306      301.611       70.357        0.054      345.929       23.807      857.501
09/25/2014  11:07:00     -297.468     -261.547       -7.738      167.021      177.667       74.323    27896.153    31565.629     5523.858       11.096        3.249      396.098       78.049        0.039      345.930       23.810      857.524
09/25/2014  11:08:00     -151.103     -279.954       21.968      214.507      232.194       96.046    46013.293    53913.830     9224.925       10.540        5.458      318.129       87.781        0.076      345.941       23.828      857.582
09/25/2014  11:09:00      -49.444      -27.617       17.311      178.094      161.298       96.641    31717.415    26016.888     9339.574        3.528        3.354       56.634       91.056        2.585      346.186       24.252      857.478
09/25/2014  11:10:00       13.517     -206.722       36.789      158.971      150.082      104.476    25271.643    22524.698    10915.302        5.148        2.936      207.164       91.151        0.194      346.039       23.999      857.454
09/25/2014  11:11:00     -178.734      -83.771      -23.286      115.092      111.667       48.635    13246.240    12469.476     2365.409        3.379        1.404      197.392       51.020        0.067      346.071       24.053      857.419
09/25/2014  11:12:00     -125.129     -201.453       -7.534      191.111      177.665       90.704    36523.595    31564.939     8227.154        6.629        3.816      237.151       82.841        0.122      345.982       23.899      857.421
09/25/2014  11:13:00     -441.430     -205.609       -7.137      293.813      165.861       91.994    86326.261    27509.908     8462.814       17.972        6.115      486.966       99.916        0.042      346.007       23.941      857.359
09/25/2014  11:14:00     -332.630     -314.352        5.196      236.317      234.432      101.295    55845.628    54958.540    10260.733       16.526        6.053      457.668      105.604        0.053      345.934       23.817      857.403
09/25/2014  11:15:00     -312.178     -315.744       11.058      221.641      209.285      103.669    49124.697    43800.173    10747.195       15.045        5.184      444.015       95.473        0.046      345.999       23.927      857.441
09/25/2014  11:16:00     -351.367     -512.731      -34.264      232.846      266.135      110.744    54217.369    70827.583    12264.281       26.239        6.865      621.572      115.647        0.035      345.863       23.696      857.511
09/25/2014  11:17:00     -146.134     -294.520      -11.107      164.196      160.230       95.568    26960.484    25673.583     9133.273        8.498        3.088      328.782       49.906        0.023      345.996       23.924      857.555
09/25/2014  11:18:00     -209.104     -193.663       22.935      217.326      173.043       81.951    47230.392    29943.871     6716.042        8.281        4.195      285.009       96.589        0.115      346.082       24.072      857.517
09/25/2014  11:19:00     -291.700     -427.260      -21.163      293.667      201.596      120.747    86240.290    40640.791    14579.882       20.475        7.073      517.339      116.478        0.051      345.825       23.628      857.610
09/25/2014  11:20:00     -410.805     -286.773      -47.361      225.272      208.163       99.966    50747.630    43332.003     9993.301       17.864        5.204      500.999       90.583        0.033      345.743       23.489      857.549
09/25/2014  11:21:00     -279.588     -186.726       -3.495      281.206      166.270       97.959    79076.863    27645.648     9596.046       11.466        5.816      336.208       82.687        0.060      346.019       23.962      857.474
09/25/2014  11:22:00     -244.948     -277.623       -2.394      256.736      143.726       97.228    65913.630    20657.220     9453.258       11.654        4.801      370.234      114.848        0.096      346.052       24.018      857.523
09/25/2014  11:23:00       13.152     -305.395      -26.129      215.628      207.984       96.209    46495.275    43257.444     9256.205        9.655        4.950      305.678       92.459        0.091      346.116       24.129      857.537
09/25/2014  11:24:00       11.118     -332.622        3.451      228.781      193.021      119.991    52340.845    37256.988    14397.874       10.737        5.200      332.808       97.177        0.085      346.008       23.943      857.568
09/25/2014  11:25:00      -19.724     -228.813      -25.212      166.573      147.134       99.465    27746.598    21648.419     9893.252        5.632        2.964      229.661       76.529        0.111      346.032       23.985      857.577
09/25/2014  11:26:00      -98.947     -160.615       17.098      126.674      131.914       91.596    16046.204    17401.179     8389.876        3.885        2.092      188.647       44.317        0.055      346.122       24.139      857.581
09/25/2014  11:27:00      -79.409      -41.927       14.447       99.940       82.031       44.059     9988.052     6729.165     1941.215        1.346        0.933       89.798       34.435        0.147      346.263       24.384      857.593
09/25/2014  11:28:00     -223.545     -241.713       -3.551      187.302      174.927       76.307    35082.006    30599.578     5822.758        8.995        3.575      329.238       83.296        0.064      346.015       23.956      857.590
09/25/2014  11:29:00       41.453      -94.433       10.574      169.577      239.830      100.407    28756.217    57518.609    10081.491        5.354        4.818      103.131       80.746        0.613      346.425       24.662      857.598
09/25/2014  11:30:00        0.956     -426.539       -7.729      217.706      212.793      108.128    47396.051    45280.805    11691.641       14.316        5.218      426.540       87.092        0.042      346.011       23.948      857.674
09/25/2014  11:31:00      123.262     -304.352       -9.348      161.598      184.847      135.320    26114.068    34168.290    18311.597        9.324        3.930      328.365      106.518        0.105      345.995       23.922      857.574
09/25/2014  11:32:00      110.241     -231.201       -2.866      158.337      197.726      106.776    25070.594    39095.678    11401.147        7.058        3.778      256.139      110.253        0.185      346.039       23.998      857.567
09/25/2014  11:33:00      -52.190     -122.874       31.215      150.790      208.980       96.322    22737.521    43672.722     9277.961        4.723        3.784      133.498      105.933        0.630      346.284       24.420      857.629
09/25/2014  11:34:00      -26.757     -203.806       56.832      188.606      298.646      175.222    35572.259    89189.497    30702.864       10.045        7.773      205.555      200.860        0.955      346.039       23.997      857.651
09/25/2014  11:35:00       15.403     -162.866       42.077       90.493      196.895       85.709     8189.067    38767.708     7346.081        4.141        2.715      163.593      117.237        0.514      346.198       24.272      857.582
09/25/2014  11:36:00      153.993     -133.972       43.770      145.619      217.320      127.863    21204.867    47227.845    16348.947        6.417        4.239      204.113      148.694        0.531      346.272       24.398      857.524
09/25/2014  11:37:00       82.038     -298.629      -43.555      157.822      143.941       86.427    24907.794    20719.059     7469.689        7.544        2.655      309.692       94.525        0.093      346.307       24.457      857.448
09/25/2014  11:38:00     -132.485     -220.470      -10.388      243.602      176.722       88.704    59342.142    31230.636     7868.448        8.234        4.922      257.215       50.746        0.039      346.190       24.255      857.432
09/25/2014  11:39:00     -240.048     -182.205       26.636      256.948      215.860      129.767    66022.452    46595.563    16839.375       11.047        6.473      301.367      145.263        0.232      345.986       23.906      857.457
09/25/2014  11:40:00     -198.617     -176.129       22.971      208.587      166.872      116.845    43508.639    27846.210    13652.671        7.799        4.250      265.462      134.598        0.257      345.808       23.600      857.647
09/25/2014  11:41:00     -191.183      -92.177       36.056      230.606      201.322      112.886    53178.999    40530.365    12743.201        7.638        5.323      212.244      123.347        0.338      345.789       23.568      857.727
09/25/2014  11:42:00       63.970      237.177        6.856      133.499      186.276       98.437    17822.077    34698.598     9689.745        6.129        3.111      245.653      104.179        0.180      344.992       22.202      857.882
09/25/2014  11:43:00     -192.566      155.784      -28.837      145.122      299.278       72.321    21060.476    89567.316     5230.313        8.900        5.793      247.690       83.006        0.112      345.072       22.339      857.974
09/25/2014  11:44:00     -427.870     -160.544      -19.503      273.630      150.785       99.338    74873.253    22736.048     9868.104       15.833        5.374      456.998      120.065        0.069      344.946       22.122      858.055
09/25/2014  11:45:00     -444.372     -132.114      -11.008      282.793      211.852      115.320    79971.708    44881.396    13298.629       17.657        6.908      463.595      137.068        0.087      344.684       21.675      858.091
09/25/2014  11:46:00     -364.839     -174.698      -10.094      260.295      233.513      103.624    67753.672    54528.362    10737.918       14.835        6.651      404.508      118.774        0.086      344.598       21.527      858.080
09/25/2014  11:47:00     -550.433      -74.890      -44.975      360.900      201.938      102.535   130248.839    40779.022    10513.456       24.604        9.077      555.504      144.874        0.068      344.609       21.546      857.991
09/25/2014  11:48:00     -418.776     -186.034      -10.791      250.231      184.540      100.284    62615.563    34055.064    10056.874       15.840        5.336      458.239      121.437        0.070      344.662       21.637      857.870
09/25/2014  11:49:00     -350.853     -138.340        5.576      243.604      154.164       92.578    59342.912    23766.534     8570.624       11.696        4.584      377.141       90.581        0.058      344.783       21.843      857.871
09/25/2014  11:50:00     -297.065      -35.581        5.993      224.185      176.762      100.319    50258.867    31244.890    10063.808        9.054        4.578      299.188      117.312        0.154      345.010       22.233      857.942
09/25/2014  11:51:00     -457.344      -83.786      -30.964      281.196      200.318      108.108    79071.322    40127.189    11687.248       17.399        6.544      464.955      113.188        0.059      344.740       21.769      857.969
09/25/2014  11:52:00     -263.877       31.419       13.722      193.290      194.998       99.293    37360.993    38024.171     9859.063        7.801        4.262      265.741       98.669        0.138      344.979       22.179      857.990
09/25/2014  11:53:00     -506.877      -93.701       -3.177      271.235      152.132      101.284    73568.652    23144.230    10258.450       18.632        5.349      515.465      120.181        0.054      344.618       21.563      857.960
09/25/2014  11:54:00     -555.644     -228.852       -9.643      328.193      204.866      105.203   107710.489    41969.983    11067.642       26.095        8.037      600.927      126.947        0.045      344.510       21.378      857.953
09/25/2014  11:55:00     -356.510      -30.190      -23.004      279.727      243.097       90.929    78247.313    59095.978     8268.064       13.705        7.281      357.786       98.303        0.075      344.611       21.550      857.948
09/25/2014  11:56:00     -114.870       30.825       24.012      133.754      100.468       68.996    17890.233    10093.726     4760.471        2.373        1.637      118.934       32.126        0.073      345.208       22.573      857.954
09/25/2014  11:57:00     -408.828     -156.363      -25.329      201.743      278.718       89.702    40700.403    77683.969     8046.406       15.931        6.322      437.709       79.060        0.033      344.758       21.802      858.018
09/25/2014  11:58:00     -336.766     -221.246      -16.881      187.686      194.502       94.509    35226.126    37830.971     8931.905       12.230        4.099      402.940       97.303        0.058      344.361       21.122      858.035
09/25/2014  11:59:00     -293.136     -132.898        5.693      218.008      174.644       97.888    47527.613    30500.601     9582.007        9.560        4.381      321.855      104.510        0.105      344.877       22.006      858.040
09/25/2014  12:00:00     -318.021      -26.079      -21.644      244.179      148.191       96.048    59623.229    21960.699     9225.154        9.653        4.540      319.089      105.525        0.109      344.822       21.910      857.976
09/25/2014  12:01:00     -357.115      -13.622      -13.419      181.386      164.735       70.890    32900.913    27137.645     5025.455        9.647        3.253      357.375       74.952        0.044      344.846       21.950      857.897
09/25/2014  12:02:00     -223.745     -133.580      -12.527      131.823      141.554       78.331    17377.240    20037.463     6135.780        5.580        2.178      260.587       72.224        0.077      344.886       22.019      857.865
09/25/2014  12:03:00     -296.998     -172.994      -14.822      179.001      178.297       85.899    32041.328    31789.665     7378.614        9.477        3.560      343.707       85.112        0.061      344.774       21.829      857.851
09/25/2014  12:04:00     -124.324      -82.151       16.538      168.698       90.521       69.737    28459.178     8194.097     4863.229        3.199        2.076      149.014       83.414        0.313      345.232       22.613      857.942
09/25/2014  12:05:00     -346.714     -251.924      -11.739      221.966      184.460       88.141    49268.711    34025.617     7768.862       13.742        4.553      428.575       90.666        0.045      344.762       21.808      858.061
09/25/2014  12:06:00     -591.744     -151.404      -46.549      218.995      171.802      102.037    47958.894    29516.053    10411.520       23.155        4.394      610.806      115.988        0.036      344.535       21.420      858.060
09/25/2014  12:07:00     -346.330     -140.914        0.597      195.720      179.828       85.381    38306.299    32337.999     7289.883       10.885        3.897      373.900       78.093        0.044      344.718       21.734      857.951
09/25/2014  12:08:00      -93.766      -77.643       32.753      176.194      146.428       94.051    31044.221    21441.167     8845.625        3.860        3.067      121.740       97.926        0.647      345.074       22.343      857.823
09/25/2014  12:09:00     -345.793     -184.918      -11.476      293.102      208.642      101.520    85908.814    43531.634    10306.235       14.680        6.987      392.132      130.168        0.110      344.739       21.770      857.851
09/25/2014  12:10:00     -543.291     -323.827      -17.740      230.965      230.186      101.091    53344.635    52985.737    10219.378       25.843        5.827      632.479      113.322        0.032      344.425       21.231      857.889
09/25/2014  12:11:00     -772.174     -286.079      -56.413      330.486      320.564      125.993   109220.745   102761.407    15874.144       45.453       11.393      823.465      138.609        0.028      344.071       20.626      857.818
09/25/2014  12:12:00     -472.339     -111.262      -11.627      298.086      186.110       94.016    88855.177    34636.770     8839.080       18.395        6.617      485.266      106.011        0.048      344.406       21.199      857.780
09/25/2014  12:13:00     -380.724     -209.112      -15.648      239.917      300.070      108.048    57560.357    90042.213    11674.310       17.407        7.964      434.372      120.652        0.077      344.484       21.333      857.725
09/25/2014  12:14:00     -273.152     -162.803       -3.079      217.317      203.229      101.869    47226.614    41301.830    10377.234       10.000        4.945      317.989      117.897        0.137      344.704       21.708      857.795
09/25/2014  12:15:00     -378.630     -158.478       10.763      277.018      223.707      122.390    76739.233    50045.036    14979.237       15.515        7.088      410.458      133.444        0.106      344.628       21.578      857.794
09/25/2014  12:16:00     -331.328     -261.120        2.092      292.560      231.269      155.058    85591.232    53485.181    24043.048       17.052        8.156      421.856      179.469        0.181      344.480       21.324      857.772
09/25/2014  12:17:00     -411.270     -115.106       -4.923      228.349      250.829      109.265    52143.086    62915.002    11938.749       15.469        6.350      427.075      112.558        0.069      344.626       21.575      857.750
09/25/2014  12:18:00     -479.134     -245.272        1.464      322.718      268.082      158.047   104146.649    71867.817    24978.774       24.533       10.050      538.263      183.174        0.116      344.360       21.119      857.754
09/25/2014  12:19:00     -340.506     -128.397      -22.151      287.941      216.814      116.940    82910.114    47008.380    13674.941       13.823        7.180      363.909      141.877        0.152      344.443       21.263      857.705
09/25/2014  12:20:00     -366.628      -97.619      -13.629      285.631      208.160      124.805    81584.885    43330.759    15576.281       14.229        7.025      379.402      146.106        0.148      344.766       21.815      857.609
09/25/2014  12:21:00     -472.443     -123.616      -11.636      274.733      194.769      115.200    75477.973    37934.925    13271.136       18.263        6.334      488.347      129.313        0.070      344.735       21.762      857.575
09/25/2014  12:22:00     -330.414     -266.360       -4.803      208.728      176.849      120.234    43567.284    31275.494    14456.294       13.471        4.465      424.407      124.957        0.087      344.791       21.857      857.679
09/25/2014  12:23:00     -606.461     -102.920      -15.389      409.282      253.438      126.509   167512.055    64230.966    16004.628       31.314       12.387      615.132      170.734        0.077      344.669       21.649      857.663
09/25/2014  12:24:00     -450.106     -235.881       -8.049      319.800      268.681      147.791   102272.334    72189.402    21842.279       22.727        9.815      508.168      176.449        0.121      344.484       21.333      857.637
09/25/2014  12:25:00     -427.074     -249.692       -0.101      249.820      235.658      111.655    62410.038    55534.792    12466.733       18.755        6.521      494.711      114.645        0.054      344.354       21.110      857.610
09/25/2014  12:26:00     -580.049     -367.968      -22.043      327.707      225.406      148.450   107391.878    50807.922    22037.388       32.626        9.012      686.918      181.244        0.070      344.224       20.887      857.602
09/25/2014  12:27:00     -494.157     -319.308      -11.214      283.530      192.086      115.829    80389.050    36897.222    13416.443       23.847        6.535      588.344      122.366        0.043      344.384       21.161      857.622
09/25/2014  12:28:00     -482.611     -251.564      -20.270      276.466      265.876      118.685    76433.484    70690.220    14086.056       22.888        8.060      544.240      120.891        0.049      344.369       21.137      857.609
09/25/2014  12:29:00     -494.702      -29.244      -23.908      320.503      245.621      123.875   102722.110    60329.718    15345.125       21.225        8.920      495.565      135.149        0.074      344.547       21.440      857.571
09/25/2014  12:30:00     -450.386     -240.579       -9.099      237.293      222.345      109.864    56307.854    49437.516    12070.204       18.929        5.891      510.613      115.386        0.051      344.445       21.265      857.500
09/25/2014  12:31:00     -582.004      -78.326      -44.012      323.020      255.538      111.554   104341.631    65299.636    12444.355       26.441        9.104      587.251      133.552        0.052      344.381       21.155      857.540
09/25/2014  12:32:00     -434.966     -111.375       11.954      340.672      255.238      127.909   116057.192    65146.539    16360.753       19.962        9.878      448.999      149.475        0.111      344.490       21.342      857.591
09/25/2014  12:33:00     -429.468     -271.837      -14.286      337.798      230.464      131.698   114107.625    53113.873    17344.317       22.152        9.228      508.270      139.446        0.075      344.528       21.407      857.668
09/25/2014  12:34:00     -738.393     -279.779      -35.573      259.203      228.154      130.254    67186.024    52054.372    16966.134       38.046        6.810      789.620      123.041        0.024      344.321       21.053      857.653
09/25/2014  12:35:00     -419.607     -136.871       -6.862      309.474      226.100      100.413    95774.445    51121.154    10082.832       17.589        7.849      441.366      131.770        0.089      344.623       21.571      857.718
09/25/2014  12:36:00     -442.873     -290.977        5.813      297.557      238.605      150.154    88540.114    56932.369    22546.172       22.440        8.401      529.910      146.729        0.077      344.427       21.233      857.665
09/25/2014  12:37:00     -808.380     -186.564      -32.549      413.545      322.994      143.155   171019.156   104324.982    20493.248       49.254       14.792      829.629      177.745        0.046      344.334       21.075      857.605
09/25/2014  12:38:00     -531.082     -310.385      -23.460      298.018      283.305      147.197    88814.875    80261.832    21667.049       28.481        9.537      615.131      147.391        0.057      344.358       21.116      857.534
09/25/2014  12:39:00     -460.534      -72.171       33.523      314.339      291.424      142.635    98809.293    84928.203    20344.610       21.122       10.204      466.155      173.071        0.138      344.572       21.484      857.481
09/25/2014  12:40:00     -635.075     -171.190      -29.500      345.826      229.053      119.677   119595.634    52465.169    14322.548       30.991        9.319      657.743      149.751        0.052      344.556       21.456      857.411
09/25/2014  12:41:00     -476.413     -231.867       -9.900      267.041      249.571      122.920    71311.099    62285.714    15109.222       21.474        7.435      529.841      130.706        0.061      344.537       21.422      857.459
09/25/2014  12:42:00     -384.891     -224.543       15.318      245.964      191.523      110.916    60498.262    36681.202    12302.396       15.412        5.474      445.602      119.609        0.072      344.785       21.848      857.529
09/25/2014  12:43:00     -608.468     -157.725      -13.221      341.653      260.370      145.883   116726.885    67792.524    21281.731       30.051       10.290      628.579      169.190        0.072      344.662       21.637      857.502
09/25/2014  12:44:00     -428.124     -209.769       -3.374      288.452      248.025      123.802    83204.326    61516.579    15326.924       19.365        8.002      476.753      130.660        0.075      344.666       21.644      857.543
09/25/2014  12:45:00     -502.083     -351.088       -8.262      311.169      210.886      139.153    96825.839    44473.084    19363.655       26.801        8.033      612.659      160.715        0.069      344.553       21.450      857.551
09/25/2014  12:46:00     -504.086     -281.903       13.106      349.403      283.544      156.058   122082.454    80397.326    24353.989       28.025       11.342      577.556      184.931        0.103      344.614       21.554      857.561
09/25/2014  12:47:00     -703.045     -440.204      -29.573      350.797      240.577      136.028   123058.686    57877.324    18503.491       44.415        9.972      829.490      163.989        0.039      344.476       21.318      857.566
09/25/2014  12:48:00     -600.729     -190.513      -33.464      345.736      288.045      120.007   119533.688    82969.767    14401.654       30.756       10.845      630.215      142.277        0.051      344.528       21.406      857.611
09/25/2014  12:49:00     -853.193     -264.019      -37.026      438.587      343.670      140.531   192358.745   118108.984    19748.942       56.456       16.511      893.109      157.707        0.031      344.279       20.981      857.609
09/25/2014  12:50:00     -425.391     -231.225       10.563      319.094      258.458      124.376   101820.680    66800.455    15469.323       20.928        9.205      484.172      154.217        0.101      344.405       21.198      857.647
09/25/2014  12:51:00     -331.804     -226.862       31.486      294.994      207.611      130.719    87021.462    43102.418    17087.459       15.486        7.361      401.945      150.321        0.140      344.532       21.414      857.673
09/25/2014  12:52:00     -483.553     -395.364      -10.774      318.127      280.068      148.244   101205.010    78438.139    21976.295       29.590       10.081      624.609      167.814        0.072      344.464       21.298      857.658
09/25/2014  12:53:00     -350.201     -142.930       11.938      318.365      178.749      113.296   101356.056    31951.357    12835.972       14.465        7.307      378.245      131.288        0.120      344.525       21.401      857.712
09/25/2014  12:54:00     -630.366      -53.796      -33.360      284.834      255.704      123.379    81130.310    65384.774    15222.481       28.153        8.087      632.657      134.488        0.045      344.205       20.855      857.642
09/25/2014  12:55:00     -493.329     -250.989       -9.694      333.037      274.953      139.691   110913.861    75599.194    19513.526       25.621       10.301      553.506      156.689        0.080      344.181       20.816      857.644
09/25/2014  12:56:00     -454.020     -169.484        4.524      253.701      193.795      115.709    64364.095    37556.535    13388.606       17.507        5.765      484.622      133.278        0.076      344.275       20.976      857.627
09/25/2014  12:57:00     -378.819      -82.401        7.038      245.297      198.685      101.287    60170.713    39475.785    10258.976       13.011        5.495      387.678      113.282        0.085      344.436       21.251      857.638
09/25/2014  12:58:00     -535.158     -292.607       -7.447      336.404      261.478      141.776   113167.545    68370.959    20100.368       28.682       10.082      609.929      161.054        0.070      344.183       20.817      857.636
09/25/2014  12:59:00     -770.860     -253.010      -24.638      404.883      258.912      174.343   163930.570    67035.236    30395.392       46.006       13.068      811.319      195.281        0.058      344.022       20.542      857.580
09/25/2014  13:00:00     -762.424     -129.075      -23.894      293.124      272.622      130.424    85921.862    74322.804    17010.414       38.786        8.863      773.273      132.996        0.030      343.989       20.485      857.564
09/25/2014  13:01:00     -454.347     -157.104       -4.269      365.925      257.912      135.420   133900.751    66518.586    18338.618       22.491       10.938      480.741      185.414        0.149      344.069       20.623      857.551
09/25/2014  13:02:00     -314.911      -20.630       -4.188      238.839      130.390       88.956    57044.043    17001.550     7913.255        9.077        4.098      315.586      114.080        0.131      344.272       20.969      857.544
09/25/2014  13:03:00     -345.735      -42.662       -1.460      264.744      221.721      110.272    70089.549    49160.273    12159.983       12.636        6.570      348.357      121.930        0.123      344.338       21.081      857.494
09/25/2014  13:04:00     -755.710     -100.630      -52.987      302.878      258.535      135.547    91735.115    66840.277    18372.933       38.046        8.847      762.381      133.742        0.031      344.072       20.627      857.489
09/25/2014  13:05:00     -320.485     -205.589        4.233      272.407      199.828      114.319    74205.366    39931.230    13068.750       13.608        6.360      380.759      127.812        0.113      344.163       20.784      857.505
09/25/2014  13:06:00     -394.329     -161.686        5.638      298.297      201.347      100.335    88980.860    40540.577    10067.042       16.061        6.979      426.190      133.625        0.098      344.214       20.872      857.475
09/25/2014  13:07:00     -258.377       -9.637       30.508      295.294      201.269      116.843    87198.760    40509.220    13652.185       10.455        7.068      258.557      132.926        0.264      344.214       20.871      857.405
09/25/2014  13:08:00     -348.050     -176.226       16.090      234.951      200.065       98.438    55201.933    40026.171     9690.033       12.867        5.246      390.121      101.331        0.067      344.136       20.737      857.410
09/25/2014  13:09:00     -749.806       55.753      -62.061      338.521      219.006      118.401   114596.289    47963.760    14018.765       37.284        8.829      751.876      132.951        0.031      344.055       20.600      857.374
09/25/2014  13:10:00     -619.851       10.797      -21.098      272.830      197.028      127.754    74436.345    38820.162    16321.093       25.716        6.479      619.945      139.624        0.051      344.054       20.596      857.345
09/25/2014  13:11:00     -761.329     -108.156      -26.075      245.204      199.088      113.753    60125.177    39636.074    12939.687       35.233        5.635      768.973      114.723        0.022      344.046       20.582      857.366
09/25/2014  13:12:00     -520.999      -36.528      -12.904      276.119      246.867      123.516    76241.489    60943.336    15256.093       21.267        7.622      522.278      136.806        0.069      344.062       20.610      857.302
09/25/2014  13:13:00     -434.747      -20.315       -1.176      202.697      157.816       96.339    41086.093    24905.800     9281.292       13.233        3.764      435.221       99.928        0.053      344.084       20.648      857.259
09/25/2014  13:14:00     -428.070      -45.662       -7.771      275.055      153.739       92.298    75655.247    23635.827     8518.997       14.658        5.391      430.498      108.498        0.064      344.146       20.755      857.277
09/25/2014  13:15:00     -447.567     -163.855      -35.266      336.439      261.041      122.448   113191.249    68142.423    14993.591       21.234        9.816      476.618      162.376        0.116      344.088       20.657      857.231
09/25/2014  13:16:00     -682.387      -38.012      -22.801      310.149      295.630      117.083    96192.363    87396.882    13708.369       33.242        9.865      683.444       85.930        0.016      343.959       20.435      857.229
09/25/2014  13:17:00     -626.271     -208.326      -29.675      352.953      249.772      137.622   124575.721    62386.115    18939.769       32.116       10.295      660.012      165.720        0.063      343.915       20.359      857.168
09/25/2014  13:18:00     -296.648      -65.635        5.804      341.995      154.322       95.260   116960.642    23815.157     9074.524       12.107        7.493      303.823      132.172        0.189      344.039       20.574      857.151
09/25/2014  13:19:00     -363.434     -145.943       11.515      246.049      186.164      114.782    60540.049    34657.183    13174.958       13.093        5.419      391.642      134.011        0.117      343.899       20.332      857.136
09/25/2014  13:20:00     -555.320      -78.273      -34.149      294.359      218.031      113.815    86647.154    47537.727    12953.934       23.138        7.357      560.809      140.874        0.063      343.845       20.241      857.130
09/25/2014  13:21:00     -406.445      -83.560        2.485      352.682      166.139      107.857   124384.589    27602.067    11633.147       16.788        8.181      414.945      145.210        0.122      343.888       20.315      857.149
09/25/2014  13:22:00     -530.046     -281.188      -31.558      295.154      222.529      127.285    87115.765    49519.326    16201.356       25.690        7.642      600.013      121.625        0.041      343.839       20.229      857.162
09/25/2014  13:23:00     -374.774     -203.884       -3.385      277.431      193.842      117.711    76967.912    37574.715    13855.856       15.520        6.420      426.643      123.111        0.083      343.914       20.358      857.203
09/25/2014  13:24:00     -329.662      -95.163        0.009      204.056      167.510      100.727    41638.761    28059.503    10145.985        9.878        3.992      343.122      101.090        0.087      343.940       20.402      857.238
09/25/2014  13:25:00     -341.186     -110.892       -9.056      266.094      172.071      113.638    70806.216    29608.352    12913.537       12.104        5.666      358.755      124.409        0.120      343.948       20.418      857.242
09/25/2014  13:26:00     -615.962     -126.770      -22.482      280.291      266.357      111.058    78563.066    70946.052    12333.875       27.889        8.092      628.872      105.027        0.028      343.895       20.325      857.220
09/25/2014  13:27:00     -331.144      -56.357        0.414      254.043      148.146       92.993    64537.759    21947.282     8647.611       10.397        4.757      335.906      118.148        0.124      344.040       20.572      857.159
09/25/2014  13:28:00     -376.073     -248.280      -17.437      280.720      199.695       99.867    78803.879    39878.078     9973.346       16.600        6.433      450.637      110.614        0.060      344.058       20.605      857.138
09/25/2014  13:29:00     -195.560     -169.589        2.428      296.871      247.929      152.745    88132.300    61468.871    23331.120       11.994        8.647      258.851      166.467        0.414      344.104       20.684      857.190
09/25/2014  13:30:00     -326.097     -182.858      -20.236      197.577      186.048       89.074    39036.680    34613.750     7934.234       11.087        4.079      373.866       90.540        0.059      344.042       20.576      857.332
09/25/2014  13:31:00     -258.962      -80.566       11.260      265.794      161.670      100.779    70646.261    26137.304    10156.393        9.029        5.347      271.205      121.441        0.201      344.048       20.587      857.316
09/25/2014  13:32:00     -368.113     -177.905        8.070      280.892      176.888       95.644    78900.103    31289.448     9147.816       14.326        5.967      408.848      120.014        0.086      343.889       20.316      857.314
09/25/2014  13:33:00     -289.443     -162.721        4.443      223.941      223.388       91.487    50149.740    49901.988     8369.894       10.933        5.421      332.047      117.611        0.125      344.010       20.524      857.293
09/25/2014  13:34:00     -315.694     -146.160        2.386      279.784      179.393       97.486    78279.027    32181.941     9503.493       12.048        5.998      347.887      131.793        0.144      344.022       20.542      857.350
09/25/2014  13:35:00     -496.732      -76.731      -15.771      437.580      236.628      124.367   191476.592    55992.798    15467.154       25.786       13.147      502.623      177.128        0.124      344.004       20.512      857.344
09/25/2014  13:36:00     -643.880     -109.512      -42.567      311.462      227.449      128.375    97008.786    51733.179    16480.203       29.678        8.261      653.126      143.934        0.049      343.986       20.481      857.364
09/25/2014  13:37:00     -407.183     -110.379       12.749      311.507      184.862       90.619    97036.387    34174.080     8211.733       15.876        6.971      421.879      111.160        0.069      344.059       20.605      857.432
09/25/2014  13:38:00     -435.543     -216.435       -0.163      272.001      197.112       84.228    73984.548    38853.281     7094.381       17.822        5.997      486.356      105.232        0.047      344.081       20.643      857.475
09/25/2014  13:39:00     -374.764     -122.794       -5.397      262.157      210.945      101.300    68726.475    44497.583    10261.685       13.950        6.174      394.368      106.124        0.072      343.997       20.501      857.526
09/25/2014  13:40:00     -299.447      -43.942        6.489      265.281      163.590      103.564    70373.990    26761.777    10725.481        9.973        5.393      302.654      130.876        0.187      344.009       20.521      857.493
09/25/2014  13:41:00     -375.859     -152.186      -32.369      225.108      142.591       82.495    50673.643    20332.201     6805.351       12.163        3.891      405.501       74.123        0.033      343.850       20.249      857.521
09/25/2014  13:42:00     -368.894     -138.604        9.752      243.078      152.586      100.071    59086.838    23282.525    10014.229       12.387        4.619      394.074      109.150        0.077      343.934       20.392      857.541
09/25/2014  13:43:00     -159.777     -101.951       32.127      202.306      201.693      111.600    40927.738    40679.939    12454.636        6.549        4.703      189.532      118.365        0.390      343.967       20.450      857.538
09/25/2014  13:44:00     -354.392      -74.089       -3.653      194.522      160.616       87.961    37838.938    25797.596     7737.086       10.122        3.569      362.053       95.887        0.070      343.856       20.258      857.552
09/25/2014  13:45:00     -302.261     -237.856       -3.060      230.535      188.337      109.410    53146.448    35470.765    11970.623       12.425        5.029      384.626      125.676        0.107      343.851       20.253      857.526
09/25/2014  13:46:00     -388.351      -69.844       -6.817      196.667      151.857       83.212    38677.962    23060.459     6924.287       11.219        3.433      394.582       92.192        0.055      343.829       20.213      857.472
09/25/2014  13:47:00     -226.257      -98.595        8.657      214.259      126.113       68.545    45906.760    15904.549     4698.448        6.374        3.325      246.806       93.114        0.142      343.910       20.354      857.445
09/25/2014  13:48:00     -263.819     -212.522       11.747      213.515      170.647      107.607    45588.490    29120.401    11579.251       10.058        4.314      338.771      109.250        0.104      343.854       20.256      857.412
09/25/2014  13:49:00     -461.562     -209.601      -15.076      297.942      168.888      116.064    88769.489    28523.320    13470.773       19.396        6.538      506.924      135.491        0.071      343.929       20.384      857.374
09/25/2014  13:50:00     -290.342     -171.605       13.293      206.613      201.357      103.808    42688.756    40544.467    10776.134       10.395        4.700      337.263      117.297        0.121      344.074       20.632      857.312
09/25/2014  13:51:00     -167.543     -116.973       30.268      162.871      173.157       85.603    26527.006    29983.444     7327.799        5.324        3.192      204.336       76.834        0.141      344.193       20.835      857.346
09/25/2014  13:52:00     -377.216     -115.678      -13.596      222.024      140.719       87.102    49294.456    19801.722     7586.819       11.626        3.834      394.554      101.132        0.066      344.274       20.974      857.374
09/25/2014  13:53:00     -379.120     -134.858      -22.011      201.905      198.164       90.363    40765.692    39269.057     8165.517       12.529        4.410      402.391       97.540        0.059      344.288       20.997      857.349
09/25/2014  13:54:00     -138.649      -88.403       24.123      140.016      157.174       71.835    19604.617    24703.806     5160.290        3.854        2.473      164.434       78.859        0.230      344.382       21.160      857.383
09/25/2014  13:55:00     -231.905     -155.902        5.412      187.040      146.302       98.823    34983.855    21404.244     9766.002        7.212        3.308      279.438      107.038        0.147      344.332       21.072      857.390
09/25/2014  13:56:00     -349.463     -147.984      -25.036      191.241      217.300       92.688    36573.042    47219.329     8591.049       11.850        4.619      379.505      103.302        0.074      344.192       20.834      857.436
09/25/2014  13:57:00      -98.244      -69.982       22.759      146.592       98.473       58.653    21489.111     9696.946     3440.200        2.484        1.731      120.621       55.471        0.211      344.349       21.103      857.455
09/25/2014  13:58:00     -120.246      -99.791       11.418      154.869      109.625       63.926    23984.269    12017.559     4086.525        3.231        2.004      156.261       49.389        0.100      344.066       20.619      857.422
09/25/2014  13:59:00     -210.880     -243.624      -10.705      193.702      180.582       77.205    37520.591    32609.770     5960.684        9.000        3.805      322.216       53.610        0.028      343.896       20.328      857.361
09/25/2014  14:00:00     -156.036     -207.379       -5.264      109.443      186.617       57.218    11977.871    34825.781     3273.903        5.872        2.504      259.525       51.258        0.039      343.978       20.469      857.446
09/25/2014  14:01:00     -375.824     -464.425       -6.427      265.832      274.455      126.906    70666.551    75325.729    16105.141       25.951        8.105      597.440      137.284        0.053      343.553       19.741      857.376
09/25/2014  14:02:00     -596.182      -78.965      -34.502      364.340      289.880      108.404   132743.528    84030.581    11751.351       29.565       11.426      601.389      136.424        0.051      343.603       19.828      857.303
09/25/2014  14:03:00     -586.405       23.768      -26.311      264.828      206.251      107.331    70133.922    42539.653    11520.034       23.464        6.210      586.886      119.755        0.042      343.608       19.835      857.282
09/25/2014  14:04:00     -425.423     -174.075      -11.920      263.971      199.719      107.015    69680.911    39887.774    11452.166       16.620        6.051      459.660      109.488        0.057      343.697       19.988      857.335
09/25/2014  14:05:00     -267.663      -98.785       -1.872      262.129      164.607       82.246    68711.557    27095.398     6764.477        9.197        5.129      285.310      105.266        0.136      343.766       20.107      857.456
09/25/2014  14:06:00     -259.378     -127.564       -4.460      177.873      159.145       83.758    31638.775    25327.109     7015.431        7.376        3.199      289.049       87.185        0.091      343.698       19.989      857.487
09/25/2014  14:07:00     -368.709     -213.107      -14.994      268.974      189.555      112.569    72347.134    35930.923    12671.892       15.125        6.047      425.865      141.076        0.110      343.670       19.940      857.488
09/25/2014  14:08:00     -376.455      -77.109        1.248      187.401      119.461       68.158    35119.267    14270.951     4645.518       10.084        2.702      384.271       74.491        0.038      343.663       19.929      857.439
09/25/2014  14:09:00     -216.791     -172.857       -5.882      181.677      120.401       67.415    33006.710    14496.384     4544.790        6.447        2.602      277.269       78.893        0.081      343.763       20.102      857.433
09/25/2014  14:10:00     -327.837     -203.555       -6.798      285.738      166.105      111.224    81646.325    27590.895    12370.751       13.526        6.080      385.891      149.915        0.151      343.791       20.148      857.400
09/25/2014  14:11:00     -501.796     -237.981      -17.462      235.259      151.501       83.832    55346.599    22952.649     7027.850       19.702        4.266      555.369       87.348        0.025      343.845       20.241      857.343
09/25/2014  14:12:00     -277.950      -73.489        7.953      197.623      190.834       98.204    39054.999    36417.615     9644.048        8.390        4.256      287.501      107.980        0.141      343.858       20.262      857.404
09/25/2014  14:13:00     -512.967     -134.386      -27.696      274.942      167.110       97.795    75592.832    27925.740     9563.826       19.750        5.654      530.278      128.533        0.059      343.692       19.979      857.385
09/25/2014  14:14:00     -248.759     -119.199        5.996      176.523      143.815       82.208    31160.512    20682.811     6758.140        6.735        2.930      275.843       82.624        0.090      343.803       20.169      857.442
09/25/2014  14:15:00     -305.455     -279.481      -10.249      169.712      173.716       99.825    28802.223    30177.277     9965.104       12.022        3.447      414.020       86.856        0.044      343.770       20.112      857.455
09/25/2014  14:16:00     -242.996      -61.171      -10.563      134.108      162.667       63.701    17985.023    26460.689     4057.761        5.569        2.425      250.577       68.243        0.074      343.831       20.217      857.426
09/25/2014  14:17:00     -195.112      -23.104      -10.858      102.585       98.305       62.372    10523.727     9663.827     3890.239        3.140        1.204      196.475       59.212        0.091      343.826       20.209      857.438
09/25/2014  14:18:00      -90.808     -118.575        2.978       73.340      117.887       44.998     5378.742    13897.447     2024.835        2.180        1.065      149.352       38.014        0.065      343.966       20.448      857.438
09/25/2014  14:19:00     -226.028      -51.957       -5.721      112.374      102.712       67.735    12627.965    10549.829     4588.007        4.079        1.388      231.923       62.312        0.072      343.968       20.451      857.354
09/25/2014  14:20:00     -297.754     -182.054       -2.959      146.330      104.816       68.016    21412.325    10986.434     4626.109        7.941        1.851      349.000       77.413        0.049      344.116       20.703      857.416
09/25/2014  14:21:00     -134.246     -171.725        0.685      114.230      168.804       50.648    13048.416    28494.732     2565.265        4.580        2.205      217.971       60.318        0.077      344.340       21.086      857.491
09/25/2014  14:22:00      -15.492     -145.811        0.292      141.369      100.284       55.096    19985.196    10056.900     3035.531        2.728        1.654      146.632       51.504        0.123      344.534       21.421      857.505
09/25/2014  14:23:00       60.934     -182.184      -21.890       66.799      121.659       55.445     4462.141    14800.922     3074.125        2.986        1.117      192.104       36.377        0.036      344.162       20.782      857.528
09/25/2014  14:24:00      -31.039      -89.670       -4.213       46.412       51.342       35.182     2154.095     2636.042     1237.773        0.752        0.301       94.890       22.690        0.057      344.250       20.935      857.538
09/25/2014  14:25:00       49.065     -177.185       19.174      105.646      137.640       86.716    11161.112    18944.640     7519.682        3.589        1.881      183.853       87.675        0.227      344.322       21.056      857.669
09/25/2014  14:26:00      117.690     -143.151       88.133      204.237      335.969      183.428    41712.599   112875.238    33645.772       11.514        9.412      185.319      223.730        1.458      344.407       21.202      857.650
09/25/2014  14:27:00       48.542     -369.289      -21.967      154.154      186.140      109.308    23763.323    34648.070    11948.231       10.477        3.518      372.466       86.581        0.054      344.418       21.221      857.634
09/25/2014  14:28:00     -189.586     -205.829       -9.676      137.518      113.879       73.939    18911.225    12968.423     5466.923        5.787        1.867      279.837       53.795        0.037      344.371       21.140      857.693
09/25/2014  14:29:00     -450.528     -339.036      -18.362      286.318      181.347      109.439    81977.949    32886.741    11976.879       22.253        6.342      563.845      130.664        0.054      343.816       20.190      857.639
09/25/2014  14:30:00     -229.317     -360.464      -35.277      237.539      215.290       91.238    56424.900    46349.839     8324.396       14.741        5.555      427.224       62.686        0.022      343.587       19.800      857.762
09/25/2014  14:31:00     -189.451     -230.939      -12.605      186.933      239.251       90.703    34943.883    57241.256     8227.075        9.488        5.021      298.704      102.597        0.118      343.476       19.611      857.792
09/25/2014  14:32:00     -423.014     -230.127      -23.489      357.130      164.363      102.346   127541.767    27015.215    10474.799       19.871        8.252      481.559      149.193        0.096      343.402       19.486      857.797
09/25/2014  14:33:00     -318.854     -156.572        9.907      315.595      212.632      117.332    99600.176    45212.375    13766.889       14.240        7.929      355.222      144.076        0.165      343.312       19.332      857.801
09/25/2014  14:34:00     -384.541     -146.478        4.263      287.802      177.017       96.674    82830.017    31334.923     9345.850       14.641        6.176      411.495       92.014        0.050      343.203       19.146      857.745
09/25/2014  14:35:00     -505.039      -62.649      -33.919      217.200      205.785       93.081    47175.702    42347.378     8664.055       17.915        4.909      508.910       91.951        0.033      343.226       19.184      857.670
09/25/2014  14:36:00     -620.617     -113.896      -25.378      250.315      234.167      122.248    62657.412    54834.139    14944.470       26.559        6.622      630.982      110.803        0.031      343.244       19.215      857.641
09/25/2014  14:37:00     -575.143     -148.914      -34.603      241.784      228.279      111.345    58459.575    52111.095    12397.677       23.854        6.148      594.109      120.290        0.041      343.198       19.137      857.703
09/25/2014  14:38:00     -477.432      -95.713      -26.169      280.178      192.623      114.876    78499.466    37103.642    13196.539       18.327        6.440      486.932      101.966        0.044      343.139       19.036      857.840
09/25/2014  14:39:00     -237.677        0.859        6.912      136.805      139.134       71.774    18715.607    19358.330     5151.469        4.987        2.161      237.678       81.121        0.116      343.293       19.299      857.853
09/25/2014  14:40:00     -513.727     -110.804       -9.226      235.086      182.396       98.734    55265.197    33268.427     9748.327       18.726        4.914      525.540       94.591        0.032      343.247       19.221      857.746
09/25/2014  14:41:00     -719.730     -154.222      -20.972      308.745      224.103      140.226    95323.267    50222.297    19663.350       35.369        8.260      736.068      164.908        0.050      343.153       19.060      857.615
09/25/2014  14:42:00     -563.002     -174.331      -19.879      358.510      168.377       99.164   128529.547    28350.923     9833.502       25.721        8.336      589.374      133.276        0.051      343.194       19.130      857.554
09/25/2014  14:43:00     -429.931       -1.377       -2.938      266.639      153.363      107.134    71096.237    23520.258    11477.644       14.545        5.305      429.933      125.124        0.085      343.415       19.506      857.596
09/25/2014  14:44:00     -326.857     -250.473       20.897      238.577      217.856      120.299    56919.099    47461.197    14471.893       14.441        5.943      411.791      131.752        0.102      343.481       19.620      857.595
09/25/2014  14:45:00     -402.161     -132.259      -10.521      274.993      255.458      107.331    75621.101    65258.902    11520.035       16.584        7.620      423.351      125.036        0.087      343.577       19.784      857.645
09/25/2014  14:46:00     -455.802     -235.771      -14.937      218.002      206.861      107.667    47524.990    42791.443    11592.127       18.272        5.095      513.170      107.079        0.044      343.687       19.970      857.668
09/25/2014  14:47:00     -594.855     -245.026      -21.754      276.498      200.927      110.393    76451.358    40371.691    12186.682       27.167        6.450      643.343      113.049        0.031      343.594       19.814      857.649
09/25/2014  14:48:00     -492.409     -252.490      -22.543      276.326      172.966      114.984    76355.986    29917.362    13221.209       21.309        5.975      553.370      105.944        0.037      343.670       19.941      857.699
09/25/2014  14:49:00     -395.986     -200.429        8.067      291.352      197.412      127.394    84885.869    38971.607    16229.336       16.854        7.004      443.821      158.724        0.128      343.704       19.999      857.752
09/25/2014  14:50:00     -551.706     -250.729       -7.468      251.027      230.227      100.351    63014.623    53004.331    10070.271       24.667        6.304      606.007      112.428        0.034      343.638       19.888      857.776
09/25/2014  14:51:00     -350.971     -129.725       -7.697      196.358      169.330       80.517    38556.273    28672.500     6483.019       10.688        3.686      374.178       96.562        0.067      343.677       19.955      857.690
09/25/2014  14:52:00     -578.139      -83.085      -43.856      229.851      215.455      105.033    52831.502    46420.952    11031.835       22.666        5.514      584.078      102.446        0.031      343.580       19.789      857.578
09/25/2014  14:53:00     -545.509     -127.320      -32.982      247.500      199.911      113.318    61256.465    39964.348    12840.905       21.445        5.703      560.170      107.185        0.037      343.500       19.653      857.480
09/25/2014  14:54:00     -377.908      -90.292      -10.775      224.406      162.524       90.131    50358.097    26414.185     8123.668       11.798        4.245      388.545       98.706        0.065      343.544       19.728      857.480
09/25/2014  14:55:00     -245.562     -203.448       -9.752      149.854      144.344       81.691    22456.097    20835.183     6673.369        7.587        2.498      318.892       88.834        0.078      343.612       19.844      857.600
09/25/2014  14:56:00     -274.173     -196.338       -7.143      229.105      153.477      100.447    52488.936    23555.097    10089.515        9.994        4.307      337.223      111.637        0.110      343.614       19.846      857.603
09/25/2014  14:57:00     -304.149     -291.514        7.472      214.893      199.019      105.813    46178.909    39608.414    11196.396       13.725        4.849      421.292      109.631        0.068      343.720       20.027      857.571
09/25/2014  14:58:00     -483.837     -279.149       -3.012      251.153      163.246      105.139    63077.820    26649.375    11054.196       20.639        5.039      558.590      103.616        0.034      343.467       19.596      857.564
09/25/2014  14:59:00     -431.700     -299.118       -4.666      259.023      189.372      120.270    67092.768    35861.629    14464.957       19.662        5.871      525.201      141.212        0.072      343.491       19.635      857.572
09/25/2014  15:00:00     -321.995      -49.783      -16.455      194.217      163.122       88.613    37720.182    26608.737     7852.203        8.929        3.609      325.820      102.593        0.099      343.568       19.768      857.629
09/25/2014  15:01:00      -27.666      -36.542       16.960       90.784       72.759       47.392     8241.678     5293.863     2246.038        0.908        0.789       45.833       45.545        0.987      343.747       20.078      857.650
09/25/2014  15:02:00      -69.479      -72.473       15.098      116.707       81.103       40.693    13620.603     6577.729     1655.915        1.608        1.093      100.397       51.628        0.264      343.780       20.131      857.678
09/25/2014  15:03:00      -21.484     -101.459        8.286       79.453       79.162       40.145     6312.846     6266.659     1611.647        1.251        0.710      103.708       28.884        0.078      343.825       20.209      857.605
09/25/2014  15:04:00     -515.386      -79.181      -25.509      241.209      153.103       76.761    58181.796    23440.519     5892.217       18.001        4.376      521.433       95.342        0.033      343.674       19.947      857.501
09/25/2014  15:05:00     -320.378      -64.007      -10.939      197.543      146.881       85.695    39023.079    21573.944     7343.704        8.739        3.397      326.710       93.090        0.081      343.823       20.202      857.450
09/25/2014  15:06:00     -382.262     -139.099      -14.287      251.966      159.942       86.812    63486.707    25581.417     7536.399       13.112        4.830      406.783       99.764        0.060      343.860       20.265      857.378
09/25/2014  15:07:00     -372.694        2.451       -8.783      223.809      160.591       84.513    50090.277    25789.510     7142.370       11.099        4.151      372.702       89.317        0.057      344.097       20.672      857.409
09/25/2014  15:08:00     -392.695     -117.982        1.990      196.089      141.117       78.475    38450.817    19913.971     6158.292       11.632        3.226      410.035       94.405        0.053      344.070       20.624      857.450
09/25/2014  15:09:00     -423.281     -109.024       -6.170      205.385      134.304       77.465    42182.820    18037.513     6000.821       12.865        3.311      437.096       87.387        0.040      343.842       20.236      857.537
09/25/2014  15:10:00     -321.579     -177.433      -16.472      212.402      227.656       86.393    45114.489    51827.195     7463.797       11.977        5.220      367.281       99.519        0.073      343.866       20.278      857.492
09/25/2014  15:11:00     -153.749       -5.298       25.095      159.543      136.165       82.732    25453.872    18540.979     6844.651        3.756        2.542      153.841       79.242        0.265      344.006       20.515      857.419
09/25/2014  15:12:00      -68.536       -1.343       21.520      120.734       96.981       59.144    14576.670     9405.326     3497.979        1.632        1.374       68.549       65.531        0.914      344.104       20.685      857.329
09/25/2014  15:13:00     -216.963      -19.046        6.083      231.012      123.751       89.793    53366.693    15314.368     8062.698        6.210        3.837      217.797       82.867        0.145      344.093       20.666      857.273
09/25/2014  15:14:00     -363.592      -71.978      -18.582      233.846      132.985       85.906    54683.768    17684.955     7379.782       10.872        3.987      370.648       99.965        0.073      344.094       20.666      857.225
09/25/2014  15:15:00     -234.383     -234.232       -7.393      171.136      170.690       71.654    29287.431    29135.168     5134.255        8.670        3.178      331.361       70.163        0.045      343.979       20.468      857.208
09/25/2014  15:16:00      -33.260     -228.371       -6.848      146.389      157.221       66.683    21429.690    24718.557     4446.637        5.194        2.530      230.780       43.159        0.035      343.959       20.436      857.158
09/25/2014  15:17:00     -174.167     -166.229       12.770      163.205      165.100       62.574    26635.983    27257.877     3915.534        5.796        2.890      240.761       74.643        0.096      344.071       20.628      857.290
09/25/2014  15:18:00     -146.608     -246.574       -8.078      241.130      214.655       80.742    58143.764    46076.629     6519.210        9.653        5.537      286.867      108.257        0.142      344.066       20.618      857.396
09/25/2014  15:19:00      -96.514     -155.871       -7.252      111.242       75.576       47.072    12374.724     5711.673     2215.808        2.698        1.015      183.332       41.451        0.051      344.238       20.914      857.532
09/25/2014  15:20:00     -111.824     -117.459       13.485      188.795      151.896       76.745    35643.603    23072.340     5889.795        4.553        3.230      162.176       99.808        0.379      343.886       20.313      857.539
09/25/2014  15:21:00     -299.498       65.178      -48.525      153.173      143.249       79.485    23461.898    20520.202     6317.928        7.329        2.515      306.509       80.688        0.069      343.722       20.031      857.395
09/25/2014  15:22:00     -212.317      335.259      -48.267      157.841      168.163       90.588    24913.757    28278.810     8206.105       11.059        3.070      396.834       99.155        0.062      343.623       19.862      857.375
09/25/2014  15:23:00     -206.986      264.954      -44.109      116.959      216.583       68.874    13679.353    46908.287     4743.615        9.015        3.267      336.220       73.695        0.048      343.626       19.866      857.358
09/25/2014  15:24:00     -285.769      -87.103       -7.752      137.644      146.701       78.642    18945.819    21521.060     6184.519        6.797        2.333      298.748       72.898        0.060      343.676       19.951      857.417
09/25/2014  15:25:00     -428.370        9.660      -12.170      238.375      216.250       79.216    56822.776    46764.127     6275.173       14.678        5.493      428.479       84.440        0.039      343.583       19.794      857.442
09/25/2014  15:26:00     -244.808        6.829       -4.448      178.588      105.607       70.882    31893.821    11152.921     5024.318        5.403        2.404      244.903       79.206        0.105      343.701       19.994      857.411
09/25/2014  15:27:00     -133.869      -64.521       -9.335      131.945      101.417       55.214    17409.482    10285.485     3048.564        2.645        1.537      148.606       63.636        0.183      343.694       19.984      857.426
09/25/2014  15:28:00     -100.573     -174.704        8.612      176.876      161.753       77.959    31285.179    26164.007     6077.603        5.211        3.176      201.585       65.728        0.106      343.791       20.149      857.425
09/25/2014  15:29:00     -173.390     -169.048        5.628      161.706      119.971       76.361    26148.967    14393.073     5830.966        5.252        2.319      242.160       60.440        0.062      343.832       20.218      857.411
09/25/2014  15:30:00     -158.646      -32.723       11.484      132.407      148.899       73.729    17531.495    22170.817     5435.916        3.575        2.257      161.985       69.457        0.184      343.934       20.394      857.380
09/25/2014  15:31:00     -299.614        6.475       -9.429      149.364      119.214       69.746    22309.545    14211.902     4864.500        6.564        2.069      299.684       73.776        0.061      343.922       20.372      857.345
09/25/2014  15:32:00     -232.756      -60.121       -7.847       96.678      109.518       57.242     9346.636    11994.131     3276.699        4.123        1.231      240.395       54.572        0.052      343.990       20.488      857.313
09/25/2014  15:33:00     -454.731     -137.211      -24.780      188.910      146.961       75.909    35687.155    21597.575     5762.252       14.462        3.152      474.981       86.111        0.033      343.967       20.448      857.301
09/25/2014  15:34:00     -587.228     -132.739      -13.779      233.437      148.246      100.001    54492.888    21976.821    10000.120       22.454        4.323      602.043      103.946        0.030      344.022       20.542      857.257
09/25/2014  15:35:00     -300.606     -128.136        4.105      210.791      155.321       88.742    44432.649    24124.531     7875.216        9.160        3.822      326.777      100.572        0.095      344.197       20.841      857.350
09/25/2014  15:36:00     -213.492     -194.572        3.285      120.816      151.519       67.272    14596.422    22958.086     4525.465        6.276        2.104      288.855       59.193        0.042      344.158       20.775      857.436
09/25/2014  15:37:00     -371.177      -56.372      -17.242      160.645      134.210       59.051    25806.930    18012.331     3487.027        9.427        2.365      375.434       71.085        0.036      344.136       20.737      857.556
09/25/2014  15:38:00     -187.138       -7.355       -4.216      152.304      111.122       68.234    23196.403    12348.198     4655.855        3.764        2.010      187.283       82.081        0.192      344.148       20.758      857.590
09/25/2014  15:39:00     -324.346     -145.861      -23.270      180.872      143.905       72.222    32714.660    20708.762     5216.044        9.282        2.932      355.635       72.915        0.042      344.045       20.582      857.611
09/25/2014  15:40:00     -313.542     -109.214      -19.634      128.658       91.376       49.066    16552.785     8349.630     2407.481        6.896        1.365      332.019       39.871        0.014      343.857       20.260      857.606
09/25/2014  15:41:00     -170.577       22.781      -10.451      115.815       77.897       51.732    13413.058     6067.997     2676.184        2.594        1.108      172.091       41.608        0.058      344.137       20.740      857.545
09/25/2014  15:42:00     -265.823       21.582      -18.398      105.289      131.481       54.668    11085.669    17287.283     2988.551        5.141        1.568      266.698       53.758        0.041      344.287       20.998      857.448
09/25/2014  15:43:00     -300.479       32.380      -25.886      126.185       76.650       55.138    15922.726     5875.207     3040.171        5.842        1.242      302.219       59.522        0.039      344.227       20.892      857.459
09/25/2014  15:44:00     -334.402       75.438      -39.775      145.972       66.063       49.396    21307.753     4364.371     2439.978        7.360        1.406      342.806       58.936        0.030      344.127       20.722      857.430
09/25/2014  15:45:00     -166.798      136.014      -34.873       81.731       62.757       43.215     6679.904     3938.389     1867.504        3.001        0.624      215.224       39.499        0.034      344.065       20.617      857.390
09/25/2014  15:46:00     -230.893       53.514       -9.918      164.206       88.016       52.931    26963.650     7746.839     2801.670        4.689        1.876      237.014       74.158        0.098      344.259       20.948      857.422
09/25/2014  15:47:00     -377.218      -47.200      -35.330      121.560      118.067       51.484    14776.829    13939.720     2650.613        8.856        1.568      380.159       44.685        0.014      344.055       20.600      857.474
09/25/2014  15:48:00      -86.518      -92.727       11.463      124.004      133.929       52.350    15376.939    17936.868     2740.501        2.613        1.803      126.822       67.768        0.286      343.944       20.410      857.525
09/25/2014  15:49:00      -21.979      -10.523      -17.173       30.175       53.313       30.142      910.510     2842.273      908.522        0.277        0.233       24.369       28.334        1.352      344.098       20.674      857.526
09/25/2014  15:50:00      -23.683      -83.795       11.676       68.316       73.414       42.376     4667.130     5389.654     1795.753        0.978        0.593       87.077       32.171        0.136      344.161       20.782      857.545
09/25/2014  15:51:00     -225.692     -134.129      -18.755       66.882       79.972       34.834     4473.261     6395.544     1213.409        4.068        0.604      262.540       31.425        0.014      344.030       20.555      857.575
09/25/2014  15:52:00     -182.423     -108.315       -0.540       90.434       58.828       36.582     8178.247     3460.713     1338.273        2.899        0.649      212.156       42.047        0.039      344.242       20.919      857.591
09/25/2014  15:53:00      -85.555      -48.729       -4.283      108.982      151.639       52.979    11877.146    22994.487     2806.763        2.369        1.884       98.459       44.675        0.206      344.064       20.617      857.590
09/25/2014  15:54:00       19.394       80.926       22.806       27.573       67.979       31.328      760.298     4621.118      981.448        0.690        0.318       83.217       38.677        0.216      344.110       20.696      857.564
09/25/2014  15:55:00       29.946       42.144        7.531       28.433       40.213       20.916      808.423     1617.119      437.481        0.280        0.143       51.700       19.641        0.144      344.198       20.847      857.584
09/25/2014  15:56:00      -30.774      -50.967       10.610       47.823       53.067       27.235     2286.997     2816.081      741.733        0.475        0.292       59.538       28.727        0.233      344.425       21.233      857.621
09/25/2014  15:57:00       18.695      -53.014       22.905       69.020       46.694       33.388     4763.797     2180.297     1114.735        0.587        0.403       56.214       16.860        0.090      344.479       21.326      857.644
09/25/2014  15:58:00        8.899      -15.837        9.699       40.997       36.230       25.389     1680.750     1312.618      644.592        0.203        0.182       18.166       24.170        1.770      344.456       21.288      857.632
09/25/2014  15:59:00     -146.668      -73.299      -10.420       70.260       61.525       34.790     4936.533     3785.300     1210.355        1.846        0.497      163.964       29.812        0.033      344.186       20.824      857.559
09/25/2014  16:00:00     -145.815        7.401       -8.730       83.763       46.895       35.260     7016.316     2199.163     1243.248        1.592        0.523      146.002       33.306        0.052      344.188       20.828      857.466
09/25/2014  16:01:00      -52.429       29.926       25.404       99.070       99.172       76.222     9814.881     9835.037     5809.730        1.487        1.273       60.368       60.480        1.004      344.106       20.689      857.333
09/25/2014  16:02:00       14.970       79.884        3.824       45.882      152.490       56.261     2105.176    23253.077     3165.311        1.757        1.426       81.275       59.862        0.542      344.275       20.978      857.183
09/25/2014  16:03:00        0.734      266.848      -39.845       66.742       95.555       43.840     4454.451     9130.664     1921.941        4.415        0.775      266.849       46.409        0.030      344.159       20.777      857.094
09/25/2014  16:04:00       72.947       72.832        9.710       81.182       66.911       47.493     6590.504     4477.104     2255.609        1.202        0.666      103.081       40.537        0.155      344.329       21.071      857.122
09/25/2014  16:05:00        5.519      168.986       -6.025       73.919       86.845       45.886     5464.042     7542.093     2105.514        2.186        0.756      169.076       44.443        0.069      344.173       20.802      857.226
09/25/2014  16:06:00       98.955      149.273       20.191       95.298       82.296       53.719     9081.646     6772.609     2885.681        2.561        0.937      179.093       33.056        0.034      344.036       20.565      857.264
09/25/2014  16:07:00      -56.300      -88.956        0.307      137.160      125.679       65.404    18812.866    15795.099     4277.640        2.498        1.944      105.275       49.923        0.225      344.331       21.071      857.320
09/25/2014  16:08:00     -180.400     -141.113        0.788      116.593      117.291       64.750    13593.983    13757.141     4192.576        4.200        1.577      229.035       66.049        0.083      344.300       21.018      857.363
09/25/2014  16:09:00     -175.241      -51.829       -6.573      101.219      102.910       50.176    10245.304    10590.443     2517.660        2.839        1.168      182.745       37.776        0.043      344.470       21.309      857.375
09/25/2014  16:10:00     -260.631      -71.137        0.879      106.528       90.499       50.884    11348.209     8190.103     2589.157        4.755        1.106      270.165       45.393        0.028      344.492       21.346      857.392
09/25/2014  16:11:00     -322.809     -218.560      -12.421      187.896      197.599       77.176    35305.067    39045.258     5956.200       11.620        4.015      389.839       79.494        0.042      344.292       21.005      857.438
09/25/2014  16:12:00     -169.562     -283.103       18.714      221.456      186.870       88.983    49042.548    34920.534     7918.052       10.055        4.594      329.998       90.130        0.075      344.295       21.009      857.321
09/25/2014  16:13:00     -375.009      -37.783      -30.611      160.901      173.966       70.073    25889.114    30264.075     4910.284       10.202        3.053      376.907       63.594        0.028      344.149       20.760      857.345
09/25/2014  16:14:00     -351.048     -147.982      -15.233      176.556      122.725       66.993    31171.907    15061.462     4488.126        9.803        2.536      380.963       77.695        0.042      343.985       20.479      857.322
09/25/2014  16:15:00     -424.415       43.143      -36.194      230.598      136.746       77.213    53175.656    18699.344     5961.900       13.056        3.892      426.602       97.958        0.053      343.908       20.348      857.215
09/25/2014  16:16:00     -561.772      -65.648      -33.496      268.268      191.966      111.193    71967.490    36851.082    12363.974       22.108        6.059      565.594      117.910        0.043      343.910       20.351      857.095
09/25/2014  16:17:00     -524.901     -142.739      -11.136      226.091      184.709      105.161    51117.286    34117.416    11058.934       19.614        4.815      543.963      114.878        0.045      343.914       20.357      857.098
09/25/2014  16:18:00     -672.305      -37.602      -37.335      274.433      223.116      102.681    75313.651    49780.838    10543.347       29.520        6.782      673.355      117.874        0.031      343.758       20.092      857.106
09/25/2014  16:19:00     -630.947      -81.078      -54.745      249.756      160.279       88.772    62377.884    25689.274     7880.544       25.179        4.797      636.135      103.311        0.026      343.651       19.909      857.102
09/25/2014  16:20:00     -282.062      -93.283        7.318      214.115      138.152       87.002    45845.247    19085.902     7569.363        8.040        3.625      297.087      106.372        0.128      343.975       20.463      857.117
09/25/2014  16:21:00     -296.297     -104.191       14.022      170.331      190.482       90.133    29012.545    36283.563     8123.960        8.612        3.671      314.083       95.667        0.093      344.037       20.570      857.170
09/25/2014  16:22:00     -290.611      -30.794      -14.393      147.110      125.039       70.557    21641.247    15634.632     4978.226        6.393        2.113      292.238       73.554        0.063      343.885       20.311      857.287
09/25/2014  16:23:00     -353.944     -174.869      -18.705      190.305      147.142       84.747    36215.962    21650.623     7182.064       11.062        3.252      394.786       94.867        0.058      343.802       20.168      857.425
09/25/2014  16:24:00     -226.240     -122.505       -1.437      178.665      112.072       75.015    31921.281    12560.102     5627.229        5.814        2.505      257.278       83.025        0.104      343.912       20.356      857.537
09/25/2014  16:25:00     -218.211     -108.054       -0.250      142.217      123.321       70.164    20225.543    15207.991     4923.042        4.982        2.018      243.499       72.368        0.088      343.846       20.243      857.605
09/25/2014  16:26:00      -67.396     -106.558      -11.890      104.709       96.045       55.785    10963.903     9224.726     3111.932        1.967        1.165      126.083       50.631        0.161      343.743       20.068      857.590
09/25/2014  16:27:00        7.408       23.719       30.048       56.263       66.271       47.512     3165.548     4391.886     2257.371        0.567        0.491       24.849       40.203        2.618      343.946       20.417      857.519
09/25/2014  16:28:00       62.818       96.495       36.183       68.937       64.671       58.888     4752.270     4182.332     3467.808        1.348        0.620      115.140       43.119        0.140      343.963       20.445      857.371
09/25/2014  16:29:00       25.222       54.299       66.521       52.570       47.164       31.095     2763.569     2224.406      966.871        0.698        0.298       59.871       17.045        0.081      344.052       20.596      857.287
09/25/2014  16:30:00       70.436      101.908       96.993       64.713       44.808       41.059     4187.731     2007.782     1685.822        1.632        0.394      123.881       30.571        0.061      344.025       20.550      857.262
09/25/2014  16:31:00       92.146      -87.994       24.321       63.727      124.365       77.824     4061.080    15466.743     6056.573        2.120        1.279      127.412       96.845        0.578      344.028       20.554      857.304
09/25/2014  16:32:00      106.378     -172.816      -28.550       40.375       36.881       27.658     1630.139     1360.172      764.977        2.288        0.188      202.932       20.897        0.011      343.955       20.429      857.433
09/25/2014  16:33:00      -32.522     -130.557      -41.345       78.731       63.215       37.981     6198.568     3996.189     1442.553        1.572        0.582      134.546       31.266        0.054      344.195       20.841      857.562
09/25/2014  16:34:00     -105.226      -56.010       -5.666       63.863       44.411       33.722     4078.504     1972.306     1137.147        1.071        0.359      119.205       34.958        0.086      344.243       20.923      857.605
09/25/2014  16:35:00     -112.331       43.180       -1.901       55.423       40.454       29.152     3071.737     1636.516      849.832        1.002        0.278      120.344       26.432        0.048      344.315       21.047      857.543
09/25/2014  16:36:00      -17.556       55.115        0.041       83.941      141.684       60.765     7046.101    20074.469     3692.339        1.707        1.541       57.843       48.073        0.691      344.374       21.146      857.464
09/25/2014  16:37:00      -83.183     -239.401        7.361      107.129      174.245       62.896    11476.697    30361.168     3955.909        5.503        2.290      253.441       62.786        0.061      344.043       20.579      857.342
09/25/2014  16:38:00      -96.130      -38.779       -0.852      112.443       82.560       67.394    12643.511     6816.170     4541.964        1.737        1.200      103.657       66.188        0.408      344.291       21.005      857.317
09/25/2014  16:39:00     -264.891     -140.797      -16.233      142.139      136.725       68.082    20203.383    18693.676     4635.190        6.689        2.177      299.985       68.793        0.053      344.109       20.691      857.464
09/25/2014  16:40:00     -379.020     -225.418       -9.226      212.456      185.272       98.052    45137.618    34325.687     9614.255       14.180        4.454      440.987      108.854        0.061      343.956       20.429      857.490
09/25/2014  16:41:00     -313.514     -234.717       -0.845      195.111      213.364       91.090    38068.373    45524.347     8297.478       12.262        4.595      391.641      105.117        0.072      344.285       20.991      857.620
09/25/2014  16:42:00     -185.908     -323.928       -0.916      140.852      145.975       70.109    19839.374    21308.759     4915.235        9.277        2.303      373.485       45.792        0.015      344.057       20.602      857.773
09/25/2014  16:43:00       90.695     -152.023       -3.818       95.270      205.977       58.319     9076.411    42426.465     3401.151        4.312        2.745      177.022       44.075        0.062      343.638       19.890      857.680
09/25/2014  16:44:00     -109.113       56.204      -19.727       98.302       56.986       29.242     9663.283     3247.382      855.123        1.461        0.688      122.737       32.885        0.072      343.819       20.198      857.622
09/25/2014  16:45:00     -235.948      -36.298      -15.094      112.996      108.263       48.188    12768.007    11720.801     2322.102        4.201        1.341      238.723       48.032        0.040      343.439       19.549      857.625
09/25/2014  16:46:00     -134.344       10.598      -17.953      108.036       67.529       39.243    11671.850     4560.200     1539.996        1.812        0.889      134.761       55.649        0.171      343.436       19.546      857.521
09/25/2014  16:47:00     -163.048      213.001      -29.126       78.427       84.383       55.622     6150.802     7120.574     3093.806        4.458        0.818      268.243       43.618        0.026      343.424       19.521      857.393
09/25/2014  16:48:00      -91.648      116.532      -12.900       88.450      140.543       46.743     7823.485    19752.341     2184.871        2.595        1.488      148.254       61.085        0.170      343.655       19.919      857.305
09/25/2014  16:49:00     -203.760     -117.088      -12.215      195.407      113.963       61.560    38183.902    12987.610     3789.618        5.516        2.748      235.006       82.954        0.125      344.071       20.627      857.237
09/25/2014  16:50:00        9.337     -212.585      -28.504      134.939      134.445      107.824    18208.548    18075.363    11625.909        4.699        2.395      212.790       77.904        0.134      344.003       20.511      857.264
09/25/2014  16:51:00       59.740      -68.984       24.170       88.825      104.241       61.919     7889.916    10866.180     3833.971        1.575        1.130       91.256       54.488        0.357      344.099       20.676      857.369
09/25/2014  16:52:00       39.171      -48.814       88.460      104.499      138.802       91.099    10920.132    19265.969     8298.952        2.511        1.924       62.587       80.200        1.642      344.254       20.941      857.366
09/25/2014  16:53:00       63.955     -189.922      -24.652       79.556       51.213       48.727     6329.157     2622.762     2374.352        2.605        0.566      200.402       16.106        0.006      344.281       20.987      857.410
09/25/2014  16:54:00       -0.019      -93.212       -7.916       65.925       71.130       35.115     4346.162     5059.450     1233.081        0.969        0.532       93.212       19.732        0.045      344.396       21.185      857.457
09/25/2014  16:55:00       33.365      -93.540      -13.787       58.598       61.834       31.987     3433.670     3823.402     1023.184        0.917        0.414       99.313       27.429        0.076      344.550       21.449      857.459
09/25/2014  16:56:00       -4.648      -39.493       42.258       85.508      105.726       72.308     7311.533    11177.920     5228.465        1.354        1.186       39.766       78.408        3.888      344.247       20.930      857.460
09/25/2014  16:57:00       27.862       30.286       69.308       68.574      109.456       83.481     4702.434    11980.684     6969.048        1.507        1.183       41.152       77.682        3.563      344.150       20.764      857.416
09/25/2014  16:58:00     -139.842      133.599      -38.064      128.196       87.868       41.510    16434.279     7720.732     1723.090        3.236        1.294      193.402       34.922        0.033      343.947       20.415      857.456
09/25/2014  16:59:00     -193.859      107.148      -21.551       86.941       53.823       46.620     7558.735     2896.914     2173.399        3.108        0.631      221.499       41.990        0.036      343.686       19.968      857.465
09/25/2014  17:00:00     -334.185      -82.769      -22.665      137.798      134.195       68.085    18988.351    18008.316     4635.530        8.033        2.082      344.283       64.326        0.035      343.719       20.026      857.414
09/25/2014  17:01:00     -271.819      -91.231        5.153      172.619      102.101       72.635    29797.170    10424.548     5275.780        6.386        2.275      286.721       82.891        0.084      343.869       20.282      857.436
09/25/2014  17:02:00     -248.482     -196.985        5.094      138.045      131.053       81.619    19056.560    17174.859     6661.617        7.173        2.145      317.091       76.527        0.058      343.749       20.075      857.441
09/25/2014  17:03:00     -479.307      -83.395      -32.133      241.094      142.922      100.274    58126.534    20426.592    10054.934       16.315        4.430      486.508      108.268        0.050      343.482       19.621      857.513
09/25/2014  17:04:00     -366.600       67.336      -21.145      240.659      128.691       87.796    57916.811    16561.390     7708.098       11.077        4.109      372.733      102.873        0.076      343.462       19.587      857.524
09/25/2014  17:05:00     -597.530       -3.468      -43.933      237.884      141.933       91.126    56588.793    20144.902     8303.908       22.200        4.252      597.540      117.001        0.038      343.292       19.297      857.542
09/25/2014  17:06:00     -523.261       14.161      -20.964      253.111      222.773       96.530    64065.426    49627.762     9317.953       19.871        6.151      523.452      105.764        0.041      343.190       19.122      857.505
09/25/2014  17:07:00     -438.759     -195.911      -10.113      187.875      196.275       81.071    35296.868    38523.908     6572.578       15.568        4.020      480.511       77.607        0.026      343.308       19.324      857.526
09/25/2014  17:08:00     -411.770     -110.108        2.664      306.720      186.300       93.362    94077.400    34707.622     8716.431       15.957        6.875      426.237      112.945        0.070      343.269       19.258      857.562
09/25/2014  17:09:00     -297.828      -64.537       18.246      196.801      224.443      110.191    38730.610    50374.614    12141.948        9.721        5.062      304.740      110.560        0.132      343.246       19.219      857.648
09/25/2014  17:10:00     -381.064      -29.809      -24.971      213.130      223.110       96.423    45424.529    49778.249     9297.438       12.559        5.225      382.229      105.301        0.076      343.070       18.919      857.677
09/25/2014  17:11:00     -393.453      -99.994      -45.036      177.053      197.544       73.721    31347.649    39023.714     5434.846       12.131        3.790      405.961       74.382        0.034      342.992       18.786      857.629
09/25/2014  17:12:00     -208.875      -68.479        3.683      231.515      140.344       83.577    53599.000    19696.359     6985.121        6.429        4.014      219.814      101.390        0.213      343.155       19.064      857.606
09/25/2014  17:13:00     -542.260      -42.030      -31.497      325.307      155.034      110.004   105824.541    24035.522    12100.861       21.936        7.098      543.886      152.184        0.078      343.052       18.888      857.532
09/25/2014  17:14:00     -422.374     -100.449      -30.068      216.564      257.908      133.301    46899.999    66516.427    17769.120       16.027        6.559      434.154      119.642        0.076      343.028       18.849      857.447
09/25/2014  17:15:00     -579.970     -121.441      -50.256      252.607      247.731      117.281    63810.468    61370.442    13754.727       24.626        6.947      592.548       86.903        0.022      342.983       18.770      857.403
09/25/2014  17:16:00     -336.733       46.487      -28.464      147.907      208.047       99.167    21876.391    43283.661     9834.095        9.566        3.750      339.927       85.225        0.063      342.997       18.795      857.521
09/25/2014  17:17:00     -268.390       97.344      -54.288      154.725      117.802       71.464    23939.957    13877.379     5107.169        6.368        2.146      285.498       66.264        0.054      342.939       18.698      857.603
09/25/2014  17:18:00     -169.000       80.358      -15.244      123.327      115.935       82.643    15209.497    13440.851     6829.910        3.536        1.774      187.132       71.919        0.148      343.007       18.813      857.614
09/25/2014  17:19:00     -273.684       27.768      -54.486      131.267      120.399       75.384    17231.150    14495.867     5682.812        5.802        1.870      275.089       58.091        0.045      343.093       18.959      857.734
09/25/2014  17:20:00     -250.400      -77.876      -13.248      176.177      139.165       68.515    31038.457    19366.861     4694.328        6.201        2.755      262.231       88.295        0.113      343.189       19.121      857.832
09/25/2014  17:21:00     -531.563     -337.346      -30.151      240.408      131.845       79.892    57795.888    17383.064     6382.681       23.940        4.078      629.573       97.947        0.024      343.498       19.647      857.892
09/25/2014  17:22:00     -411.191     -149.057      -13.218      170.187      145.184       72.387    28963.671    21078.356     5239.915       12.337        2.764      437.373       75.046        0.029      343.458       19.581      857.925
09/25/2014  17:23:00     -108.905      -47.530       24.103      116.914       69.544       45.817    13668.893     4836.370     2099.193        1.765        1.030      118.825       56.547        0.226      343.487       19.631      858.104
09/25/2014  17:24:00       52.941       69.985       55.667      145.253      128.540       67.212    21098.430    16522.604     4517.436        2.646        2.107       87.753       47.282        0.290      343.488       19.633      857.952
09/25/2014  17:25:00     -177.859      217.625      -48.758      128.982       95.660       53.535    16636.231     9150.786     2866.034        5.501        1.433      281.060       54.750        0.038      342.974       18.756      857.941
09/25/2014  17:26:00     -204.667        9.992       -8.698      124.904      186.273       56.860    15600.933    34697.452     3233.038        4.779        2.677      204.911       52.828        0.066      342.817       18.490      858.068
09/25/2014  17:27:00      -99.302       -6.912       13.061      155.043      130.861       93.613    24038.476    17124.670     8763.445        2.999        2.496       99.542       82.541        0.688      342.782       18.431      857.978
09/25/2014  17:28:00     -435.184       40.708      -31.746      167.954      157.097       77.197    28208.636    24679.390     5959.381       12.544        2.942      437.084       83.530        0.037      342.492       17.936      857.884
09/25/2014  17:29:00     -612.853      -14.844      -51.704      231.884      259.865      119.182    53770.417    67530.064    14204.436       25.697        6.775      613.033      120.043        0.038      342.388       17.759      857.885
09/25/2014  17:30:00     -611.017      -88.703      -41.895      285.668      176.420      109.507    81606.058    31123.886    11991.728       25.382        6.236      617.422      123.792        0.040      342.396       17.772      857.891
09/25/2014  17:31:00     -305.132     -100.907       -1.130      175.977      147.412       82.438    30967.927    21730.435     6795.970        8.138        2.975      321.384       83.574        0.068      342.454       17.873      857.842
09/25/2014  17:32:00     -213.435     -139.046        1.606      207.145      152.110       89.985    42909.181    23137.380     8097.390        6.950        3.707      254.731       94.956        0.139      342.528       17.999      857.836
09/25/2014  17:33:00     -544.253     -166.002      -10.180      253.363      190.054      106.574    64192.779    36120.632    11357.916       21.775        5.584      569.006      128.244        0.051      342.451       17.868      857.878
09/25/2014  17:34:00     -364.193     -253.097        6.231      230.425      180.322      108.047    53095.632    32515.921    11674.094       14.699        4.864      443.502      101.680        0.053      342.561       18.054      857.980
09/25/2014  17:35:00     -370.496     -181.112       -0.897      173.688      168.499       94.275    30167.534    28392.077     8887.850       11.875        3.372      412.394       82.843        0.040      342.538       18.015      857.935
09/25/2014  17:36:00     -440.078     -186.762      -28.216      241.145      160.273      106.547    58151.111    25687.403    11352.265       16.225        4.760      478.067      123.537        0.067      342.460       17.883      857.807
09/25/2014  17:37:00     -267.862      -60.097        6.803      214.402      196.861       90.918    45968.327    38754.392     8266.165        8.418        4.649      274.521       86.509        0.099      342.371       17.730      857.667
09/25/2014  17:38:00     -909.185      -33.658      -62.793      374.003      235.335      131.388   139878.386    55382.516    17262.794       52.207       10.626      909.808      163.514        0.032      342.092       17.255      857.480
09/25/2014  17:39:00     -814.611     -131.879      -60.297      251.694      207.096      101.325    63349.863    42888.550    10266.838       40.054        5.825      825.217      102.977        0.016      342.070       17.219      857.627
09/25/2014  17:40:00     -620.306     -153.774      -42.735      307.193      209.145      119.305    94367.779    43741.819    14233.612       28.127        7.617      639.082      139.273        0.047      342.002       17.103      857.716
09/25/2014  17:41:00     -402.643      -93.692      -28.841      171.127      113.826       72.369    29284.561    12956.262     5237.201       10.960        2.374      413.401       45.891        0.012      342.011       17.119      857.722
09/25/2014  17:42:00     -286.431     -148.746        4.163      224.949      178.081      114.782    50601.997    31712.810    13174.937        9.982        4.774      322.751      122.578        0.144      342.039       17.166      857.749
09/25/2014  17:43:00     -464.864      -78.933      -25.028      170.362      146.161       76.875    29023.377    21363.139     5909.722       13.962        2.815      471.518       75.712        0.026      342.005       17.108      857.829
09/25/2014  17:44:00     -362.157      -49.315      -18.815      246.812      196.870       94.705    60916.109    38757.801     8968.947       12.128        5.432      365.500      103.660        0.080      342.048       17.183      857.841
09/25/2014  17:45:00     -464.215     -181.384        2.890      321.092      199.852      119.409   103099.910    39940.854    14258.543       20.283        7.865      498.393      144.555        0.084      341.967       17.044      857.760
09/25/2014  17:46:00     -639.854      -42.727      -50.558      274.484      209.767      118.849    75341.675    44002.129    14125.196       27.361        6.673      641.279      141.547        0.049      341.902       16.933      857.863
09/25/2014  17:47:00     -445.264      -27.204      -28.759      316.747      212.356      102.060   100328.804    45095.186    10416.173       17.781        7.792      446.094      118.986        0.071      341.923       16.969      857.970
09/25/2014  17:48:00     -497.724     -185.972      -20.570      246.007      223.142      121.823    60519.466    49792.364    14840.891       20.392        6.258      531.333      115.582        0.047      341.912       16.951      858.070
09/25/2014  17:49:00     -537.009     -283.622      -25.832      317.505      190.478      110.083   100809.602    36282.048    12118.233       25.932        7.460      607.306      144.165        0.056      341.902       16.934      858.080
09/25/2014  17:50:00     -197.094      -78.120       15.615      222.459      193.930      104.046    49487.793    37608.945    10825.604        7.154        4.896      212.012      111.134        0.275      341.950       17.016      857.958
09/25/2014  17:51:00     -280.925       15.036      -17.078      178.983      171.280      111.346    32034.774    29336.760    12397.927        7.659        3.688      281.327       99.299        0.125      341.909       16.945      857.778
09/25/2014  17:52:00     -571.505        0.560      -28.489      281.035      234.586      111.210    78980.849    55030.436    12367.682       23.688        7.319      571.505      123.361        0.047      341.949       17.013      857.736
09/25/2014  17:53:00     -441.079      -22.682      -15.396      293.543      181.277       92.472    86167.405    32861.480     8551.122       16.142        6.379      441.662      107.351        0.059      341.952       17.020      857.848
09/25/2014  17:54:00     -170.454     -154.312       15.205      244.892      175.668      104.787    59972.196    30859.212    10980.285        7.744        5.091      229.928      111.138        0.234      342.017       17.130      857.948
09/25/2014  17:55:00     -409.668      -62.783        0.513      414.603      240.691      133.354   171895.977    57932.102    17783.175       20.965       12.381      414.451      166.535        0.161      342.007       17.112      858.091
09/25/2014  17:56:00     -437.094      -32.405      -35.369      326.103      194.293      109.071   106343.479    37749.603    11896.409       17.465        7.799      438.294      132.665        0.092      342.064       17.209      858.209
09/25/2014  17:57:00     -546.396      -33.700      -29.787      294.381      203.527      109.752    86659.909    41423.171    12045.539       22.033        7.006      547.434      129.555        0.056      342.088       17.250      858.279
09/25/2014  17:58:00     -566.257     -141.671      -28.439      244.292      194.934      111.778    59678.478    37999.088    12494.422       22.583        5.509      583.710      121.761        0.044      342.045       17.176      858.384
09/25/2014  17:59:00     -291.405      -64.731       -0.895      251.295      147.114       91.348    63149.234    21642.592     8344.528        9.111        4.657      298.508      103.522        0.120      342.125       17.314      858.423
09/25/2014  18:00:00     -477.985     -105.954      -14.099      311.562      249.298      118.708    97070.724    62149.558    14091.525       20.657        8.666      489.588      131.413        0.072      342.006       17.111      858.391
09/25/2014  18:01:00     -561.319     -125.298      -47.317      374.046      296.197      127.772   139910.482    87732.592    16325.725       28.845       12.198      575.133      143.545        0.062      341.782       16.730      858.424
09/25/2014  18:02:00     -390.205     -177.067      -28.014      204.601      202.642       88.402    41861.641    41063.797     7814.955       13.755        4.537      428.500       73.648        0.030      341.792       16.746      858.407
09/25/2014  18:03:00     -498.442     -145.019      -18.203      255.083      210.020      109.762    65067.493    44108.606    12047.673       19.549        6.061      519.109      111.354        0.046      341.726       16.635      858.376
09/25/2014  18:04:00     -320.875      -53.460      -26.456      163.186      147.202       87.331    26629.833    21668.565     7626.755        8.121        2.796      325.298       87.439        0.072      341.849       16.843      858.337
09/25/2014  18:05:00     -629.898      -35.125      -45.894      307.066      193.601      108.521    94289.652    37481.256    11776.787       27.181        7.177      630.877      130.285        0.043      341.741       16.661      858.281
09/25/2014  18:06:00     -687.662     -110.875      -42.997      305.725      192.408      110.721    93467.771    37020.890    12259.199       31.486        7.137      696.543      129.393        0.035      341.731       16.644      858.279
09/25/2014  18:07:00     -547.318     -168.854      -19.208      431.019      260.574      137.263   185777.276    67899.066    18841.075       30.043       13.626      572.772      178.297        0.097      341.770       16.712      858.298
09/25/2014  18:08:00     -470.185       -4.863      -23.762      232.867      170.693      102.573    54226.867    29136.129    10521.320       15.776        4.694      470.211      105.731        0.051      341.786       16.735      858.277
09/25/2014  18:09:00     -388.859     -100.335      -10.593      308.894      194.281      110.241    95415.775    37745.160    12153.058       15.333        7.266      401.595      148.276        0.136      341.742       16.662      858.140
09/25/2014  18:10:00     -726.386      -66.767      -54.741      283.558      255.502      116.070    80404.956    65281.235    13472.301       34.710        7.958      729.448      123.317        0.029      341.644       16.496      857.990
09/25/2014  18:11:00     -636.202     -193.080      -31.128      374.164      182.242      110.104   139998.741    33212.026    12122.872       31.414        9.267      664.856      154.687        0.054      341.605       16.431      857.993
09/25/2014  18:12:00     -378.583      -74.144        8.272      214.356      192.288       99.558    45948.319    36974.640     9911.729       12.085        4.642      385.775       98.676        0.065      341.746       16.671      858.025
09/25/2014  18:13:00     -471.984      -96.038      -12.624      285.441      214.222      126.256    81476.572    45890.893    15940.496       18.771        7.165      481.656      124.787        0.067      341.632       16.476      858.025
09/25/2014  18:14:00     -514.185     -111.935      -10.253      352.461      213.519      121.067   124228.785    45590.488    14657.166       23.072        9.224      526.227      155.373        0.087      341.611       16.442      858.066
09/25/2014  18:15:00     -463.626      -69.950      -24.083      342.773      254.180      132.877   117493.049    64607.261    17656.425       21.006        9.988      468.873      114.837        0.060      341.602       16.424      858.125
09/25/2014  18:16:00     -492.099      -84.031       -8.095      312.324      258.813      120.985    97546.493    66984.140    14637.424       21.420        8.958      499.222      143.390        0.082      341.549       16.337      858.248
09/25/2014  18:17:00     -688.121     -116.727      -36.884      325.979      253.921      120.869   106262.080    64475.630    14609.418       33.689        9.267      697.951      142.381        0.042      341.469       16.198      858.324
09/25/2014  18:18:00     -466.804      -28.684      -19.239      240.102      187.274      103.950    57649.049    35071.422    10805.547       16.129        5.176      467.684      122.625        0.069      341.587       16.399      858.347
09/25/2014  18:19:00     -583.209     -169.775      -16.876      416.769      285.010      150.802   173696.098    81230.911    22741.330       32.341       13.883      607.417      179.144        0.087      341.519       16.284      858.351
09/25/2014  18:20:00     -573.516      -54.877      -44.766      413.032      305.367      143.713   170595.447    93249.249    20653.403       30.917       14.225      576.135      147.761        0.066      341.441       16.152      858.342
09/25/2014  18:21:00     -602.649      -85.669      -14.241      333.515      249.160      128.545   111232.130    62080.880    16523.937       28.025        9.492      608.708      150.435        0.061      341.457       16.179      858.327
09/25/2014  18:22:00     -755.049      -93.124      -45.383      281.252      292.987      132.384    79102.540    85841.352    17525.454       38.162        9.123      760.770      118.563        0.024      341.331       15.967      858.349
09/25/2014  18:23:00     -843.821     -146.747      -66.378      279.931      196.391      112.010    78361.330    38569.242    12546.135       43.370        6.474      856.487      126.390        0.022      341.309       15.928      858.287
09/25/2014  18:24:00     -574.535     -115.962       -1.312      351.400      240.042      116.904   123482.038    57620.373    13666.483       26.912        9.738      586.121      146.451        0.062      341.434       16.141      858.296
09/25/2014  18:25:00     -584.889     -122.495      -17.849      306.047      215.175      106.107    93664.665    46300.273    11258.631       25.430        7.561      597.578      129.267        0.047      341.432       16.135      858.316
09/25/2014  18:26:00     -315.795      -51.150        8.670      210.628      220.622      120.895    44364.127    48674.158    14615.677       10.502        5.383      319.911      126.552        0.156      341.457       16.181      858.373
09/25/2014  18:27:00     -337.879      -63.463       -9.594      190.226      125.638       80.488    36185.970    15784.818     6478.392        8.836        2.922      343.788       75.619        0.048      341.420       16.117      858.353
09/25/2014  18:28:00     -531.827     -119.693      -26.530      239.694      157.245       93.071    57453.362    24726.097     8662.158       19.434        4.542      545.130       98.754        0.033      341.288       15.893      858.318
09/25/2014  18:29:00     -491.262      -40.009      -10.414      254.180      244.472      104.363    64607.278    59766.730    10891.698       18.913        6.763      492.888      104.149        0.045      341.301       15.916      858.219
09/25/2014  18:30:00     -690.699     -167.055       -6.406      344.153      259.607      133.108   118441.453    67395.987    17717.764       35.425       10.178      710.614      166.499        0.055      341.240       15.811      858.172
09/25/2014  18:31:00     -386.526      -16.804      -11.574      313.172      214.835      105.597    98076.858    46154.003    11150.721       15.257        7.769      386.891      145.943        0.142      341.274       15.870      858.127
09/25/2014  18:32:00     -592.431     -268.518      -31.074      321.573      330.759      148.775   103408.934   109401.837    22133.988       32.945       11.747      650.443      159.274        0.060      341.199       15.741      858.166
09/25/2014  18:33:00     -732.343     -225.689      -42.764      276.127      256.009      117.885    76245.982    65540.414    13896.836       37.236        7.784      766.331      132.916        0.030      341.108       15.588      858.295
09/25/2014  18:34:00     -728.016     -162.315      -39.682      305.283      249.434      116.572    93197.954    62217.354    13589.065       36.344        8.450      745.891      135.162        0.033      341.128       15.621      858.388
09/25/2014  18:35:00     -579.581     -155.049      -16.246      247.697      275.303      105.013    61353.984    75791.675    11027.726       25.417        7.409      599.962      112.096        0.035      341.114       15.598      858.435
09/25/2014  18:36:00     -656.935      -54.928      -37.517      245.042      186.595      109.781    60045.454    34817.788    12051.925       27.143        5.346      659.228      110.928        0.028      341.097       15.571      858.473
09/25/2014  18:37:00     -627.578      -72.665      -13.517      330.609      198.110      107.935   109302.322    39247.457    11649.889       27.973        8.010      631.771      134.710        0.045      341.036       15.466      858.524
09/25/2014  18:38:00     -415.940      -25.364      -19.156      217.531      146.362       97.951    47319.584    21421.737     9594.440       12.616        3.917      416.712      106.145        0.065      341.057       15.503      858.476
09/25/2014  18:39:00     -385.119      -92.290      -10.324      283.642      215.510      102.255    80452.742    46444.395    10456.077       14.712        6.868      396.023      129.222        0.106      341.112       15.597      858.429
09/25/2014  18:40:00     -694.706      -16.074      -42.662      347.316      207.745      125.551   120628.109    43158.169    15763.108       33.209        8.977      694.892      168.607        0.059      341.003       15.410      858.430
09/25/2014  18:41:00     -435.801       92.033      -19.518      248.041      181.183       90.768    61524.273    32827.232     8238.893       15.066        5.130      445.413      110.274        0.061      341.062       15.512      858.419
09/25/2014  18:42:00     -700.441      -27.716      -31.973      373.488      230.731      145.295   139493.482    53236.727    21110.655       35.309       10.692      700.989      185.310        0.070      340.995       15.398      858.246
09/25/2014  18:43:00     -648.979      -31.671      -43.612      299.800      225.017      124.507    89880.066    50632.581    15502.020       29.002        7.801      649.751      143.158        0.049      341.049       15.489      858.295
09/25/2014  18:44:00     -733.698     -156.356      -36.750      325.861      233.297      114.187   106185.429    54427.346    13038.680       36.885        8.683      750.174      142.967        0.036      340.983       15.375      858.390
09/25/2014  18:45:00     -467.198     -107.637       -8.944      214.053      178.036       99.905    45818.796    31696.792     9980.979       15.870        4.375      479.436      114.039        0.057      341.046       15.484      858.441
09/25/2014  18:46:00     -324.194      -52.216      -18.206      190.863      147.982       96.060    36428.783    21898.563     9227.569        8.785        3.378      328.372       98.425        0.090      341.079       15.539      858.448
09/25/2014  18:47:00     -428.402      -79.739        6.266      260.002      176.260      106.830    67601.005    31067.618    11412.682       14.999        5.504      435.760      124.192        0.081      341.035       15.465      858.365
09/25/2014  18:48:00     -607.512      -20.201      -46.616      345.082      206.928       91.916   119081.274    42819.044     8448.476       27.097        8.517      607.847      124.880        0.042      341.034       15.462      858.401
09/25/2014  18:49:00     -415.934     -141.230       11.236      302.039      233.944      109.899    91227.527    54729.773    12077.821       17.553        7.902      439.257      144.188        0.108      340.982       15.375      858.426
09/25/2014  18:50:00     -329.146      -36.372       17.591      257.557      169.428       95.986    66335.780    28705.964     9213.292       10.709        5.213      331.149      116.801        0.124      341.026       15.449      858.492
09/25/2014  18:51:00     -216.075       -4.901       -1.323      158.992      106.136       76.077    25278.397    11264.892     5787.693        4.452        2.117      216.131       84.496        0.153      341.099       15.574      858.506
09/25/2014  18:52:00     -273.784      -36.814       -1.877      179.084      168.364       86.116    32070.998    28346.547     7415.991        7.206        3.392      276.248       97.702        0.125      340.962       15.342      858.476
09/25/2014  18:53:00     -278.284     -138.460       17.234      246.173      188.617       95.250    60601.347    35576.311     9072.573       10.106        5.263      310.827      112.441        0.131      340.940       15.305      858.444
09/25/2014  18:54:00     -316.280     -178.336      -12.807      233.436      199.774      101.415    54492.296    39909.653    10284.936       11.833        5.234      363.093       98.049        0.073      340.908       15.249      858.430
09/25/2014  18:55:00     -329.550     -228.209       -5.180      236.720      198.198      112.793    56036.193    39282.312    12722.224       13.436        5.402      400.852      128.766        0.103      340.920       15.270      858.406
09/25/2014  18:56:00     -311.079     -191.902        2.534      248.611      208.344      101.691    61807.581    43407.180    10341.015       12.456        5.778      365.509      119.568        0.107      340.933       15.293      858.438
09/25/2014  18:57:00     -611.308      -88.803      -41.047      299.594      266.574      103.825    89756.536    71061.636    10779.576       27.740        8.580      617.724      112.244        0.033      340.912       15.256      858.385
09/25/2014  18:58:00     -453.218     -151.633        1.099      361.377      239.617      158.140   130593.043    57416.269    25008.229       22.067       10.651      477.911      186.507        0.152      340.906       15.246      858.353
09/25/2014  18:59:00     -631.954     -122.311      -22.063      375.596      238.648      132.092   141072.101    56952.683    17448.282       31.511       10.774      643.681      156.177        0.059      340.829       15.118      858.478
09/25/2014  19:00:00     -560.824      -78.733      -30.725      245.363      179.521      113.587    60202.884    32227.705    12902.095       21.348        5.267      566.323      122.519        0.047      340.802       15.070      858.445
09/25/2014  19:01:00     -373.086     -201.290       -7.923      287.779      220.334      129.568    82816.587    48547.264    16787.786       16.394        7.408      423.923      137.763        0.106      340.825       15.111      858.427
09/25/2014  19:02:00     -426.075      -58.822       -3.895      246.080      154.123      106.040    60555.313    23753.942    11244.489       14.027        4.778      430.116      128.874        0.090      340.806       15.079      858.486
09/25/2014  19:03:00     -386.895     -220.317      -31.985      244.289      170.128       88.510    59676.892    28943.465     7834.028       14.784        4.823      445.227       90.461        0.041      340.809       15.084      858.560
09/25/2014  19:04:00     -610.089      -77.019      -21.158      326.027      294.073      123.775   106293.897    86478.809    15320.212       29.331       10.405      614.932      140.663        0.052      340.775       15.025      858.600
09/25/2014  19:05:00     -396.164     -237.134      -22.230      313.325      211.797      130.259    98172.424    44857.938    16967.361       18.681        8.000      461.712      134.050        0.084      340.773       15.022      858.629
09/25/2014  19:06:00     -409.163     -197.436      -49.533      281.932      153.119       78.097    79485.508    23445.423     6099.111       15.892        5.452      454.308       80.846        0.032      340.785       15.042      858.687
09/25/2014  19:07:00     -323.510      -77.489      -17.381      210.877      159.019       87.874    44469.190    25286.947     7721.830        9.421        3.874      332.660       85.074        0.065      340.804       15.074      858.624
09/25/2014  19:08:00     -499.709      -55.441      -28.150      203.284      178.873       89.431    41324.317    31995.692     7997.979       16.743        4.066      502.775       97.235        0.037      340.752       14.986      858.647
09/25/2014  19:09:00     -336.539      -65.148      -11.516      253.269      156.387       86.973    64145.175    24456.839     7564.351       10.688        4.808      342.786      107.122        0.098      340.766       15.010      858.514
09/25/2014  19:10:00     -278.615      -70.085       17.181      252.233      193.502      103.654    63621.454    37442.878    10744.051        9.730        5.590      287.295      129.796        0.204      340.783       15.039      858.568
09/25/2014  19:11:00     -313.945      -38.113       -2.214      239.631      169.329       99.875    57422.913    28672.145     9975.077        9.803        4.804      316.250       95.924        0.092      340.733       14.956      858.596
09/25/2014  19:12:00     -276.757     -225.991        2.727      229.391      219.456      109.126    52620.254    48161.083    11908.491       12.016        5.634      357.304       94.242        0.070      340.739       14.965      858.617
09/25/2014  19:13:00     -458.555      -41.794      -21.574      209.236      153.841      105.082    43779.713    23666.951    11042.259       14.547        3.924      460.456      109.775        0.057      340.695       14.889      858.687
09/25/2014  19:14:00     -391.218      -91.547       -5.592      185.769      164.624       85.731    34510.007    27101.054     7349.866       11.520        3.448      401.787       96.340        0.057      340.720       14.932      858.682
09/25/2014  19:15:00     -395.706      -53.106      -15.431      232.951      170.323      128.822    54266.215    29009.953    16595.016       12.974        4.994      399.254      135.729        0.116      340.702       14.902      858.591
09/25/2014  19:16:00     -537.827       31.188      -17.583      250.387      228.753      107.271    62693.446    52327.933    11507.158       20.851        6.326      538.731      118.099        0.048      340.671       14.848      858.545
09/25/2014  19:17:00     -660.264     -125.113      -32.031      276.558      270.202      131.284    76484.281    73009.322    17235.461       30.965        8.336      672.013      129.115        0.037      340.669       14.846      858.586
09/25/2014  19:18:00     -495.461      -66.747      -15.924      238.329      186.550      105.802    56800.858    34801.038    11194.158       17.648        5.140      499.937      127.689        0.065      340.665       14.838      858.724
09/25/2014  19:19:00     -244.469      -99.797       -4.981      158.315      122.360       67.957    25063.565    14972.004     4618.163        5.719        2.233      264.054       67.513        0.065      340.700       14.899      858.795
09/25/2014  19:20:00     -300.920     -156.187       -0.311      247.487      189.429       86.421    61249.875    35883.487     7468.635       10.976        5.230      339.038      106.309        0.098      340.706       14.909      858.834
09/25/2014  19:21:00     -213.171     -107.719       21.875      224.363      144.720       94.165    50338.826    20944.012     8866.974        6.882        4.007      238.842      110.147        0.213      340.687       14.877      858.881
09/25/2014  19:22:00     -336.097     -177.657      -22.218      270.055      189.295       95.714    72929.965    35832.570     9161.211       13.145        5.896      380.162      139.800        0.135      340.691       14.882      858.818
09/25/2014  19:23:00     -290.253       -8.755      -10.945      192.324      161.358       90.933    36988.473    26036.461     8268.768        7.786        3.565      290.385       93.434        0.104      340.674       14.854      858.698
09/25/2014  19:24:00     -418.179     -250.589       -5.885      245.876      190.386      115.471    60454.917    36246.825    13333.557       17.385        5.502      487.512      121.925        0.063      340.644       14.802      858.619
09/25/2014  19:25:00     -639.347     -149.060      -36.141      322.743      217.238       93.189   104163.228    47192.453     8684.193       29.614        8.002      656.493      125.035        0.036      340.674       14.854      858.666
09/25/2014  19:26:00     -462.029     -112.495      -19.903      245.356      188.744       94.639    60199.337    35624.198     8956.612       16.563        5.239      475.528      101.357        0.045      340.683       14.869      858.709
09/25/2014  19:27:00     -225.765      -75.441       12.144      167.502      144.970       74.298    28057.039    21016.402     5520.231        5.569        2.730      238.036       85.353        0.129      340.702       14.901      858.740
09/25/2014  19:28:00     -256.991      -78.806        5.428      219.886      121.895       81.182    48349.729    14858.373     6590.517        7.103        3.490      268.802      100.752        0.140      340.672       14.852      858.767
09/25/2014  19:29:00     -414.503      -92.946      -18.588      149.501      110.063       70.061    22350.566    12113.843     4908.540       11.008        1.969      424.795       78.097        0.034      340.641       14.797      858.762
09/25/2014  19:30:00     -420.751      -71.598       -9.701      265.157      171.698       88.805    70308.149    29480.174     7886.406       14.495        5.384      426.799      109.364        0.066      340.628       14.776      858.738
09/25/2014  19:31:00     -487.049      -51.932      -32.726      174.483      165.337       86.596    30444.352    27336.314     7498.940       15.312        3.264      489.810       72.531        0.022      340.584       14.702      858.736
09/25/2014  19:32:00     -414.410     -104.964      -31.112      177.159      161.188       75.520    31385.327    25981.421     5703.318       12.338        3.154      427.496       71.933        0.028      340.609       14.745      858.724
09/25/2014  19:33:00     -311.126      -29.353       -9.454      192.940      148.421       78.652    37225.705    22028.875     6186.070        8.158        3.272      312.508       91.939        0.087      340.605       14.736      858.729
09/25/2014  19:34:00     -316.113      -58.848      -16.219      179.353      143.814       91.260    32167.599    20682.473     8328.362        8.241        3.059      321.544       86.322        0.072      340.628       14.776      858.723
09/25/2014  19:35:00     -513.608       -9.287      -22.304      303.131      192.937      126.478    91888.121    37224.509    15996.623       20.472        7.255      513.692      157.347        0.094      340.600       14.729      858.746
09/25/2014  19:36:00     -704.216     -129.441      -50.565      182.367      219.124       99.767    33257.701    48015.341     9953.358       30.321        4.561      716.014       99.143        0.019      340.548       14.639      858.706
09/25/2014  19:37:00     -360.022       -9.720      -19.088      181.592      171.722       99.047    32975.659    29488.319     9810.215       10.116        3.614      360.153       96.366        0.072      340.565       14.669      858.651
09/25/2014  19:38:00     -374.509      -84.245       -9.080      301.691      153.939       93.820    91017.680    23697.097     8802.244       13.546        6.176      383.868      112.477        0.086      340.587       14.708      858.634
09/25/2014  19:39:00     -442.997      -52.750      -21.389      234.683      192.370       90.985    55076.176    37006.167     8278.351       14.991        5.018      446.127       91.440        0.042      340.574       14.685      858.699
09/25/2014  19:40:00     -571.299     -172.002      -20.044      251.901      167.992      107.743    63454.303    28221.327    11608.452       22.981        5.164      596.630      122.630        0.042      340.565       14.671      858.771
09/25/2014  19:41:00     -360.366      -70.417       -6.963      319.112      183.283      115.420   101832.238    33592.663    13321.709       14.178        7.437      367.182      131.269        0.128      340.599       14.728      858.779
09/25/2014  19:42:00     -436.772      -66.773      -22.453      159.277      132.498       78.436    25369.311    17555.821     6152.171       12.240        2.454      441.847       75.317        0.029      340.575       14.685      858.800
09/25/2014  19:43:00     -461.021      -55.458       -3.262      265.253      152.091      102.698    70359.018    23131.569    10546.816       15.981        5.202      464.345      117.836        0.064      340.650       14.812      858.832
09/25/2014  19:44:00     -165.416      -47.008        9.684      125.456       95.114       64.576    15739.151     9046.721     4170.028        2.931        1.448      171.966       57.729        0.113      340.762       15.005      858.837
09/25/2014  19:45:00      -56.893      -24.650       23.692      107.456       95.279       47.950    11546.872     9078.140     2299.207        1.366        1.146       62.003       44.969        0.526      340.804       15.076      858.831
09/25/2014  19:46:00      -32.222       -7.874       30.250       96.470       99.178       78.943     9306.366     9836.231     6232.037        1.369        1.269       33.170       66.526        4.022      340.780       15.037      858.834
09/25/2014  19:47:00     -395.715     -100.975       -6.969      280.272      274.427       99.379    78552.443    75310.368     9876.179       16.526        8.187      408.395      110.304        0.073      340.658       14.827      858.836
09/25/2014  19:48:00     -681.125     -117.687      -51.723      188.612      165.484      100.876    35574.651    27385.041    10175.867       27.678        3.657      691.217       99.282        0.021      340.597       14.723      858.808
09/25/2014  19:49:00     -401.925      -17.954       -2.870      170.812      167.678       96.445    29176.846    28115.872     9301.595       11.422        3.330      402.326       92.707        0.053      340.591       14.715      858.904
09/25/2014  19:50:00     -500.094      -87.853      -14.079      257.307      132.349       93.797    66206.836    17516.131     8797.962       17.525        4.626      507.752      113.069        0.050      340.568       14.675      858.931
09/25/2014  19:51:00     -308.580        8.060      -16.674      158.931      123.111       73.008    25259.118    15156.260     5330.171        7.065        2.287      308.685       74.703        0.059      340.548       14.641      858.841
09/25/2014  19:52:00     -585.283     -162.425      -18.313      360.114      185.022      106.415   129681.856    34232.965    11324.130       27.223        8.762      607.403      130.837        0.046      340.560       14.661      858.710
09/25/2014  19:53:00     -477.981     -161.269      -13.819      245.530      200.759      116.470    60284.794    40304.107    13565.156       18.439        5.708      504.453      130.839        0.067      340.744       14.974      858.733
09/25/2014  19:54:00     -409.715     -176.250       -7.367      288.095      179.472      121.550    82998.511    32210.031    14774.414       16.446        6.499      446.016      129.258        0.084      340.615       14.754      858.791
09/25/2014  19:55:00     -369.188     -113.353      -11.086      225.930      178.159      112.671    51044.528    31740.555    12694.774       12.236        4.774      386.198      126.342        0.107      340.607       14.741      858.875
09/25/2014  19:56:00     -417.702      -64.482      -18.118      246.307      146.496       84.595    60667.201    21461.224     7156.374       13.411        4.464      422.650      107.702        0.065      340.602       14.733      858.908
09/25/2014  19:57:00     -474.704      -57.989      -24.625      226.561      184.219       92.789    51329.672    33936.676     8609.763       16.158        4.694      478.232       81.791        0.029      340.612       14.748      858.910
09/25/2014  19:58:00     -364.827     -137.346       -9.722      196.194      211.616       87.910    38491.977    44781.140     7728.151       12.151        4.550      389.824       91.948        0.056      340.567       14.675      858.962
09/25/2014  19:59:00     -359.172     -140.158       -0.587      259.233      140.633       87.216    67201.970    19777.587     7606.679       12.160        4.729      385.550      107.258        0.077      340.518       14.591      858.964
09/25/2014  20:00:00     -287.367      -14.249      -17.361      153.412      129.977       77.315    23535.252    16893.993     5977.659        6.474        2.320      287.720       68.933        0.057      340.499       14.558      858.949
09/25/2014  20:01:00     -377.716       65.114      -39.489      167.825      140.198       77.610    28165.352    19655.443     6023.373       10.115        2.692      383.287       66.387        0.030      340.568       14.675      858.858
09/25/2014  20:02:00     -555.069     -127.967      -35.061      206.970      185.134       92.696    42836.671    34274.513     8592.539       20.569        4.285      569.629       98.633        0.030      340.460       14.491      858.801
09/25/2014  20:03:00     -507.745      -20.746      -13.136      260.103      188.616      111.554    67653.513    35576.130    12444.252       18.702        5.784      508.169      121.621        0.057      340.546       14.637      858.822
09/25/2014  20:04:00     -278.861      -76.701       -4.486      170.363      145.872       85.249    29023.435    21278.776     7267.351        7.061        2.878      289.217       91.807        0.101      340.540       14.629      858.916
09/25/2014  20:05:00     -247.648      -11.726      -11.161      181.970      153.803       90.573    33112.906    23655.335     8203.497        6.327        3.249      247.926       76.143        0.094      340.588       14.708      858.955
09/25/2014  20:06:00     -156.270      -64.363        5.829      139.381      103.275       61.373    19427.081    10665.742     3766.701        3.122        1.693      169.005       61.944        0.134      340.546       14.639      858.995
09/25/2014  20:07:00     -174.109      -12.113      -12.523      186.843      111.040       79.605    34910.344    12329.985     6336.983        4.209        2.679      174.530       89.128        0.261      340.550       14.646      858.952
09/25/2014  20:08:00     -393.394      -53.982      -25.896      193.360      199.051       78.277    37388.044    39621.346     6127.214       12.073        4.157      397.080       66.937        0.028      340.474       14.515      858.894
09/25/2014  20:09:00     -537.243      -25.365      -24.532      190.876      167.374       84.342    36433.780    28014.185     7113.569       18.071        3.578      537.842       74.054        0.019      340.455       14.484      858.817
09/25/2014  20:10:00     -344.938      -64.414      -11.639      192.133      136.138       87.822    36915.177    18533.452     7712.634        9.320        3.158      350.900       98.378        0.079      340.471       14.510      858.819
09/25/2014  20:11:00     -184.034     -149.307       10.785      192.537      163.148      101.157    37070.632    26617.431    10232.752        6.509        3.696      236.984      105.434        0.198      340.475       14.517      858.865
09/25/2014  20:12:00     -427.504     -155.354       -4.829      248.389      180.211      103.320    61697.193    32476.019    10675.023       15.587        5.242      454.857      102.812        0.051      340.458       14.488      858.911
09/25/2014  20:13:00     -473.341     -182.579      -21.733      278.993      186.208      112.477    77836.834    34673.246    12651.113       19.149        6.258      507.333      106.869        0.044      340.508       14.573      858.942
09/25/2014  20:14:00     -402.942     -326.105      -13.020      219.167      189.816      115.848    48034.023    36030.128    13420.811       18.316        4.874      518.369      121.311        0.055      340.592       14.715      858.891
09/25/2014  20:15:00     -257.784     -127.109        5.994      184.345      151.724       94.384    33982.974    23020.138     8908.398        7.427        3.296      287.418       92.787        0.104      340.642       14.800      858.943
09/25/2014  20:16:00     -330.600     -206.896       -6.225      210.499      155.509      101.587    44309.853    24183.154    10319.824       11.546        3.941      390.003      117.994        0.092      340.535       14.620      858.992
09/25/2014  20:17:00     -337.152      -28.731       -8.998      190.976      148.147       79.060    36471.751    21947.388     6250.506        8.961        3.233      338.374       83.820        0.061      340.607       14.741      859.034
09/25/2014  20:18:00     -240.744      -55.228        1.840      169.373      119.961       67.502    28687.325    14390.758     4556.560        5.431        2.382      246.997       84.012        0.116      340.592       14.716      859.067
09/25/2014  20:19:00     -325.486     -121.919        7.686      243.483      193.668      102.079    59284.140    37507.381    10420.155       11.402        5.361      347.571      126.135        0.132      340.541       14.629      859.099
09/25/2014  20:20:00     -449.887     -149.403      -13.071      208.960      195.846       98.969    43664.253    38355.550     9794.819       15.834        4.591      474.046      101.867        0.046      340.555       14.653      859.066
09/25/2014  20:21:00     -306.719     -143.745       -5.155      165.396      115.177       66.996    27355.826    13265.671     4488.399        7.993        2.255      338.732       81.374        0.058      340.502       14.563      858.972
09/25/2014  20:22:00     -269.312     -150.834        9.738      190.042      172.630       88.383    36115.893    29801.191     7811.486        8.454        3.686      308.674       92.615        0.090      340.506       14.570      858.896
09/25/2014  20:23:00     -337.461      -67.894       -6.174      223.020      123.654       91.176    49738.071    15290.347     8313.146        9.592        3.667      344.223      122.845        0.127      340.548       14.641      858.925
09/25/2014  20:24:00     -253.533      -36.715       -9.804      104.674       89.717       58.106    10956.683     8049.106     3376.313        4.405        1.119      256.178       59.211        0.053      340.579       14.694      858.987
09/25/2014  20:25:00     -425.234       13.624      -28.020      182.024      153.978       75.182    33132.660    23709.324     5652.349       12.213        3.125      425.452       78.604        0.034      340.567       14.672      858.961
09/25/2014  20:26:00     -240.493     -113.591       17.265      239.686      181.070       89.601    57449.158    32786.424     8028.276        8.463        4.913      265.970      111.590        0.176      340.455       14.485      858.893
09/25/2014  20:27:00     -388.820      -62.282      -23.595      260.973      133.510       80.301    68106.692    17825.013     6448.252       12.398        4.619      393.776      117.840        0.090      340.402       14.396      858.890
09/25/2014  20:28:00     -379.786      -88.474       -6.296      182.370      135.850       80.996    33258.923    18455.211     6560.390       10.518        2.914      389.955       91.615        0.055      340.359       14.322      858.898
09/25/2014  20:29:00     -228.624     -128.655       29.753      185.211      179.404       80.018    34303.244    32185.671     6402.809        7.129        3.645      262.338       85.879        0.107      340.384       14.365      858.989
09/25/2014  20:30:00      -96.558      -60.997       23.458      194.114      109.287       60.050    37680.356    11943.539     3605.973        3.340        2.661      114.211       65.654        0.330      340.415       14.419      858.983
09/25/2014  20:31:00     -251.327     -109.104       -7.024      157.987      158.487       76.962    24959.861    25118.015     5923.152        6.555        2.800      273.987       72.729        0.070      340.371       14.345      858.880
09/25/2014  20:32:00     -261.227      -78.094        3.016      185.841      170.382       88.176    34536.817    29029.985     7774.939        7.283        3.567      272.651       89.297        0.107      340.358       14.321      858.858
09/25/2014  20:33:00     -197.224      -85.239       18.936      190.898      155.952      100.702    36441.958    24320.924    10140.817        5.870        3.545      214.855       96.037        0.200      340.345       14.299      858.830
09/25/2014  20:34:00     -288.852     -116.895      -30.093      151.186      160.956       78.613    22857.327    25906.889     6180.063        7.647        2.747      311.609       74.831        0.058      340.339       14.289      858.880
09/25/2014  20:35:00     -221.987     -172.416       15.210      198.311      188.232      104.740    39327.174    35431.196    10970.401        8.247        4.286      281.079      121.103        0.186      340.395       14.382      859.021
09/25/2014  20:36:00     -358.523     -104.553      -18.743      189.166      165.225       82.077    35783.939    27299.371     6736.554       10.481        3.491      373.457       96.209        0.066      340.413       14.413      859.081
09/25/2014  20:37:00     -200.576      -33.396        1.755      144.528      132.733       66.366    20888.328    17617.932     4404.506        4.212        2.146      203.337       64.962        0.102      340.415       14.418      859.036
09/25/2014  20:38:00     -430.448     -117.843      -27.989      213.453      234.651       92.321    45562.056    55060.965     8523.226       15.453        5.457      446.288       72.067        0.026      340.402       14.394      858.924
09/25/2014  20:39:00     -334.123     -132.648       -6.053      214.401      159.639       98.787    45967.855    25484.654     9758.841       10.523        4.061      359.491      118.772        0.109      340.398       14.389      858.927
09/25/2014  20:40:00     -213.515      -78.915        0.489      129.639      124.563       62.693    16806.249    15516.054     3930.359        4.403        1.813      227.632       51.308        0.051      340.409       14.406      858.939
09/25/2014  20:41:00     -189.184      -78.057       12.083      130.319      152.883       68.770    16982.983    23373.328     4729.379        4.355        2.254      204.654       66.435        0.105      340.403       14.397      858.828
09/25/2014  20:42:00     -288.865      -22.424      -19.229      236.272      125.010       69.147    55824.420    15627.618     4781.372        8.026        3.812      289.734       89.685        0.096      340.379       14.358      858.788
09/25/2014  20:43:00     -307.297      -84.019      -19.228      173.866      117.906       70.902    30229.305    13901.883     5027.072        7.550        2.458      318.576       63.160        0.039      340.400       14.392      858.710
09/25/2014  20:44:00     -339.976       -9.212        0.960      211.926      145.440       90.350    44912.649    21152.767     8163.111        9.494        3.711      340.101      100.170        0.087      340.381       14.360      858.724
09/25/2014  20:45:00     -310.401      -48.065       -9.040      189.208      149.309       80.134    35799.529    22293.310     6421.504        8.162        3.226      314.100       89.844        0.082      340.522       14.599      858.770
09/25/2014  20:46:00     -177.056      -30.656        1.310      135.368      101.698       60.397    18324.433    10342.490     3647.765        3.230        1.616      179.691       69.983        0.152      340.468       14.507      858.779
09/25/2014  20:47:00     -252.709      -38.382      -23.077      165.838      154.791       67.118    27502.196    23960.332     4504.888        6.091        2.798      255.607       68.109        0.071      340.500       14.561      858.869
09/25/2014  20:48:00     -396.562     -166.853        7.201      226.216      143.655       80.994    51173.506    20636.634     6560.080       13.175        3.919      430.234       85.158        0.039      340.472       14.512      859.012
09/25/2014  20:49:00     -404.793     -199.693      -23.375      196.458      172.864       93.406    38595.589    29881.870     8724.615       14.073        3.860      451.370       85.299        0.036      340.472       14.512      858.883
09/25/2014  20:50:00     -246.002      -27.948      -20.470      133.130      128.119       58.631    17723.467    16414.560     3437.599        4.964        1.879      247.584       66.419        0.072      340.450       14.475      858.854
09/25/2014  20:51:00     -200.147      -97.835       12.871      145.205      137.626       70.208    21084.407    18941.045     4929.195        4.737        2.248      222.779       75.885        0.116      340.501       14.561      858.940
09/25/2014  20:52:00     -162.129      -92.793       18.024      142.466      103.606       68.510    20296.482    10734.105     4693.604        3.547        1.786      186.806       70.461        0.142      340.522       14.597      859.018
09/25/2014  20:53:00     -302.586     -276.405      -12.416      210.522      202.225       85.753    44319.426    40895.135     7353.546       13.032        4.628      409.827      100.272        0.060      340.499       14.560      858.947
09/25/2014  20:54:00     -185.527     -123.722        7.572      144.368      118.574       72.611    20842.233    14059.859     5272.376        4.497        2.009      222.996       84.043        0.142      340.499       14.559      858.989
09/25/2014  20:55:00     -181.318      -56.915       -9.257      175.552      113.796       76.399    30818.484    12949.555     5836.783        4.289        2.480      190.041       80.156        0.178      340.467       14.505      859.011
09/25/2014  20:56:00     -269.772      -45.289       -8.404      153.949      131.590       69.390    23700.153    17316.013     4815.011        6.036        2.292      273.547       66.184        0.059      340.421       14.427      859.014
09/25/2014  20:57:00     -208.907      -67.208       -8.675      191.495       91.366       60.617    36670.271     8347.709     3674.406        4.846        2.435      219.452       66.116        0.091      340.429       14.440      859.044
09/25/2014  20:58:00     -197.332       17.224      -31.047      161.913      100.851       58.021    26215.679    10170.940     3366.383        3.997        1.988      198.082       84.563        0.182      340.445       14.467      859.059
09/25/2014  20:59:00     -148.932       31.924      -10.486      150.807       56.656       37.313    22742.879     3209.905     1392.277        2.532        1.367      152.315       58.592        0.148      340.464       14.502      859.086
09/25/2014  21:00:00     -425.308       17.498      -24.270      206.901      180.573       78.333    42808.107    32606.731     6136.133       13.165        4.078      425.667       92.153        0.047      340.675       14.856      859.099
09/25/2014  21:01:00     -242.588     -109.356       -4.305      112.341       92.862       60.127    12620.555     8623.352     3615.213        4.784        1.243      266.097       60.874        0.052      340.670       14.847      859.252
09/25/2014  21:02:00     -139.905      -36.035       19.976      134.547       87.550       47.459    18103.008     7664.980     2252.317        2.464        1.401      144.472       53.233        0.136      340.608       14.744      859.363
09/25/2014  21:03:00      -25.150      -41.701       21.715       92.317       50.720       36.693     8522.457     2572.496     1346.408        0.764        0.622       48.698       31.337        0.414      340.517       14.592      859.335
09/25/2014  21:04:00     -219.675     -111.609      -11.784      141.756       92.848       58.160    20094.626     8620.762     3382.530        4.647        1.605      246.401       72.120        0.086      340.653       14.821      859.289
09/25/2014  21:05:00      -80.695      -58.481      -13.391       81.517       88.021       29.020     6645.010     7747.679      842.173        1.267        0.762       99.658       30.816        0.096      340.626       14.777      859.293
09/25/2014  21:06:00      -87.770      -70.236       -1.998       61.255       55.036       23.950     3752.178     3028.913      573.622        1.000        0.368      112.413       32.328        0.083      340.666       14.844      859.366
09/25/2014  21:07:00       25.072       55.236       36.407      122.711       97.527       52.077    15057.937     9511.552     2711.977        1.614        1.364       60.660       52.646        0.753      340.699       14.900      859.343
09/25/2014  21:08:00       73.671       96.731       20.736       77.294       68.602       49.706     5974.311     4706.215     2470.685        1.418        0.658      121.591       40.459        0.111      340.595       14.722      859.210
09/25/2014  21:09:00      -56.175        0.327       26.111      101.622       45.734       46.817    10326.954     2091.594     2191.785        0.922        0.731       56.176       66.021        1.381      340.676       14.861      859.179
09/25/2014  21:10:00     -129.615      -35.254       16.913      138.351       80.351       54.439    19141.050     6456.343     2963.631        2.344        1.428      134.324       63.295        0.222      340.638       14.795      859.199
09/25/2014  21:11:00     -284.982     -140.286       -7.700      169.329      119.986       76.265    28672.463    14396.622     5816.383        7.491        2.444      317.639       81.200        0.065      340.577       14.690      859.245
09/25/2014  21:12:00     -210.748     -256.672       -8.146      137.301      117.322       67.704    18851.539    13764.517     4583.841        7.377        1.860      332.107       61.006        0.034      340.505       14.570      859.217
09/25/2014  21:13:00     -136.062      -72.659       13.824      152.660       95.341       57.199    23305.111     9089.867     3271.732        2.982        1.783      154.247       71.364        0.214      340.499       14.560      859.164
09/25/2014  21:14:00     -354.952     -175.216      -10.519      194.926      154.898       78.519    37996.124    23993.347     6165.185       11.247        3.408      395.843       83.171        0.044      340.576       14.688      859.107
09/25/2014  21:15:00     -236.553      -87.126       -2.867      144.085      149.628       71.279    20760.587    22388.525     5080.713        5.589        2.411      252.088       76.447        0.092      340.597       14.723      859.143
09/25/2014  21:16:00     -202.690     -152.105       -7.952      108.129      100.879       60.400    11691.843    10176.601     3648.202        4.490        1.276      253.415       61.190        0.058      340.639       14.794      859.187
09/25/2014  21:17:00     -185.261     -147.093        1.144      196.039      145.441       68.464    38431.387    21153.003     4687.304        6.010        3.214      236.555       92.898        0.154      340.577       14.690      859.168
09/25/2014  21:18:00     -337.392     -142.103       -6.392      193.451      155.580       76.792    37423.385    24205.073     5896.955       10.079        3.376      366.097       82.632        0.051      340.539       14.627      859.165
09/25/2014  21:19:00     -503.072     -318.523      -27.286      168.730      179.361       88.874    28469.831    32170.460     7898.541       21.190        3.427      595.431       90.002        0.023      340.535       14.618      859.219
09/25/2014  21:20:00     -378.244     -239.248      -17.569      144.778      110.163       68.498    20960.584    12135.913     4691.928       11.920        1.889      447.558       62.513        0.020      340.504       14.568      859.285
09/25/2014  21:21:00     -211.716      -40.520      -10.579      152.970      150.750       85.359    23399.744    22725.441     7286.132        4.999        2.671      215.558       80.326        0.139      340.452       14.479      859.258
09/25/2014  21:22:00     -205.498     -138.992       -6.843      151.397      122.006       69.218    22921.102    14885.421     4791.148        5.209        2.130      248.089       79.549        0.103      340.462       14.496      859.212
09/25/2014  21:23:00     -315.197     -119.393      -11.864      181.745      171.635       74.731    33031.288    29458.654     5584.662        9.090        3.404      337.052       76.124        0.051      340.481       14.529      859.188
09/25/2014  21:24:00     -163.630     -133.071       14.311      152.235       98.209       69.034    23175.372     9644.917     4765.713        4.113        1.879      210.909       68.383        0.105      340.524       14.602      859.246
09/25/2014  21:25:00     -223.427      -36.077       -5.112      128.388      111.570       58.283    16483.517    12447.801     3396.861        4.178        1.616      226.321       62.161        0.075      340.546       14.640      859.349
09/25/2014  21:26:00     -132.237      -85.467        2.701      134.597       83.053       56.854    18116.339     6897.788     3232.371        2.652        1.412      157.452       67.482        0.184      340.549       14.645      859.385
09/25/2014  21:27:00     -211.064      -92.443        3.209      186.675      151.607       74.149    34847.451    22984.547     5498.006        5.821        3.167      230.420       88.854        0.149      340.484       14.533      859.411
09/25/2014  21:28:00     -102.186      -13.131       17.227      119.444      104.995       66.347    14266.773    11023.911     4401.869        2.030        1.485      103.026       60.604        0.346      340.431       14.445      859.231
09/25/2014  21:29:00      -10.931     -140.119       -8.239       41.987       83.099       35.440     1762.937     6905.479     1255.987        1.487        0.496      140.545       26.193        0.035      340.463       14.498      859.123
09/25/2014  21:30:00     -134.087      -77.375        6.896      160.845      103.386       46.086    25871.148    10688.599     2123.877        3.134        1.934      154.810       62.666        0.164      340.490       14.545      859.179
09/25/2014  21:31:00     -111.072      -85.021       10.761      135.627      131.925       57.524    18394.678    17404.242     3308.954        2.939        1.955      139.877       37.128        0.070      340.571       14.679      859.223
09/25/2014  21:32:00       54.353       90.227        9.390       90.450       73.969       46.302     8181.178     5471.450     2143.892        1.349        0.790      105.333       27.371        0.068      340.457       14.492      859.230
09/25/2014  21:33:00     -171.326     -180.879        1.964      169.902      177.671       77.039    28866.602    31567.094     5935.044        6.421        3.318      249.138       91.271        0.134      340.547       14.640      859.304
09/25/2014  21:34:00      -79.643     -135.943       -0.768      157.015      134.046       65.378    24653.808    17968.439     4274.328        3.585        2.345      157.555       61.918        0.154      340.520       14.596      859.409
09/25/2014  21:35:00      -84.539     -153.091       -9.052      197.234      160.148       79.610    38901.171    25647.397     6337.687        5.076        3.544      174.882       45.768        0.068      340.517       14.590      859.458
09/25/2014  21:36:00      -14.043      -77.983       17.207      105.595       76.257       46.586    11150.205     5815.202     2170.224        1.285        0.957       79.237       49.124        0.384      340.499       14.560      859.463
09/25/2014  21:37:00     -358.921      -99.146      -31.199      212.869      119.212       68.801    45313.367    14211.479     4733.531       10.193        3.213      372.363       83.841        0.051      340.485       14.536      859.462
09/25/2014  21:38:00     -103.478     -112.896      -10.921      179.710       79.287       50.385    32295.824     6286.443     2538.609        3.234        2.056      153.144       41.885        0.075      340.428       14.439      859.342
09/25/2014  21:39:00      -15.780     -116.339       15.294       89.357      109.293       43.978     7984.669    11944.874     1934.056        1.794        1.093      117.404       52.120        0.197      340.487       14.540      859.400
09/25/2014  21:40:00      -40.523     -238.677        8.131      111.471      106.891       54.447    12425.674    11425.703     2964.484        4.274        1.341      242.093       43.271        0.032      340.543       14.632      859.478
09/25/2014  21:41:00      -47.450     -160.230       13.024       66.215       44.591       43.806     4384.444     1988.363     1918.970        1.819        0.415      167.108       46.417        0.077      340.504       14.567      859.463
09/25/2014  21:42:00       35.936     -200.213      -14.346      105.905       99.956       52.346    11215.821     9991.254     2740.059        3.276        1.197      203.413       30.147        0.022      340.510       14.577      859.491
09/25/2014  21:43:00      -16.031      -34.289       24.098       44.597       57.969       40.195     1988.933     3360.354     1615.670        0.449        0.348       37.851       22.533        0.354      340.443       14.465      859.494
09/25/2014  21:44:00     -182.587      -92.010      -23.968      157.970      124.761       55.114    24954.613    15565.380     3037.512        4.296        2.178      204.460       59.392        0.084      340.422       14.429      859.531
09/25/2014  21:45:00      -11.597       29.508       18.464       98.698       55.741       71.148     9741.297     3107.102     5062.077        0.963        0.896       31.705       48.932        2.382      340.365       14.335      859.466
09/25/2014  21:46:00      -48.162      -63.998        6.072       59.364       77.848       32.878     3524.133     6060.252     1080.959        0.856        0.533       80.096       19.772        0.061      340.394       14.384      859.543
09/25/2014  21:47:00       39.196      -68.590        8.307       83.173       84.935       53.910     6917.803     7213.887     2906.247        1.167        0.852       78.999       52.387        0.440      340.370       14.344      859.573
09/25/2014  21:48:00      -13.188      -22.866       18.111       56.388       46.346       42.366     3179.574     2147.950     1794.877        0.407        0.356       26.396       29.756        1.271      340.349       14.309      859.514
09/25/2014  21:49:00       68.537      -14.159       50.442       54.359       78.645       48.803     2954.933     6185.043     2381.753        0.948        0.576       69.984       52.092        0.554      340.106       13.899      859.490
09/25/2014  21:50:00       74.926       54.835       33.943       80.813       64.934       43.537     6530.793     4216.374     1895.506        1.121        0.632       92.849       39.130        0.178      340.234       14.113      859.483
09/25/2014  21:51:00       34.049        1.736       -1.951       83.069       79.050       35.302     6900.497     6248.884     1246.234        0.778        0.720       34.094       34.564        1.028      340.258       14.154      859.464
09/25/2014  21:52:00      -60.912      -81.053       16.168      155.784      130.780       74.285    24268.515    17103.509     5518.314        2.871        2.345      101.390       75.499        0.554      340.271       14.174      859.327
09/25/2014  21:53:00      -53.844      -18.434        4.353       99.076       74.885       54.526     9816.027     5607.835     2973.033        1.082        0.920       56.912       56.615        0.990      340.309       14.240      859.300
09/25/2014  21:54:00       22.645      -38.277       12.134       55.208       72.190       27.949     3047.947     5211.443      781.166        0.558        0.452       44.474       32.024        0.518      340.313       14.246      859.346
09/25/2014  21:55:00       49.175      -21.972       53.091       78.996       96.444       63.655     6240.351     9301.370     4051.952        1.265        0.980       53.860       57.611        1.144      340.189       14.038      859.401
09/25/2014  21:56:00      -59.520      -71.791       26.622       79.828       86.719       51.803     6372.506     7520.126     2683.561        1.299        0.829       93.256       52.346        0.315      340.314       14.247      859.446
09/25/2014  21:57:00       15.870      -35.461       29.430      183.761      136.417       77.351    33768.274    18609.533     5983.174        3.036        2.918       38.850       81.371        4.387      340.264       14.162      859.420
09/25/2014  21:58:00     -191.607     -123.127        6.174      183.070      114.188       72.030    33514.778    13038.848     5188.291        5.182        2.587      227.758       72.778        0.102      340.334       14.281      859.403
09/25/2014  21:59:00      -67.346       -1.357       30.505      105.498       74.662       50.926    11129.858     5574.420     2593.493        1.238        0.965       67.360       55.242        0.673      340.287       14.203      859.350
09/25/2014  22:00:00     -193.057      -55.205      -10.495      128.235      105.300       55.183    16444.109    11088.173     3045.140        3.550        1.529      200.794       56.960        0.080      340.316       14.249      859.335
09/25/2014  22:01:00     -204.452      -96.305      -13.834      133.450      112.223       56.124    17809.000    12594.007     3149.907        4.240        1.678      225.998       50.201        0.049      340.330       14.274      859.455
09/25/2014  22:02:00     -325.837     -157.116      -26.954      136.929      118.008       61.119    18749.570    13925.917     3735.499        8.399        1.821      361.739       36.834        0.010      340.399       14.389      859.570
09/25/2014  22:03:00      -88.515     -142.748        3.117       91.078       72.135       50.784     8295.192     5203.418     2579.055        2.215        0.804      167.964       39.814        0.056      340.371       14.343      859.522
09/25/2014  22:04:00      -75.277     -161.066        4.125       78.428       78.823       39.745     6150.884     6213.037     1579.694        2.278        0.697      177.789       32.324        0.033      340.408       14.406      859.465
09/25/2014  22:05:00     -140.052      -37.323      -13.132      139.775       95.275       36.052    19537.146     9077.243     1299.777        2.554        1.496      144.940       37.643        0.067      340.361       14.327      859.464
09/25/2014  22:06:00     -203.786      -79.528        5.089      183.375      144.657       68.761    33626.365    20925.579     4728.067        5.357        2.964      218.754       85.694        0.153      340.262       14.159      859.465
09/25/2014  22:07:00     -427.737      -86.746      -18.063      110.640      181.781       63.043    12241.125    33044.281     3974.380       12.003        2.463      436.444       56.176        0.017      340.303       14.228      859.473
09/25/2014  22:08:00     -501.766      -28.419      -25.540      185.270      139.420       79.777    34325.088    19438.054     6364.344       15.667        3.006      502.571       85.870        0.029      340.323       14.261      859.575
09/25/2014  22:09:00     -316.479      -10.618      -32.707      227.693      105.106       69.774    51844.295    11047.335     4868.346        8.454        3.388      316.657      106.799        0.114      340.452       14.481      859.613
09/25/2014  22:10:00      -34.127      -82.452      -17.374      103.459       78.999       35.113    10703.843     6240.824     1232.951        1.322        0.909       89.235       35.123        0.155      340.402       14.397      859.602
09/25/2014  22:11:00       -1.896      -70.371       -1.164      104.865      119.653       61.419    10996.696    14316.790     3772.234        1.702        1.454       70.396       61.179        0.755      340.399       14.390      859.576
09/25/2014  22:12:00     -120.087      -95.194        8.701      125.673       78.424       58.477    15793.724     6150.385     3419.537        2.446        1.268      153.241       67.885        0.196      340.358       14.322      859.602
09/25/2014  22:13:00     -284.693     -232.255       14.945      201.631      144.990       91.314    40654.916    21022.120     8338.258       10.260        3.501      367.414       89.666        0.060      340.422       14.428      859.604
09/25/2014  22:14:00     -152.009     -151.249       16.691      126.422      101.728       68.682    15982.417    10348.643     4717.223        3.865        1.552      214.437       62.696        0.085      340.522       14.596      859.570
09/25/2014  22:15:00      -88.004      -79.823        5.020       91.448       70.313       42.126     8362.691     4943.972     1774.634        1.461        0.754      118.813       38.050        0.103      340.522       14.599      859.498
09/25/2014  22:16:00       16.814      -76.990        5.543      107.970       70.113       40.197    11657.498     4915.859     1615.784        1.221        0.909       78.804       42.400        0.289      340.532       14.616      859.443
09/25/2014  22:17:00      -71.713     -159.310      -18.769       82.154       64.064       41.131     6749.329     4104.170     1691.734        2.171        0.627      174.707       30.428        0.030      340.544       14.637      859.547
09/25/2014  22:18:00      -74.707     -148.881       16.913       71.479       95.191       45.584     5109.282     9061.251     2077.927        2.214        0.812      166.574       28.966        0.030      340.510       14.578      859.723
09/25/2014  22:19:00     -132.973     -152.981        9.618      127.693       98.272       57.281    16305.509     9657.362     3281.062        3.521        1.462      202.694       68.435        0.114      340.446       14.468      859.805
09/25/2014  22:20:00      -53.124        1.809       38.988       75.033       64.943       32.252     5630.023     4217.571     1040.219        0.761        0.544       53.154       40.494        0.580      340.363       14.332      859.821
09/25/2014  22:21:00      -32.745       47.223       91.291       30.796       73.573       56.010      948.404     5413.055     3137.100        1.057        0.475       57.465       55.935        0.947      340.291       14.211      859.753
09/25/2014  22:22:00      -15.661     -112.517      -18.061       87.437       80.337       66.223     7645.314     6454.041     4385.438        1.586        0.924      113.601       36.677        0.104      340.415       14.420      859.744
09/25/2014  22:23:00      161.434     -103.506       13.512      117.284      173.051      106.355    13755.639    29946.695    11311.459        4.598        2.751      191.767      127.995        0.445      340.364       14.331      859.770
09/25/2014  22:24:00        7.079       95.380      160.391       62.077      105.185       73.855     3853.513    11063.978     5454.580        2.762        1.019       95.642       76.277        0.636      340.367       14.336      859.844
09/25/2014  22:25:00       50.539       -2.048       61.034      110.579      106.589       80.961    12227.613    11361.316     6554.684        1.821        1.507       50.581       74.094        2.146      340.370       14.342      859.937
09/25/2014  22:26:00        5.414      -24.237       27.028      108.953       88.888       56.252    11870.770     7900.999     3164.318        1.214        1.147       24.835       58.545        5.557      340.407       14.405      859.922
09/25/2014  22:27:00      -16.940       22.228       75.684       20.973       33.141       32.097      439.856     1098.353     1030.244        0.454        0.128       27.947       25.888        0.858      340.375       14.353      859.901
09/25/2014  22:28:00       36.358      -51.227        9.364       46.048       67.617       49.696     2120.398     4572.083     2469.695        0.660        0.458       62.818       44.018        0.491      340.386       14.372      859.889
09/25/2014  22:29:00       31.457       90.593      106.664       46.932       74.355       63.296     2202.612     5528.683     4006.386        1.615        0.587       95.899       59.184        0.381      340.334       14.282      859.852
09/25/2014  22:30:00       11.676        6.560       54.154       26.852       50.128       32.212      721.041     2512.861     1037.602        0.369        0.214       13.392       25.298        3.568      340.327       14.270      859.837
09/25/2014  22:31:00       43.423      -76.281      -18.670       20.517       28.638       15.388      420.941      820.160      236.799        0.477        0.074       87.774       14.394        0.027      340.420       14.428      859.849
09/25/2014  22:32:00      -15.843       -4.263        7.819       37.294       21.470       26.006     1390.864      460.979      676.323        0.143        0.126       16.407       15.736        0.920      340.372       14.348      859.839
09/25/2014  22:33:00      -63.197      -28.306        0.577       52.737       32.819       23.114     2781.144     1077.106      534.239        0.459        0.220       69.247       26.173        0.143      340.342       14.295      859.856
09/25/2014  22:34:00     -104.166     -170.248       -5.697       63.256       69.788       39.677     4001.380     4870.374     1574.302        2.515        0.522      199.587       28.973        0.021      340.368       14.338      859.899
09/25/2014  22:35:00      -80.444     -184.243       -2.405       65.173       55.124       37.366     4247.469     3038.703     1396.189        2.455        0.434      201.039       37.235        0.034      340.405       14.400      859.922
09/25/2014  22:36:00      -69.061     -120.310       -8.002       85.095       58.714       37.042     7241.215     3447.382     1372.111        1.568        0.603      138.723       32.382        0.054      340.476       14.522      859.938
09/25/2014  22:37:00     -155.156     -164.898      -13.206      111.383       69.853       42.903    12406.174     4879.417     1840.639        3.528        0.956      226.417       46.414        0.042      340.451       14.476      859.957
09/25/2014  22:38:00     -233.462     -145.880       -5.534       99.719       93.931       51.974     9943.938     8823.034     2701.269        4.864        1.073      275.291       49.228        0.032      340.349       14.304      859.933
09/25/2014  22:39:00     -200.016      -80.474       -3.735      104.416       68.011       40.360    10902.787     4625.442     1628.919        3.182        0.858      215.598       46.791        0.047      340.315       14.247      859.892
09/25/2014  22:40:00      -82.567     -222.805        8.488       59.278       58.966       38.806     3513.870     3476.983     1505.885        3.251        0.425      237.612       27.245        0.013      340.430       14.441      859.847
09/25/2014  22:41:00      -95.750     -141.141        9.318      119.525      107.351       54.919    14286.275    11524.157     3016.107        2.900        1.441      170.555       55.289        0.105      340.428       14.440      859.900
09/25/2014  22:42:00     -150.232      -89.442        6.775       96.526       82.163       41.087     9317.187     6750.760     1688.163        2.418        0.888      174.841       46.230        0.070      340.346       14.301      859.996
09/25/2014  22:43:00     -281.650      -82.417      -23.226      125.600      128.155       61.412    15775.297    16423.686     3771.482        6.131        1.799      293.461       58.173        0.039      340.402       14.394      859.934
09/25/2014  22:44:00     -213.545      -54.112       -6.653      112.231      108.089       64.550    12595.732    11683.143     4166.716        3.850        1.422      220.294       58.614        0.071      340.394       14.381      859.841
09/25/2014  22:45:00     -199.355      -75.103       -1.366      105.001       80.086       43.887    11025.148     6413.701     1926.074        3.237        0.968      213.032       40.450        0.036      340.390       14.375      859.802
09/25/2014  22:46:00     -236.201        8.424      -23.251      163.639       85.572       51.773    26777.581     7322.627     2680.430        4.659        1.839      236.351       51.675        0.048      340.362       14.328      859.794
09/25/2014  22:47:00      -97.919      -84.314       10.538       88.877       90.609       33.668     7899.148     8210.048     1133.509        1.702        0.862      129.217       39.537        0.094      340.383       14.364      859.787
09/25/2014  22:48:00     -133.552      -83.743      -10.798       54.154       42.066       29.503     2932.630     1769.571      870.402        1.527        0.279      157.636       26.459        0.028      340.431       14.448      859.776
09/25/2014  22:49:00     -112.773     -117.747      -10.839       73.120      100.690       32.274     5346.579    10138.564     1041.586        2.161        0.826      163.040       38.335        0.055      340.454       14.482      859.789
09/25/2014  22:50:00     -176.857     -126.676      -18.438       99.063       59.582       39.867     9813.379     3550.048     1589.378        3.131        0.748      217.543       32.553        0.022      340.397       14.387      859.828
09/25/2014  22:51:00      -95.536      -92.526        1.748       69.954       62.636       42.766     4893.535     3923.276     1828.944        1.417        0.532      132.997       34.418        0.067      340.352       14.312      859.837
09/25/2014  22:52:00     -222.350      -49.192      -29.432       67.356       67.800       35.495     4536.790     4596.830     1259.871        3.156        0.520      227.727       26.682        0.014      340.405       14.400      859.827
09/25/2014  22:53:00      -88.469      -20.214       -0.074       95.466       53.742       35.266     9113.818     2888.220     1243.704        1.074        0.662       90.749       38.118        0.176      340.330       14.275      859.818
09/25/2014  22:54:00      -65.982     -102.656       -5.160       54.995       38.191       24.651     3024.435     1458.583      607.670        1.000        0.255      122.032       21.508        0.031      340.416       14.419      859.784
09/25/2014  22:55:00     -200.999     -138.129       -7.547      133.135       67.835       57.059    17724.868     4601.622     3255.678        4.256        1.279      243.885       68.051        0.078      340.394       14.382      859.763
09/25/2014  22:56:00     -193.738     -172.004       15.591      121.658      102.846       53.518    14800.733    10577.320     2864.138        4.780        1.412      259.075       57.026        0.048      340.431       14.443      859.751
09/25/2014  22:57:00     -130.279     -176.842       -8.160       86.040       79.009       45.743     7402.895     6242.442     2092.382        3.202        0.787      219.649       36.988        0.028      340.451       14.476      859.691
09/25/2014  22:58:00     -218.578     -147.724      -12.663      142.702       87.149       50.872    20363.726     7594.912     2587.947        5.015        1.527      263.816       43.970        0.028      340.396       14.384      859.599
09/25/2014  22:59:00     -211.575     -100.911       -5.906      103.864       83.823       46.048    10787.639     7026.234     2120.382        3.745        0.997      234.408       41.739        0.032      340.381       14.359      859.546
09/25/2014  23:00:00     -270.038      -74.075        0.162      138.284      119.150       63.309    19122.593    14196.742     4008.081        5.786        1.866      280.014       62.687        0.050      340.342       14.292      859.513
09/25/2014  23:01:00     -270.196     -177.679        7.652      172.315      129.777       83.690    29692.541    16842.001     7004.011        7.908        2.677      323.382       89.169        0.076      340.407       14.403      859.546
09/25/2014  23:02:00     -289.120     -194.973        5.566      222.956      153.846       95.065    49709.461    23668.449     9037.366       10.201        4.121      348.718      113.848        0.107      340.500       14.560      859.568
09/25/2014  23:03:00     -321.425     -232.314       -2.240      157.116      122.796       74.403    24685.302    15078.841     5535.734       10.129        2.265      396.591       88.301        0.050      340.468       14.505      859.643
09/25/2014  23:04:00     -316.998     -174.926       11.773      168.599      131.326       81.317    28425.730    17246.497     6612.452        9.175        2.614      362.059       88.168        0.059      340.470       14.509      859.721
09/25/2014  23:05:00     -263.456      -74.259       -3.753      169.000       95.695       57.526    28561.085     9157.473     3309.197        5.798        2.051      273.722       67.663        0.061      340.496       14.555      859.709
09/25/2014  23:06:00     -302.401     -183.385        2.330      187.870      128.395       74.507    35295.213    16485.280     5551.335        9.120        2.867      353.661       92.117        0.068      340.458       14.489      859.676
09/25/2014  23:07:00     -252.311     -172.276       -8.374      139.876      123.811       77.955    19565.206    15329.129     6077.023        6.718        2.049      305.516       72.528        0.056      340.432       14.445      859.679
09/25/2014  23:08:00     -283.126     -129.866        2.885      200.832      132.551       83.673    40333.686    17569.761     7001.193        8.096        3.245      311.489       95.279        0.094      340.394       14.382      859.721
09/25/2014  23:09:00     -355.484     -196.031      -16.684      189.957      154.085       82.806    36083.848    23742.232     6856.876       11.587        3.334      405.952       87.056        0.046      340.534       14.619      859.817
09/25/2014  23:10:00     -247.270     -162.514      -12.570      187.774      129.554       74.950    35259.181    16784.362     5617.558        7.268        2.883      295.894       89.829        0.092      340.559       14.660      859.847
09/25/2014  23:11:00     -319.103      -61.816       -8.046      141.514      128.060       60.228    20026.073    16399.262     3627.399        7.288        2.003      325.035       69.214        0.045      340.472       14.514      859.846
09/25/2014  23:12:00     -150.035      -20.201        5.501      173.785      102.874       68.519    30201.291    10583.009     4694.871        3.421        2.274      151.389       85.128        0.316      340.463       14.499      859.848
09/25/2014  23:13:00     -139.827     -135.512       10.508      108.296       98.185       58.009    11727.992     9640.307     3364.990        3.138        1.237      194.718       62.677        0.104      340.431       14.444      859.860
09/25/2014  23:14:00     -158.490     -123.452       18.347      109.425       65.902       55.281    11973.784     4343.134     3056.036        3.003        0.969      200.897       58.374        0.084      340.396       14.384      859.897
09/25/2014  23:15:00     -253.896     -157.742      -15.098      116.572      121.591       55.380    13588.981    14784.363     3066.942        6.050        1.572      298.907       53.461        0.032      340.436       14.453      859.899
09/25/2014  23:16:00     -116.742      -89.654        2.240       94.364       79.664       43.523     8904.645     6346.277     1894.238        1.941        0.857      147.196       49.692        0.114      340.398       14.390      859.872
09/25/2014  23:17:00     -212.842     -103.125       -4.282      112.851       66.642       52.381    12735.432     4441.113     2743.719        3.793        0.996      236.509       53.798        0.052      340.410       14.408      859.818
09/25/2014  23:18:00     -190.677       15.870      -16.732       72.768       74.541       35.102     5295.166     5556.306     1232.180        2.448        0.604      191.337       30.894        0.026      340.352       14.311      859.750
09/25/2014  23:19:00     -285.069      -15.730      -28.907       86.664       83.095       44.653     7510.591     6904.826     1993.930        4.938        0.820      285.503       42.351        0.022      340.404       14.397      859.722
09/25/2014  23:20:00     -119.847       -1.143        2.188       61.916       86.388       40.019     3833.631     7462.852     1601.485        1.363        0.645      119.852       28.318        0.056      340.432       14.448      859.736
09/25/2014  23:21:00     -107.597       -1.993        1.822       52.336       60.049       29.682     2739.087     3605.894      881.011        0.940        0.361      107.616       28.673        0.071      340.388       14.373      859.807
09/25/2014  23:22:00      -69.002      -36.599       23.466       97.162       57.938       39.837     9440.407     3356.802     1587.025        1.052        0.719       78.107       37.895        0.235      340.323       14.263      859.898
09/25/2014  23:23:00      -25.122      -42.221       12.101       39.667       43.565       22.696     1573.493     1897.946      515.093        0.327        0.199       49.130       19.461        0.157      340.371       14.345      859.984
09/25/2014  23:24:00       33.329       11.607       12.776       70.113       54.154       30.909     4915.804     2932.679      955.348        0.510        0.440       35.293       41.040        1.352      340.368       14.340      860.048
09/25/2014  23:25:00       39.544      127.135      120.314       66.687       49.552       46.994     4447.116     2455.432     2208.434        2.066        0.456      133.143       47.129        0.125      340.345       14.300      860.026
09/25/2014  23:26:00       63.660        4.473       37.500       65.450       80.745       34.394     4283.754     6519.683     1182.929        0.873        0.599       63.817       20.680        0.105      340.251       14.142      860.030
09/25/2014  23:27:00      112.690       79.683        8.941       49.563       41.222       36.772     2456.519     1699.291     1352.201        1.232        0.275      138.016       20.539        0.022      340.045       13.795      859.983
09/25/2014  23:28:00       79.641       47.157       26.730       46.240       40.996       36.849     2138.102     1680.672     1357.870        0.723        0.259       92.556       14.781        0.026      339.970       13.670      859.941
09/25/2014  23:29:00       22.432        4.818        0.149       39.180       26.654       19.393     1535.079      710.417      376.077        0.157        0.131       22.943       10.468        0.208      339.948       13.631      859.977
09/25/2014  23:30:00       13.942      -20.004       12.034       30.156       48.926       23.657      909.357     2393.717      559.639        0.230        0.193       24.384       19.896        0.666      339.926       13.594      860.048
09/25/2014  23:31:00       95.227       -1.861       20.489       57.564       43.067       29.913     3313.659     1854.733      894.804        0.778        0.303       95.245       23.263        0.060      339.944       13.625      860.122
09/25/2014  23:32:00       58.240       18.378       11.128       25.482       20.974       22.020      649.353      439.888      484.886        0.271        0.079       61.071       14.186        0.054      339.980       13.687      860.141
09/25/2014  23:33:00       14.329       22.321       -0.675       15.785       16.975       12.298      249.151      288.140      151.231        0.070        0.034       26.524        9.386        0.125      339.961       13.653      860.113
09/25/2014  23:34:00      -12.618        6.478       -1.659       14.708       10.259        5.603      216.316      105.247       31.392        0.028        0.018       14.184        5.548        0.153      339.946       13.629      860.080
09/25/2014  23:35:00      -25.274        6.322       -2.965       10.323        9.252        7.529      106.559       85.605       56.684        0.047        0.012       26.053        5.136        0.039      339.808       13.395      860.073
09/25/2014  23:36:00      -31.805        1.952       -3.334       13.303        9.207        6.817      176.964       84.765       46.470        0.067        0.015       31.864        1.980        0.004      339.870       13.499      860.086
09/25/2014  23:37:00      -17.146      -16.401        7.809       14.812       33.259       11.344      219.387     1106.136      128.686        0.104        0.073       23.727       13.368        0.317      339.967       13.663      860.077
09/25/2014  23:38:00       19.340      -22.071        6.046       20.742       19.245       16.792      430.211      370.371      281.961        0.099        0.054       29.346       13.854        0.223      340.005       13.727      860.050
09/25/2014  23:39:00        2.112        0.968        2.561       11.408        8.304        9.723      130.148       68.949       94.541        0.015        0.015        2.324        6.819        8.614      339.958       13.648      860.026
09/25/2014  23:40:00       20.644       24.579       24.717       16.938       15.704       18.120      286.899      246.621      328.345        0.125        0.043       32.098       15.658        0.238      339.956       13.645      860.010
09/25/2014  23:41:00       19.078       -1.934       25.883       29.316       23.613       26.556      859.431      557.560      705.245        0.158        0.106       19.176       23.111        1.452      339.915       13.576      859.991
09/25/2014  23:42:00       36.838        3.726       -1.041       29.309       55.214       24.820      859.015     3048.541      616.051        0.295        0.226       37.026       22.889        0.382      340.170       14.004      859.942
09/25/2014  23:43:00       18.713       47.693       38.383       16.146       24.027       13.698      260.700      577.299      187.628        0.256        0.051       51.233        6.560        0.016      340.074       13.843      859.895
09/25/2014  23:44:00        1.278       -2.251        5.390        8.939        9.329        7.768       79.898       87.035       60.340        0.013        0.011        2.589        5.912        5.216      339.971       13.669      859.889
09/25/2014  23:45:00      -17.219      -16.169        6.408       16.012       14.955       13.630      256.384      223.653      185.779        0.063        0.033       23.620        8.052        0.116      339.972       13.673      859.902
09/25/2014  23:46:00       26.685      -10.115       -2.027       34.487       23.340       16.948     1189.346      544.764      287.244        0.142        0.101       28.538       14.248        0.249      339.975       13.676      859.896
09/25/2014  23:47:00       70.360      -38.889       16.347       39.016       45.721       41.821     1522.242     2090.426     1749.023        0.605        0.268       80.392       31.870        0.157      340.088       13.868      859.893
09/25/2014  23:48:00       52.172       39.197       33.013       38.163       35.790       40.238     1456.430     1280.942     1619.078        0.485        0.218       65.256       36.212        0.308      340.377       14.354      859.893
09/25/2014  23:49:00        3.810       57.676       68.245       21.098       33.703       21.254      445.129     1135.864      451.737        0.502        0.102       57.802       18.362        0.101      339.949       13.633      859.907
09/25/2014  23:50:00       25.422       -3.718       20.172       29.620       41.817       27.050      877.346     1748.684      731.681        0.221        0.168       25.692       29.302        1.301      339.843       13.454      859.919
09/25/2014  23:51:00       10.066       -4.644       19.347       13.773       19.299        8.943      189.685      372.440       79.970        0.057        0.032       11.086        5.779        0.272      339.743       13.286      859.948
09/25/2014  23:52:00      -36.214       47.293       -9.684       17.942       13.197       11.111      321.915      174.149      123.454        0.213        0.031       59.566        8.573        0.021      339.659       13.143      860.006
09/25/2014  23:53:00       11.982       54.857      -11.453       12.224       14.444        8.428      149.429      208.626       71.037        0.186        0.021       56.150        7.603        0.018      339.753       13.302      860.073
09/25/2014  23:54:00       12.441       18.339        6.879       12.873       24.897       12.862      165.726      619.874      165.437        0.074        0.048       22.160        5.517        0.062      339.710       13.231      860.148
09/25/2014  23:55:00       15.762       -1.932       -1.839       10.617        9.873       13.548      112.715       97.474      183.553        0.032        0.020       15.880        9.116        0.330      339.803       13.386      860.202
09/25/2014  23:56:00      -12.607        6.368       -8.097       24.041       21.957        8.293      577.978      482.119       68.771        0.070        0.056       14.124        6.124        0.188      339.883       13.522      860.203
09/25/2014  23:57:00      -23.133       86.686      -11.090       26.662       24.820       16.685      710.860      616.032      278.402        0.489        0.080       89.719       14.155        0.025      339.980       13.685      860.173
09/25/2014  23:58:00        4.267      168.834      -27.386       22.974       37.338       17.407      527.784     1394.097      303.016        1.575        0.111      168.888       12.885        0.006      339.848       13.462      860.141
09/25/2014  23:59:00      -61.780      199.182      -26.327       69.592       65.642       28.212     4842.999     4308.876      795.913        2.706        0.497      208.543       22.118        0.011      339.671       13.162      860.126
